[[{"header":{"parameterUnit":"m.s-1","parameterCategory":1,"la1":31.0,"la2":29.5877,"lo1":-88.7671,"lo2":-86.6584,"dx":0.0162,"dy":0.0185,"nx":115,"ny":88,"refTime":"2022-12-11T06:00:00:Z","depth":0,"parameterNumber":2,"parameterNumberName":"U-component_of_WINDS"},"data":[0.0,0.0,0.0,0.0,0.0,0.0,0.0,0.0,0.0,0.0,0.0,0.0,0.0,0.0,0.0,0.0,0.0,0.0,0.0,0.0,0.0,0.0,0.0,0.0,0.0,0.0,0.0,0.0,0.0,0.0,0.0,0.0,0.0,0.0,0.0,0.0,0.0,0.0,0.0,0.0,0.0,0.0,0.0,0.0,0.0,0.0,0.0,0.0,0.0,0.0,0.0,0.0,0.0,0.0,0.0,0.0,0.0,0.0,0.0,0.0,0.0,0.0,0.0,0.0,0.0,0.0,0.0,0.0,0.0,0.0,0.0,0.0,0.0,0.0,0.0,0.0,0.0,0.0,0.0,0.0,0.0,0.0,0.0,0.0,0.0,0.0,0.0,0.0,0.0,0.0,0.0,0.0,0.0,0.0,0.0,0.0,0.0,0.0,0.0,0.0,0.0,0.0,0.0,0.0,0.0,0.0,0.0,0.0,0.0,0.0,0.0,0.0,0.0,0.0,0.0,0.0,0.0,0.0,0.0,0.0,0.0,0.0,0.0,0.0,0.0,0.0,0.0,0.0,0.0,0.0,0.0,0.0,0.0,0.0,0.0,0.0,0.0,0.0,0.0,0.0,0.0,0.0,0.0,0.0,0.0,0.0,0.0,0.0,0.0,0.0,0.0,0.0,0.0,0.0,0.0,0.0,0.0,0.0,0.0,0.0,0.0,0.0,0.0,0.0,0.0,0.0,0.0,0.0,0.0,0.0,0.0,0.0,0.0,0.0,0.0,0.0,0.0,0.0,0.0,0.0,0.0,0.0,0.0,0.0,0.0,0.0,0.0,0.0,0.0,0.0,0.0,0.0,0.0,0.0,0.0,0.0,0.0,0.0,0.0,0.0,0.0,0.0,0.0,0.0,0.0,0.0,0.0,0.0,0.0,0.0,0.0,0.0,0.0,0.0,0.0,0.0,0.0,0.0,0.0,0.0,0.0,0.0,0.0,0.0,0.0,0.0,0.0,0.0,0.0,0.0,0.0,0.0,0.0,0.0,0.0,0.0,0.0,0.0,0.0,0.0,0.0,0.0,0.0,0.0,0.0,0.0,0.0,0.0,0.0,0.0,0.0,0.0,0.0,0.0,0.0,0.0,0.0,0.0,0.0,0.0,0.0,0.0,0.0,0.0,0.0,0.0,0.0,0.0,0.0,0.0,0.0,0.0,0.0,0.0,0.0,0.0,0.0,0.0,0.0,0.0,0.0,0.0,0.0,0.0,0.0,0.0,0.0,0.0,0.0,0.0,0.0,0.0,0.0,0.0,0.0,0.0,0.0,0.0,0.0,0.0,0.0,0.0,0.0,0.0,0.0,0.0,0.0,0.0,0.0,0.0,0.0,0.0,0.0,0.0,0.0,0.0,0.0,0.0,0.0,0.0,0.0,0.0,0.0,0.0,0.0,0.0,0.0,0.0,0.0,0.0,0.0,0.0,0.0,0.0,0.0,0.0,0.0,0.0,0.0,0.0,0.0,0.0,0.0,0.0,0.0,0.0,0.0,0.0,0.0,0.0,0.0,0.0,0.0,0.0,0.0,0.0,0.0,0.0,0.0,0.0,0.0,0.0,0.0,0.0,0.0,0.0,0.0,0.0,0.0,0.0,0.0,0.0,0.0,0.0,0.0,0.0,0.0,0.0,0.0,0.0,0.0,0.0,0.0,0.0,0.0,0.0,0.0,0.0,0.0,0.0,0.0,0.0,0.0,0.0,0.0,0.0,0.0,0.0,0.0,0.0,0.0,0.0,0.0,0.0,0.0,0.0,0.0,0.0,0.0,0.0,0.0,0.0,0.0,0.0,0.0,0.0,0.0,0.0,0.0,0.0,0.0,0.0,0.0,0.0,0.0,0.0,0.0,0.0,0.0,0.0,0.0,0.0,0.0,0.0,0.0,0.0,0.0,0.0,0.0,0.0,0.0,0.0,0.0,0.0,0.0,0.0,0.0,0.0,0.0,0.0,0.0,0.0,0.0,0.0,0.0,0.0,0.0,0.0,0.0,0.0,0.0,0.0,0.0,0.0,0.0,0.0,0.0,0.0,0.0,0.0,0.0,0.0,0.0,0.0,0.0,0.0,0.0,0.0,0.0,0.0,0.0,0.0,0.0,0.0,0.0,0.0,0.0,0.0,0.0,0.0,0.0,0.0,0.0,0.0,0.0,0.0,0.0,0.0,0.0,0.0,0.0,0.0,0.0,0.0,0.0,0.0,0.0,0.0,0.0,0.0,0.0,0.0,0.0,0.0,0.0,0.0,0.0,0.0,0.0,0.0,0.0,0.0,0.0,0.0,0.0,0.0,0.0,0.0,0.0,0.0,0.0,0.0,0.0,0.0,0.0,0.0,0.0,0.0,0.0,0.0,0.0,0.0,0.0,0.0,0.0,0.0,0.0,0.0,0.0,0.0,0.0,0.0,0.0,0.0,0.0,0.0,0.0,0.0,0.0,0.0,0.0,0.0,0.0,0.0,0.0,0.0,0.0,0.0,0.0,0.0,0.0,0.0,0.0,0.0,0.0,0.0,0.0,0.0,0.0,0.0,0.0,0.0,0.0,0.0,0.0,0.0,0.0,0.0,0.0,0.0,0.0,0.0,0.0,0.0,0.0,0.0,0.0,0.0,0.0,0.0,0.0,0.0,0.0,0.0,0.0,0.0,0.0,0.0,0.0,0.0,0.0,0.0,0.0,0.0,0.0,0.0,0.0,0.0,0.0,0.0,0.0,0.0,0.0,0.0,0.0,0.0,0.0,0.0,0.0,0.0,0.0,0.0,0.0,0.0,0.0,0.0,0.0,0.0,0.0,0.0,0.0,0.0,0.0,0.0,0.0,0.0,0.0,0.0,0.0,0.0,0.0,0.0,0.0,0.0,0.0,0.0,0.0,0.0,0.0,0.0,0.0,0.0,0.0,0.0,0.0,0.0,0.0,0.0,0.0,0.0,0.0,0.0,0.0,0.0,0.0,0.0,0.0,0.0,0.0,0.0,0.0,0.0,0.0,0.0,0.0,0.0,0.0,0.0,0.0,0.0,0.0,0.0,0.0,0.0,0.0,0.0,0.0,0.0,0.0,0.0,0.0,0.0,0.0,0.0,0.0,0.0,0.0,0.0,0.0,0.0,0.0,0.0,0.0,0.0,0.0,0.0,0.0,0.0,0.0,0.0,0.0,0.0,0.0,0.0,0.0,0.0,0.0,0.0,0.0,0.0,0.0,0.0,0.0,0.0,0.0,0.0,0.0,0.0,0.0,0.0,0.0,0.0,0.0,0.0,0.0,0.0,0.0,0.0,0.0,0.0,0.0,0.0,0.0,0.0,0.0,0.0,0.0,0.0,0.0,0.0,0.0,0.0,0.0,0.0,0.0,0.0,0.0,0.0,0.0,0.0,0.0,0.0,0.0,0.0,0.0,0.0,0.0,0.0,0.0,0.0,0.0,0.0,0.0,0.0,0.0,0.0,0.0,0.0,0.0,0.0,0.0,0.0,0.0,0.0,0.0,0.0,0.0,0.0,0.0,0.0,0.0,0.0,0.0,0.0,0.0,0.0,0.0,0.0,0.0,0.0,0.0,0.0,0.0,0.0,0.0,0.0,0.0,0.0,0.0,0.0,0.0,0.0,0.0,0.0,0.0,0.0,0.0,0.0,0.0,0.0,0.0,0.0,0.0,0.0,0.0,0.0,0.0,0.0,0.0,0.0,0.0,0.0,0.0,0.0,0.0,0.0,0.0,0.0,0.0,0.0,0.0,0.0,0.0,0.0,0.0,0.0,0.0,0.0,0.0,0.0,0.0,0.0,0.0,0.0,0.0,0.0,0.0,0.0,0.0,0.0,0.0,0.0,0.0,0.0,0.0,0.0,0.0,0.0,0.0,0.0,0.0,0.0,0.0,0.0,0.0,0.0,0.0,0.0,0.0,0.0,0.0,0.0,0.0,0.0,0.0,0.0,0.0,0.0,0.0,0.0,0.0,0.0,0.0,0.0,0.0,0.0,0.0,0.0,0.0,0.0,0.0,0.0,0.0,0.0,0.0,0.0,0.0,0.0,0.0,0.0,0.0,0.0,0.0,0.0,0.0,0.0,0.0,0.0,0.0,0.0,0.0,0.0,0.0,0.0,0.0,0.0,0.0,0.0,0.0,0.0,0.0,0.0,0.0,0.0,0.0,0.0,0.0,0.0,0.0,0.0,0.0,0.0,0.0,0.0,0.0,0.0,0.0,0.0,0.0,0.0,0.0,0.0,-2.827,0.0,0.0,0.0,-2.786,0.0,0.0,0.0,0.0,0.0,0.0,0.0,0.0,0.0,0.0,0.0,0.0,0.0,0.0,0.0,0.0,0.0,0.0,0.0,0.0,0.0,0.0,0.0,0.0,0.0,0.0,0.0,0.0,0.0,0.0,0.0,0.0,0.0,0.0,0.0,0.0,0.0,0.0,0.0,0.0,0.0,0.0,0.0,0.0,0.0,0.0,0.0,0.0,0.0,0.0,0.0,0.0,0.0,0.0,0.0,0.0,0.0,0.0,0.0,0.0,0.0,0.0,0.0,0.0,0.0,0.0,0.0,0.0,0.0,0.0,0.0,0.0,0.0,0.0,0.0,0.0,0.0,0.0,0.0,0.0,0.0,0.0,0.0,0.0,0.0,0.0,0.0,0.0,0.0,0.0,0.0,0.0,0.0,0.0,0.0,0.0,0.0,0.0,0.0,0.0,0.0,0.0,0.0,0.0,0.0,0.0,0.0,0.0,0.0,0.0,-2.8057,-2.8057,-2.8215,-2.8304,-2.8315,0.0,0.0,0.0,0.0,0.0,0.0,0.0,0.0,0.0,0.0,0.0,0.0,0.0,0.0,0.0,0.0,0.0,0.0,0.0,0.0,0.0,0.0,0.0,0.0,0.0,0.0,0.0,0.0,0.0,0.0,0.0,0.0,0.0,0.0,0.0,0.0,0.0,0.0,0.0,0.0,0.0,0.0,0.0,0.0,0.0,0.0,0.0,0.0,0.0,0.0,0.0,0.0,0.0,0.0,0.0,0.0,0.0,0.0,0.0,0.0,0.0,0.0,0.0,0.0,0.0,0.0,0.0,0.0,0.0,0.0,0.0,0.0,0.0,0.0,0.0,0.0,0.0,0.0,0.0,0.0,0.0,0.0,0.0,0.0,0.0,0.0,0.0,0.0,0.0,0.0,0.0,0.0,0.0,0.0,0.0,0.0,0.0,0.0,0.0,0.0,0.0,0.0,0.0,0.0,0.0,0.0,0.0,0.0,0.0,0.0,0.0,0.0,-2.8285,-2.8541,-2.8615,0.0,0.0,0.0,0.0,0.0,0.0,0.0,0.0,0.0,0.0,0.0,0.0,0.0,0.0,0.0,0.0,0.0,0.0,0.0,0.0,0.0,0.0,0.0,0.0,0.0,0.0,0.0,0.0,0.0,0.0,0.0,0.0,0.0,0.0,0.0,0.0,0.0,0.0,0.0,0.0,0.0,0.0,0.0,0.0,0.0,0.0,0.0,0.0,0.0,0.0,0.0,0.0,0.0,0.0,0.0,0.0,0.0,0.0,0.0,0.0,0.0,0.0,0.0,0.0,0.0,0.0,0.0,0.0,0.0,0.0,0.0,0.0,0.0,0.0,0.0,0.0,0.0,0.0,0.0,0.0,0.0,0.0,0.0,0.0,0.0,0.0,0.0,0.0,0.0,0.0,0.0,0.0,0.0,0.0,0.0,0.0,0.0,0.0,0.0,0.0,0.0,0.0,0.0,0.0,0.0,0.0,0.0,0.0,0.0,0.0,-2.8179,-2.8428,-2.8478,0.0,-2.8938,0.0,0.0,0.0,0.0,0.0,0.0,0.0,0.0,0.0,0.0,0.0,0.0,0.0,0.0,0.0,0.0,0.0,0.0,0.0,0.0,0.0,0.0,0.0,0.0,0.0,0.0,0.0,0.0,0.0,0.0,0.0,0.0,0.0,0.0,0.0,0.0,0.0,0.0,0.0,0.0,0.0,0.0,0.0,0.0,0.0,0.0,0.0,0.0,0.0,0.0,0.0,0.0,0.0,0.0,0.0,0.0,0.0,0.0,0.0,0.0,0.0,0.0,0.0,0.0,0.0,0.0,0.0,0.0,0.0,0.0,0.0,0.0,0.0,0.0,0.0,0.0,0.0,0.0,0.0,0.0,0.0,0.0,0.0,0.0,0.0,0.0,0.0,0.0,0.0,0.0,0.0,0.0,0.0,0.0,0.0,0.0,0.0,0.0,0.0,0.0,0.0,0.0,0.0,0.0,0.0,0.0,0.0,0.0,0.0,0.0,-2.8853,-2.9431,-2.9154,-2.9008,0.0,0.0,0.0,0.0,0.0,0.0,0.0,0.0,0.0,0.0,0.0,0.0,0.0,0.0,0.0,0.0,0.0,0.0,0.0,0.0,0.0,0.0,0.0,0.0,0.0,0.0,0.0,0.0,0.0,0.0,0.0,0.0,0.0,0.0,0.0,0.0,0.0,0.0,0.0,0.0,0.0,0.0,0.0,0.0,0.0,0.0,0.0,0.0,0.0,0.0,0.0,0.0,0.0,0.0,0.0,0.0,0.0,0.0,0.0,0.0,0.0,0.0,0.0,0.0,0.0,0.0,0.0,0.0,0.0,0.0,0.0,0.0,0.0,0.0,0.0,0.0,0.0,0.0,0.0,0.0,0.0,0.0,0.0,0.0,0.0,0.0,0.0,0.0,0.0,0.0,0.0,0.0,0.0,0.0,0.0,0.0,0.0,0.0,0.0,0.0,0.0,0.0,0.0,0.0,0.0,0.0,0.0,0.0,0.0,0.0,-2.9105,-2.9511,-3.0018,-2.9659,-2.931,-2.9113,0.0,0.0,0.0,0.0,0.0,0.0,0.0,0.0,0.0,0.0,0.0,0.0,0.0,0.0,0.0,0.0,0.0,0.0,0.0,0.0,0.0,0.0,0.0,0.0,0.0,0.0,0.0,0.0,0.0,0.0,0.0,0.0,0.0,0.0,0.0,0.0,0.0,0.0,0.0,0.0,0.0,0.0,0.0,0.0,0.0,0.0,0.0,0.0,0.0,0.0,0.0,0.0,0.0,0.0,0.0,0.0,0.0,0.0,0.0,0.0,0.0,0.0,0.0,0.0,0.0,0.0,0.0,0.0,0.0,0.0,0.0,0.0,0.0,0.0,0.0,0.0,0.0,0.0,0.0,0.0,0.0,0.0,0.0,0.0,0.0,0.0,0.0,0.0,0.0,0.0,0.0,0.0,0.0,0.0,0.0,0.0,0.0,0.0,0.0,0.0,0.0,0.0,0.0,0.0,0.0,0.0,0.0,0.0,-2.8965,-2.9667,-3.0072,-3.0124,-2.9848,-2.9575,0.0,0.0,0.0,0.0,0.0,0.0,0.0,0.0,0.0,0.0,0.0,0.0,0.0,0.0,0.0,0.0,0.0,0.0,0.0,0.0,0.0,0.0,0.0,0.0,0.0,0.0,0.0,0.0,0.0,0.0,0.0,0.0,0.0,0.0,0.0,0.0,0.0,0.0,0.0,0.0,0.0,0.0,0.0,0.0,0.0,0.0,0.0,0.0,0.0,0.0,0.0,0.0,0.0,0.0,0.0,0.0,0.0,0.0,0.0,0.0,0.0,0.0,0.0,0.0,0.0,0.0,0.0,0.0,0.0,0.0,0.0,0.0,0.0,0.0,0.0,0.0,0.0,0.0,0.0,0.0,0.0,0.0,0.0,0.0,0.0,0.0,0.0,0.0,0.0,0.0,0.0,0.0,0.0,0.0,0.0,0.0,0.0,0.0,0.0,0.0,0.0,0.0,0.0,0.0,0.0,0.0,0.0,0.0,0.0,-3.0334,-3.1142,-3.1317,-3.0842,-3.0698,-3.0213,0.0,0.0,0.0,0.0,0.0,0.0,0.0,0.0,0.0,0.0,0.0,0.0,0.0,0.0,0.0,0.0,0.0,0.0,0.0,0.0,0.0,0.0,0.0,0.0,0.0,0.0,0.0,0.0,0.0,0.0,0.0,0.0,0.0,0.0,0.0,0.0,0.0,0.0,0.0,0.0,0.0,0.0,0.0,0.0,0.0,0.0,0.0,0.0,0.0,0.0,0.0,0.0,0.0,0.0,0.0,0.0,0.0,0.0,0.0,0.0,0.0,0.0,0.0,0.0,0.0,0.0,0.0,0.0,0.0,0.0,0.0,0.0,0.0,0.0,0.0,0.0,0.0,0.0,0.0,0.0,0.0,0.0,0.0,0.0,0.0,0.0,0.0,0.0,0.0,0.0,0.0,0.0,0.0,0.0,0.0,0.0,0.0,0.0,0.0,0.0,0.0,0.0,0.0,0.0,0.0,0.0,0.0,0.0,0.0,-3.1879,-3.2687,-3.2827,-3.2335,-3.1844,-3.1064,0.0,0.0,0.0,0.0,0.0,0.0,0.0,0.0,0.0,0.0,0.0,0.0,0.0,0.0,0.0,0.0,0.0,0.0,0.0,0.0,0.0,0.0,0.0,0.0,0.0,0.0,0.0,0.0,0.0,0.0,0.0,0.0,0.0,0.0,0.0,0.0,0.0,0.0,0.0,0.0,0.0,0.0,0.0,0.0,0.0,0.0,0.0,0.0,0.0,0.0,0.0,0.0,0.0,0.0,0.0,0.0,0.0,0.0,0.0,0.0,0.0,0.0,0.0,0.0,0.0,0.0,0.0,0.0,0.0,0.0,0.0,0.0,0.0,0.0,0.0,0.0,0.0,0.0,0.0,0.0,0.0,0.0,0.0,0.0,0.0,0.0,0.0,0.0,0.0,0.0,0.0,0.0,0.0,0.0,0.0,0.0,0.0,0.0,0.0,0.0,0.0,0.0,0.0,0.0,0.0,0.0,0.0,0.0,-3.1917,-3.3423,-3.414,-3.4455,-3.4618,-3.3178,-3.2019,0.0,0.0,0.0,0.0,0.0,0.0,0.0,0.0,0.0,0.0,0.0,0.0,0.0,0.0,0.0,0.0,0.0,0.0,0.0,0.0,0.0,0.0,0.0,0.0,0.0,0.0,0.0,0.0,0.0,0.0,0.0,0.0,0.0,0.0,0.0,0.0,0.0,0.0,0.0,0.0,0.0,0.0,0.0,0.0,0.0,0.0,0.0,0.0,0.0,0.0,0.0,0.0,0.0,0.0,0.0,0.0,0.0,0.0,0.0,0.0,0.0,0.0,0.0,0.0,0.0,0.0,0.0,0.0,0.0,0.0,0.0,0.0,0.0,0.0,0.0,0.0,0.0,0.0,0.0,0.0,0.0,0.0,0.0,0.0,0.0,0.0,0.0,0.0,0.0,0.0,0.0,0.0,0.0,0.0,0.0,0.0,0.0,0.0,0.0,0.0,0.0,0.0,0.0,0.0,0.0,0.0,0.0,0.0,0.0,-3.4337,-3.4529,-3.4669,-3.4653,-3.3705,-3.2827,0.0,0.0,0.0,0.0,0.0,0.0,0.0,0.0,0.0,0.0,0.0,0.0,0.0,0.0,0.0,0.0,0.0,0.0,0.0,0.0,0.0,0.0,0.0,0.0,0.0,0.0,0.0,0.0,0.0,0.0,0.0,0.0,0.0,0.0,0.0,0.0,0.0,0.0,0.0,0.0,0.0,0.0,0.0,0.0,0.0,0.0,0.0,0.0,0.0,0.0,0.0,0.0,0.0,0.0,0.0,0.0,0.0,0.0,0.0,0.0,0.0,0.0,0.0,0.0,0.0,0.0,0.0,0.0,0.0,0.0,0.0,0.0,0.0,0.0,0.0,0.0,0.0,0.0,0.0,0.0,0.0,0.0,0.0,0.0,0.0,0.0,0.0,0.0,0.0,0.0,0.0,0.0,0.0,0.0,0.0,0.0,0.0,0.0,0.0,0.0,0.0,0.0,0.0,0.0,0.0,0.0,0.0,0.0,0.0,-3.7965,-3.7944,-3.7923,-3.7965,-3.7271,-3.5575,-3.288,0.0,0.0,0.0,0.0,0.0,0.0,0.0,0.0,0.0,0.0,0.0,0.0,0.0,0.0,0.0,0.0,0.0,0.0,0.0,0.0,0.0,0.0,0.0,0.0,0.0,0.0,0.0,0.0,0.0,0.0,0.0,0.0,0.0,0.0,0.0,0.0,0.0,0.0,0.0,0.0,0.0,0.0,0.0,0.0,0.0,0.0,0.0,0.0,0.0,0.0,0.0,0.0,0.0,0.0,0.0,0.0,0.0,0.0,0.0,0.0,0.0,0.0,0.0,0.0,0.0,0.0,0.0,0.0,0.0,0.0,0.0,0.0,0.0,0.0,0.0,0.0,0.0,0.0,0.0,0.0,0.0,0.0,0.0,0.0,0.0,0.0,0.0,0.0,0.0,0.0,0.0,0.0,0.0,0.0,0.0,0.0,0.0,0.0,0.0,0.0,0.0,0.0,0.0,0.0,0.0,0.0,0.0,0.0,-4.392,-4.4029,-4.4029,-4.384,-4.2892,-3.9822,0.0,0.0,0.0,0.0,0.0,0.0,0.0,0.0,0.0,0.0,0.0,0.0,0.0,0.0,0.0,0.0,0.0,0.0,0.0,0.0,0.0,0.0,0.0,0.0,0.0,0.0,0.0,0.0,0.0,0.0,0.0,0.0,0.0,0.0,0.0,0.0,0.0,0.0,0.0,0.0,0.0,0.0,0.0,0.0,0.0,0.0,0.0,0.0,0.0,0.0,0.0,0.0,0.0,0.0,0.0,0.0,0.0,0.0,0.0,0.0,0.0,0.0,0.0,0.0,0.0,0.0,0.0,0.0,0.0,0.0,0.0,0.0,0.0,0.0,0.0,0.0,0.0,0.0,0.0,0.0,0.0,0.0,0.0,0.0,0.0,0.0,0.0,0.0,0.0,0.0,0.0,0.0,0.0,0.0,0.0,0.0,0.0,0.0,0.0,0.0,0.0,0.0,0.0,0.0,0.0,0.0,0.0,0.0,0.0,-4.8992,-5.183,-5.1746,-4.8583,-4.461,-4.1754,0.0,0.0,0.0,0.0,0.0,0.0,0.0,0.0,0.0,0.0,0.0,0.0,0.0,0.0,0.0,0.0,0.0,0.0,0.0,0.0,0.0,0.0,0.0,0.0,0.0,0.0,0.0,0.0,0.0,0.0,0.0,0.0,0.0,0.0,0.0,0.0,0.0,0.0,0.0,0.0,0.0,0.0,0.0,0.0,0.0,0.0,0.0,0.0,0.0,0.0,0.0,0.0,0.0,0.0,0.0,0.0,0.0,0.0,0.0,0.0,0.0,0.0,0.0,0.0,0.0,0.0,0.0,0.0,0.0,0.0,0.0,0.0,0.0,0.0,0.0,0.0,0.0,0.0,0.0,0.0,0.0,0.0,0.0,0.0,0.0,0.0,0.0,0.0,0.0,0.0,0.0,0.0,0.0,0.0,0.0,0.0,0.0,0.0,0.0,0.0,0.0,0.0,0.0,0.0,0.0,0.0,0.0,0.0,-4.7838,-5.1563,-5.7185,-5.8908,-5.6413,-4.9743,-4.4978,0.0,0.0,0.0,0.0,0.0,0.0,0.0,0.0,0.0,0.0,0.0,0.0,0.0,0.0,0.0,0.0,0.0,0.0,0.0,0.0,0.0,0.0,0.0,0.0,0.0,0.0,0.0,0.0,0.0,0.0,0.0,0.0,0.0,0.0,0.0,0.0,0.0,0.0,0.0,0.0,0.0,0.0,0.0,0.0,0.0,0.0,0.0,0.0,0.0,0.0,0.0,0.0,0.0,0.0,0.0,0.0,0.0,0.0,0.0,0.0,0.0,0.0,0.0,0.0,0.0,0.0,0.0,0.0,0.0,0.0,0.0,0.0,0.0,0.0,0.0,0.0,0.0,0.0,0.0,0.0,0.0,0.0,0.0,0.0,0.0,0.0,0.0,0.0,0.0,0.0,0.0,0.0,0.0,0.0,0.0,0.0,0.0,0.0,0.0,0.0,0.0,0.0,0.0,0.0,0.0,0.0,0.0,0.0,-5.1085,-5.2946,-6.0703,-6.4772,-6.4427,-5.6074,-4.8855,0.0,0.0,0.0,0.0,0.0,0.0,0.0,0.0,0.0,0.0,0.0,0.0,0.0,0.0,0.0,0.0,0.0,0.0,0.0,0.0,0.0,0.0,0.0,0.0,0.0,0.0,0.0,0.0,0.0,0.0,0.0,0.0,0.0,0.0,0.0,0.0,0.0,0.0,0.0,0.0,0.0,0.0,0.0,0.0,0.0,0.0,0.0,0.0,0.0,0.0,0.0,0.0,0.0,0.0,0.0,0.0,0.0,0.0,0.0,0.0,0.0,0.0,0.0,0.0,0.0,0.0,0.0,0.0,0.0,0.0,0.0,0.0,0.0,0.0,0.0,0.0,0.0,0.0,0.0,0.0,0.0,0.0,0.0,0.0,0.0,0.0,0.0,0.0,0.0,0.0,0.0,0.0,0.0,0.0,0.0,0.0,0.0,0.0,0.0,0.0,0.0,0.0,0.0,0.0,0.0,0.0,0.0,0.0,-5.3601,-5.7529,-6.2841,-6.5324,-6.4669,-5.6558,-5.1014,0.0,0.0,0.0,0.0,0.0,0.0,0.0,0.0,0.0,0.0,0.0,0.0,0.0,0.0,0.0,0.0,0.0,0.0,0.0,0.0,0.0,0.0,0.0,0.0,0.0,0.0,0.0,0.0,0.0,0.0,0.0,0.0,0.0,0.0,0.0,0.0,0.0,0.0,0.0,0.0,0.0,0.0,0.0,0.0,0.0,0.0,0.0,0.0,-3.7566,0.0,0.0,0.0,0.0,0.0,0.0,0.0,0.0,0.0,0.0,0.0,0.0,0.0,0.0,0.0,0.0,0.0,0.0,0.0,0.0,0.0,0.0,0.0,0.0,0.0,0.0,0.0,0.0,0.0,0.0,0.0,0.0,0.0,0.0,0.0,0.0,0.0,0.0,0.0,0.0,0.0,0.0,0.0,0.0,0.0,0.0,0.0,0.0,0.0,0.0,0.0,0.0,0.0,0.0,0.0,0.0,0.0,0.0,0.0,-5.4738,-5.9978,-6.422,-6.6359,-6.6048,-5.9668,-5.4205,0.0,0.0,0.0,0.0,0.0,0.0,0.0,0.0,0.0,0.0,0.0,0.0,0.0,0.0,0.0,0.0,0.0,0.0,0.0,0.0,0.0,0.0,0.0,0.0,0.0,0.0,0.0,0.0,0.0,0.0,0.0,0.0,0.0,0.0,0.0,0.0,0.0,0.0,0.0,0.0,0.0,0.0,0.0,0.0,0.0,0.0,0.0,0.0,0.0,0.0,0.0,0.0,0.0,0.0,0.0,0.0,0.0,0.0,0.0,0.0,0.0,0.0,0.0,0.0,0.0,0.0,0.0,0.0,0.0,0.0,0.0,0.0,0.0,0.0,0.0,0.0,0.0,0.0,0.0,0.0,0.0,0.0,0.0,0.0,0.0,0.0,0.0,0.0,0.0,0.0,0.0,0.0,0.0,0.0,0.0,0.0,0.0,0.0,0.0,0.0,0.0,0.0,0.0,0.0,0.0,0.0,0.0,-5.0045,-5.5667,-6.1979,-6.5566,-6.7601,-6.8014,-6.3082,-5.7218,-5.0639,0.0,0.0,0.0,0.0,0.0,0.0,0.0,0.0,0.0,0.0,0.0,0.0,0.0,0.0,0.0,0.0,0.0,0.0,0.0,0.0,0.0,0.0,0.0,0.0,0.0,0.0,0.0,0.0,0.0,0.0,0.0,0.0,0.0,0.0,0.0,0.0,0.0,0.0,-3.3899,-3.4871,0.0,0.0,0.0,0.0,0.0,0.0,0.0,0.0,-4.1082,0.0,0.0,0.0,0.0,0.0,0.0,0.0,0.0,0.0,0.0,0.0,0.0,0.0,0.0,0.0,0.0,0.0,0.0,0.0,0.0,0.0,0.0,0.0,0.0,0.0,0.0,0.0,0.0,0.0,0.0,0.0,0.0,0.0,0.0,0.0,0.0,0.0,0.0,0.0,0.0,0.0,0.0,0.0,0.0,0.0,0.0,0.0,0.0,0.0,0.0,0.0,0.0,0.0,0.0,0.0,0.0,-4.8976,-5.2425,-5.8012,-6.5842,-6.795,-6.8635,-6.8014,-6.3565,-5.8219,-5.2046,0.0,0.0,0.0,0.0,0.0,0.0,0.0,0.0,0.0,0.0,0.0,0.0,0.0,0.0,0.0,0.0,0.0,0.0,0.0,0.0,0.0,0.0,0.0,0.0,0.0,0.0,0.0,0.0,0.0,0.0,0.0,0.0,0.0,0.0,0.0,0.0,0.0,0.0,0.0,-3.8224,-3.8506,0.0,0.0,0.0,0.0,0.0,0.0,0.0,0.0,-4.3155,0.0,0.0,0.0,0.0,0.0,0.0,0.0,0.0,0.0,0.0,0.0,0.0,0.0,0.0,0.0,0.0,0.0,0.0,0.0,0.0,0.0,0.0,0.0,0.0,0.0,0.0,0.0,0.0,0.0,0.0,0.0,0.0,0.0,0.0,0.0,0.0,0.0,0.0,0.0,0.0,0.0,0.0,0.0,0.0,0.0,0.0,0.0,0.0,0.0,0.0,0.0,0.0,0.0,0.0,0.0,-5.0651,-5.595,-6.1737,-6.7945,-6.9256,-6.967,-6.9187,-6.4117,-5.8806,0.0,0.0,0.0,0.0,0.0,0.0,0.0,0.0,0.0,0.0,0.0,0.0,0.0,0.0,0.0,0.0,0.0,0.0,0.0,0.0,0.0,0.0,0.0,0.0,0.0,0.0,0.0,0.0,0.0,0.0,0.0,0.0,0.0,0.0,0.0,0.0,0.0,0.0,0.0,0.0,-4.1533,-4.2554,-4.7437,0.0,0.0,0.0,0.0,0.0,0.0,-4.691,-4.4979,0.0,0.0,0.0,0.0,0.0,0.0,0.0,0.0,0.0,0.0,0.0,0.0,0.0,0.0,0.0,0.0,0.0,0.0,0.0,0.0,0.0,0.0,0.0,0.0,0.0,0.0,0.0,0.0,0.0,0.0,0.0,0.0,0.0,0.0,0.0,0.0,0.0,0.0,0.0,0.0,0.0,0.0,0.0,0.0,0.0,0.0,0.0,0.0,0.0,0.0,0.0,0.0,0.0,0.0,0.0,-5.1643,-5.8597,-6.4656,-6.9497,-7.0291,-7.0601,-7.0463,-6.3979,-5.853,0.0,0.0,0.0,0.0,0.0,0.0,0.0,0.0,0.0,0.0,0.0,0.0,0.0,0.0,0.0,0.0,0.0,0.0,0.0,0.0,0.0,0.0,0.0,0.0,0.0,0.0,0.0,0.0,0.0,0.0,0.0,0.0,0.0,0.0,0.0,0.0,0.0,0.0,0.0,0.0,0.0,-4.6389,-5.0907,-4.9114,0.0,0.0,0.0,0.0,-4.9495,-4.8733,0.0,0.0,0.0,0.0,0.0,0.0,0.0,0.0,0.0,0.0,0.0,0.0,0.0,0.0,0.0,0.0,0.0,0.0,0.0,0.0,0.0,0.0,0.0,0.0,0.0,0.0,0.0,0.0,0.0,0.0,0.0,0.0,0.0,0.0,0.0,0.0,0.0,0.0,0.0,0.0,0.0,0.0,0.0,0.0,0.0,0.0,0.0,0.0,0.0,0.0,0.0,0.0,0.0,0.0,0.0,0.0,-5.2325,-5.8194,-6.4449,-7.0836,-7.1325,-7.136,-7.1222,-6.2255,-5.6426,0.0,0.0,0.0,0.0,0.0,0.0,0.0,0.0,0.0,0.0,0.0,0.0,0.0,0.0,0.0,0.0,0.0,0.0,0.0,0.0,0.0,0.0,0.0,0.0,0.0,0.0,0.0,0.0,0.0,0.0,0.0,0.0,0.0,0.0,0.0,0.0,0.0,0.0,0.0,0.0,0.0,-4.7976,-5.2528,-5.1114,-4.9526,0.0,0.0,-5.4504,-5.4269,-5.5777,0.0,0.0,0.0,0.0,0.0,0.0,0.0,0.0,0.0,0.0,0.0,0.0,0.0,0.0,0.0,0.0,0.0,0.0,0.0,0.0,0.0,0.0,0.0,0.0,0.0,0.0,0.0,0.0,0.0,0.0,0.0,0.0,0.0,0.0,0.0,0.0,0.0,0.0,0.0,0.0,0.0,0.0,0.0,0.0,0.0,0.0,0.0,0.0,0.0,0.0,0.0,0.0,0.0,0.0,0.0,-4.8663,-5.2051,-6.0324,-6.634,-6.967,-7.0176,-7.0412,-7.0333,-6.0998,-5.5478,0.0,0.0,0.0,0.0,0.0,0.0,0.0,0.0,0.0,0.0,0.0,0.0,0.0,0.0,0.0,0.0,0.0,0.0,0.0,0.0,0.0,0.0,0.0,0.0,0.0,0.0,0.0,0.0,0.0,0.0,0.0,0.0,0.0,0.0,0.0,0.0,0.0,0.0,0.0,0.0,0.0,0.0,-5.3701,-5.3942,0.0,0.0,0.0,-5.4977,-4.9551,0.0,0.0,0.0,0.0,0.0,0.0,0.0,0.0,0.0,0.0,0.0,0.0,0.0,0.0,0.0,0.0,0.0,0.0,0.0,0.0,0.0,0.0,0.0,0.0,0.0,0.0,0.0,0.0,0.0,0.0,0.0,0.0,0.0,0.0,0.0,0.0,0.0,0.0,0.0,0.0,0.0,0.0,0.0,0.0,0.0,0.0,0.0,0.0,0.0,0.0,0.0,0.0,0.0,0.0,0.0,0.0,0.0,-5.1829,-6.1731,-6.7611,-6.8989,-6.9599,-6.985,-6.9637,-6.1499,0.0,0.0,0.0,0.0,0.0,0.0,0.0,0.0,0.0,0.0,0.0,0.0,0.0,0.0,0.0,0.0,0.0,0.0,0.0,0.0,0.0,0.0,0.0,0.0,0.0,0.0,0.0,-3.3524,0.0,0.0,0.0,0.0,0.0,0.0,0.0,0.0,0.0,0.0,0.0,0.0,0.0,0.0,-5.4356,-5.546,-5.6771,-5.7771,0.0,0.0,-5.6265,-4.9198,-5.644,-6.029,0.0,0.0,0.0,0.0,0.0,0.0,0.0,0.0,0.0,0.0,0.0,0.0,0.0,0.0,0.0,0.0,0.0,0.0,0.0,0.0,0.0,0.0,0.0,0.0,0.0,0.0,0.0,0.0,-2.416,-2.3711,0.0,0.0,0.0,0.0,0.0,0.0,0.0,0.0,0.0,0.0,0.0,0.0,0.0,0.0,0.0,0.0,0.0,0.0,0.0,0.0,0.0,0.0,0.0,0.0,-4.8802,-5.2579,-6.0813,-6.6918,-7.0461,-7.0626,-7.0644,-7.0545,-6.4574,-5.8756,0.0,0.0,0.0,0.0,0.0,0.0,0.0,0.0,0.0,0.0,0.0,0.0,0.0,0.0,0.0,0.0,0.0,0.0,0.0,0.0,0.0,0.0,0.0,0.0,0.0,0.0,0.0,0.0,0.0,0.0,0.0,0.0,0.0,0.0,0.0,0.0,0.0,0.0,0.0,0.0,0.0,-5.6253,-5.8392,-5.9426,-6.122,0.0,-6.2841,-6.0663,-5.9614,-6.3989,-6.5521,-5.9257,0.0,0.0,0.0,0.0,0.0,0.0,0.0,0.0,0.0,0.0,0.0,0.0,0.0,0.0,0.0,0.0,0.0,0.0,0.0,0.0,0.0,0.0,0.0,0.0,0.0,-2.3691,-2.3603,0.0,-2.4541,0.0,0.0,0.0,0.0,0.0,0.0,0.0,0.0,0.0,0.0,0.0,0.0,0.0,0.0,0.0,0.0,0.0,0.0,0.0,0.0,0.0,0.0,0.0,0.0,-4.9247,-5.1645,-6.0256,-6.6062,-6.8718,-6.8763,-6.9181,-7.0083,-6.4513,-5.9258,0.0,0.0,0.0,0.0,0.0,0.0,0.0,0.0,0.0,0.0,0.0,0.0,0.0,0.0,0.0,0.0,0.0,0.0,0.0,0.0,0.0,0.0,0.0,0.0,0.0,0.0,0.0,0.0,-4.4872,-4.5113,-4.2792,0.0,0.0,0.0,0.0,0.0,0.0,0.0,0.0,0.0,0.0,-5.853,-6.2668,-6.3876,0.0,0.0,-6.5945,-6.4143,-6.0237,-6.3992,-6.4011,-5.4161,-5.3138,0.0,0.0,0.0,0.0,0.0,0.0,0.0,0.0,0.0,0.0,0.0,0.0,0.0,0.0,0.0,0.0,0.0,0.0,0.0,0.0,0.0,0.0,0.0,0.0,0.0,0.0,0.0,0.0,0.0,0.0,0.0,0.0,0.0,0.0,0.0,0.0,0.0,0.0,0.0,0.0,0.0,0.0,0.0,0.0,0.0,0.0,0.0,0.0,0.0,0.0,0.0,0.0,-4.9363,-5.1046,-5.9696,-6.5227,-6.7249,-6.7692,-6.8387,-6.924,-6.5606,-6.1423,-5.6721,0.0,0.0,0.0,0.0,0.0,0.0,0.0,0.0,0.0,0.0,0.0,0.0,0.0,0.0,0.0,0.0,0.0,0.0,0.0,0.0,0.0,0.0,0.0,0.0,0.0,0.0,0.0,-4.7286,-4.7251,-4.4587,0.0,0.0,0.0,0.0,0.0,0.0,0.0,0.0,0.0,0.0,-6.1185,-6.4703,-6.5462,-6.5807,-6.6221,-6.5773,-6.4424,-6.1662,-6.3732,-6.2449,-5.3177,0.0,0.0,0.0,0.0,0.0,0.0,0.0,0.0,0.0,0.0,0.0,0.0,0.0,0.0,0.0,0.0,0.0,0.0,0.0,0.0,0.0,0.0,0.0,0.0,0.0,0.0,0.0,-2.4868,0.0,0.0,-2.9664,0.0,0.0,0.0,0.0,0.0,0.0,0.0,0.0,0.0,0.0,0.0,0.0,0.0,0.0,0.0,0.0,0.0,0.0,0.0,0.0,0.0,0.0,-4.8983,-5.1078,-5.9317,-6.4563,-6.6617,-6.7945,-6.8671,-6.8735,-6.8545,-6.5859,-6.025,0.0,0.0,0.0,0.0,0.0,0.0,0.0,0.0,0.0,0.0,0.0,0.0,0.0,0.0,0.0,0.0,0.0,0.0,0.0,0.0,0.0,0.0,0.0,0.0,0.0,0.0,-3.9629,-4.2275,-4.4552,0.0,0.0,0.0,0.0,0.0,0.0,0.0,0.0,0.0,-5.3253,-5.984,-6.4289,-6.3772,-6.3082,-6.3358,-6.4738,-6.1841,-6.0981,-6.5534,-6.4202,-6.1729,0.0,0.0,0.0,0.0,0.0,0.0,0.0,0.0,0.0,0.0,0.0,0.0,0.0,0.0,0.0,0.0,0.0,0.0,0.0,0.0,0.0,0.0,0.0,0.0,0.0,0.0,0.0,-2.8627,-2.7598,0.0,0.0,0.0,0.0,0.0,0.0,0.0,0.0,0.0,0.0,0.0,-4.6076,-4.6108,0.0,0.0,0.0,0.0,0.0,0.0,0.0,0.0,0.0,0.0,0.0,0.0,-5.0753,-5.2681,-6.0613,-6.5638,-6.7218,-6.7723,-6.8419,-6.9304,-6.845,-6.5353,-5.9791,0.0,0.0,0.0,0.0,0.0,0.0,0.0,0.0,0.0,0.0,0.0,0.0,0.0,0.0,0.0,0.0,0.0,0.0,0.0,0.0,0.0,0.0,0.0,0.0,0.0,-4.5699,0.0,0.0,0.0,0.0,0.0,0.0,0.0,0.0,0.0,0.0,-5.07,-5.4115,-5.8116,-5.9978,-6.1944,-6.4703,-6.5324,-6.6359,0.0,0.0,0.0,0.0,0.0,0.0,0.0,0.0,0.0,0.0,0.0,0.0,0.0,-5.357,-5.2199,-4.9836,-5.147,-5.3354,-5.3836,0.0,0.0,0.0,0.0,0.0,0.0,0.0,0.0,0.0,0.0,0.0,0.0,0.0,0.0,-3.2874,-3.0323,-3.2367,0.0,0.0,0.0,0.0,0.0,0.0,0.0,0.0,-4.7972,-4.9995,-5.1417,-5.1448,-5.1195,-5.0753,-4.9995,-4.6329,0.0,0.0,0.0,0.0,0.0,0.0,0.0,0.0,-5.2049,-5.3724,-6.1466,-6.6112,-6.7186,-6.7471,-6.8039,-6.8893,-6.8071,-6.589,-6.2288,-5.8148,-5.3882,0.0,0.0,0.0,0.0,0.0,0.0,0.0,0.0,0.0,0.0,0.0,0.0,0.0,0.0,0.0,0.0,0.0,0.0,0.0,0.0,0.0,0.0,0.0,-4.87,0.0,0.0,0.0,0.0,0.0,0.0,0.0,0.0,0.0,-5.239,-5.4805,-5.7943,-6.1599,-6.2841,-6.36,-6.4186,0.0,0.0,0.0,0.0,0.0,0.0,0.0,-6.0427,-5.8771,-5.9599,-6.0806,-6.1737,-6.1634,-6.1153,-6.0459,0.0,0.0,-5.6054,-5.7421,-5.9536,-6.0304,-6.0481,-6.0772,-6.1666,-6.2203,-6.2875,0.0,0.0,0.0,0.0,-3.7622,0.0,0.0,0.0,-4.2179,-3.8713,0.0,-3.6332,0.0,0.0,0.0,0.0,-4.2377,-4.739,0.0,0.0,-5.7579,-5.9538,-5.6536,-5.641,-5.641,-5.6157,-5.3102,-5.1489,-5.1236,-4.9331,-4.6803,0.0,0.0,0.0,0.0,0.0,-5.2807,-5.4577,-6.1845,-6.5954,-6.6617,-6.7249,-6.7597,-6.7629,-6.7692,-6.7597,-6.7344,-6.2414,-5.9191,-5.8257,-5.0627,0.0,0.0,0.0,0.0,0.0,0.0,0.0,0.0,0.0,0.0,0.0,0.0,0.0,0.0,0.0,0.0,0.0,0.0,0.0,0.0,-4.9706,0.0,0.0,0.0,0.0,0.0,0.0,0.0,0.0,0.0,-5.5701,-5.5184,-5.915,-6.2668,-6.3393,0.0,0.0,0.0,0.0,-6.4703,-5.853,-5.7357,-5.7529,-5.7667,-6.053,-6.3979,-6.7394,0.0,0.0,-7.167,-6.7359,-6.422,-6.4048,-6.7019,-6.7184,-6.0156,-5.9931,-6.0683,-6.1415,-6.2964,-6.3723,-6.4621,-6.633,-6.7073,-5.1004,0.0,0.0,0.0,0.0,-4.4052,-4.4879,-4.6156,-4.6156,-4.4129,-4.084,-4.3094,0.0,0.0,0.0,0.0,0.0,0.0,-5.2403,-5.5904,-5.818,-5.9949,-6.1371,-6.1403,-6.115,-6.0613,-6.0139,-5.9886,-5.9854,-5.9317,-5.4577,-4.6013,0.0,0.0,0.0,0.0,-5.5399,-5.9317,-6.3931,-6.6396,-6.6586,-6.7249,-6.7597,-6.7597,-6.8545,-6.8387,-6.6933,-6.6301,-6.4058,-5.9886,-5.6979,0.0,0.0,0.0,0.0,0.0,0.0,0.0,0.0,0.0,0.0,0.0,0.0,0.0,0.0,0.0,0.0,0.0,0.0,0.0,-5.0263,-5.408,-5.4943,0.0,0.0,0.0,0.0,0.0,0.0,0.0,0.0,0.0,-6.253,-6.1047,-6.0703,0.0,0.0,-6.2117,-6.0703,-6.422,-6.6876,-6.6531,-6.6945,0.0,-6.9463,-6.8808,-6.829,-6.8877,-7.1636,-7.3464,-7.2498,-7.2843,-7.3153,-7.2567,-7.2946,-7.2513,-7.0798,-7.126,-7.2288,-7.3215,-7.4212,-7.4992,-7.5345,-7.644,-7.7524,-5.8,-5.2717,-5.0714,-4.9823,-4.9872,-4.9872,-5.083,-5.2339,-5.2339,-5.1574,-5.0286,-4.9952,-4.9687,-4.9386,-4.9233,0.0,0.0,0.0,-5.656,-6.115,-6.0866,-6.2035,-6.4216,-6.431,-6.4089,-6.371,-6.4089,-6.431,-6.433,-6.2888,-5.9001,-5.2712,0.0,-4.9236,-5.1417,-5.4798,-5.8148,-6.1371,-6.4848,-6.6744,-6.6997,-6.766,-6.8039,-6.8039,-6.8577,-6.8261,-6.706,-6.7565,-6.6175,-6.2541,-6.0676,-5.7042,0.0,0.0,0.0,0.0,0.0,0.0,0.0,0.0,0.0,0.0,0.0,-4.1853,-4.0348,0.0,0.0,0.0,-5.1753,-5.3297,-5.4459,-5.6744,0.0,0.0,0.0,0.0,0.0,0.0,0.0,-5.7598,-6.2255,-6.5911,-6.66,-6.4634,-6.3945,-6.6221,-6.6117,-6.5428,-6.4358,0.0,-7.067,-7.0808,-7.1187,-7.1981,-7.3326,-7.3567,-7.3878,-7.4981,-7.6051,-7.6775,-7.6464,-7.7396,-7.7948,-7.7534,-7.7006,-7.6696,-7.6696,-7.7811,-7.8594,-7.8602,-7.9457,-8.0396,-8.1057,-8.2545,-8.375,-6.2877,-6.1919,-5.7303,-5.5271,-5.5126,-5.5126,-5.681,-5.9568,-5.951,-5.9801,-5.9918,-5.6546,-5.518,-5.5288,-5.3224,0.0,-5.8644,-5.9215,-6.1617,-6.5574,-6.5006,-6.5069,-6.5638,-6.5638,-6.5721,-6.5732,-6.5721,-6.5701,-6.5669,-6.2541,-6.115,-6.1593,-5.9728,-5.7642,-5.5607,-5.8464,-6.0581,-6.1687,-6.4753,-6.6807,-6.7723,-6.8419,-6.8766,-6.8766,-6.8071,-6.766,-6.7565,-6.6997,-6.6365,-6.5606,-6.2541,-5.9791,-5.7453,0.0,0.0,0.0,0.0,0.0,0.0,0.0,0.0,0.0,0.0,0.0,0.0,0.0,0.0,-5.4741,-5.8538,0.0,-6.0457,-5.8834,0.0,0.0,0.0,-5.8461,-6.1289,-6.3082,-6.4083,-6.3979,0.0,0.0,-6.8463,-6.9291,-7.067,-7.2912,-7.4671,-7.4499,-7.105,-7.3671,-7.5257,-7.2498,-7.2326,-7.2498,-7.3498,-7.6223,-7.9534,-8.2466,-8.2811,-8.1672,-8.1569,-8.0569,-7.9776,-7.9672,-7.9569,-7.9431,-7.9465,-7.9877,-8.0176,-7.8985,-8.0042,-8.1559,-8.2913,-8.4569,-8.5765,-6.4444,-6.4212,-6.2993,-6.1629,-6.0293,-6.0293,-6.1019,-6.2122,-6.1658,-6.1953,-6.2628,-6.0527,-5.9887,-6.0352,-5.983,-6.0901,-6.3234,-6.3919,-6.4954,-6.6312,-6.6712,-6.6681,-6.6365,-6.6333,-6.6617,-6.706,-6.6617,-6.6902,-6.785,-6.6554,-6.5132,-6.3805,-6.3268,-6.1182,-5.7674,-5.78,-5.9886,-6.3742,-6.4058,-6.5827,-6.9051,-6.9367,-6.9462,-6.943,-6.8798,-6.8166,-6.7629,-6.7439,-6.706,-6.6396,-6.5543,-6.3426,-5.9728,-5.5146,0.0,0.0,0.0,0.0,0.0,0.0,0.0,0.0,0.0,-4.507,-4.3808,0.0,-4.9935,0.0,-6.0263,-6.5153,-6.5084,-6.5817,0.0,0.0,-6.2393,-6.2461,-6.3772,-6.6773,-6.8325,-6.7152,-7.0049,-7.2222,-7.2395,-7.3636,-7.5326,-7.7499,-7.4809,-7.2464,-7.2188,-7.543,-7.7396,-7.6395,-7.8189,-8.0155,-8.0051,-8.1017,-8.2328,-8.3776,-8.3259,-8.2845,-8.3397,-8.2259,-8.1259,-8.119,-8.0258,-7.9603,-7.9603,-7.9361,-7.957,-8.0106,-8.1559,-8.2831,-8.3266,-8.4672,-8.5888,-6.5577,-6.5838,-6.5838,-6.4386,-6.2151,-6.3022,-6.3748,-6.4328,-6.3951,-6.4304,-6.5036,-6.4159,-6.3748,-6.3806,-6.3806,-6.4408,-6.5561,-6.6035,-6.6686,-6.7379,-6.7877,-6.7881,-6.7534,-6.7534,-6.7723,-6.8071,-6.7723,-6.7913,-6.864,-6.8261,-6.7502,-6.6396,-6.6365,-6.4595,-6.1119,-5.9412,-5.9949,-6.2604,-6.3836,-6.6112,-6.9525,-6.9999,-6.9588,-6.8355,-6.766,-6.6365,-6.4405,-6.4342,-6.4026,-6.3426,-6.3647,-6.2477,-5.9538,-5.5942,-5.2713,0.0,0.0,0.0,0.0,0.0,0.0,0.0,0.0,0.0,0.0,0.0,-5.3238,-5.4781,-6.2137,-6.6264,-6.4939,-6.6382,-6.7113,-6.6392,-6.6401,-6.7133,-6.8888,-7.1698,-7.3222,-7.2774,-7.543,-7.7465,-7.7844,-7.8879,-8.0051,-8.1362,-7.8948,-7.6982,-7.6913,-7.8672,-7.9879,-7.9879,-8.1535,-8.319,-8.3776,-8.3914,-8.419,-8.4811,-8.4432,-8.4087,-8.4432,-8.3569,-8.2776,-8.2707,-8.2086,-8.1535,-8.15,-8.1095,-8.1064,-8.192,-8.2756,-8.3343,-8.3767,-8.5444,-8.6848,-6.6389,-6.6854,-6.6796,-6.5141,-6.2703,-6.4386,-6.4996,-6.4822,-6.4671,-6.5257,-6.6186,-6.6564,-6.6447,-6.5925,-6.5838,-6.607,-6.6514,-6.6793,-6.7436,-6.8375,-6.8721,-6.8766,-6.8703,-6.8703,-6.8735,-6.8829,-6.8735,-6.8766,-6.8956,-6.8861,-6.8703,-6.845,-6.8513,-6.7155,-6.4405,-6.194,-6.0613,-6.0487,-6.39,-6.6923,-6.9209,-6.9556,-6.8545,-6.6207,-6.5385,-6.3584,-6.0613,-6.036,-6.0044,-5.946,-5.9933,-5.9839,-5.8844,-5.6015,-5.3726,0.0,-4.9215,0.0,0.0,0.0,0.0,0.0,0.0,0.0,0.0,-5.6482,-5.7448,-5.9507,-6.4117,-6.6245,-6.4413,-6.5643,-6.7701,-7.0414,-7.0823,-7.2022,-7.4743,-7.6434,-7.7706,-7.8568,-8.0431,-8.1879,-8.2259,-8.3328,-8.3811,-8.3466,-8.3431,-8.2811,-8.2259,-8.1948,-8.2224,-8.2983,-8.3052,-8.3535,-8.457,-8.4915,-8.5121,-8.5708,-8.5294,-8.5052,-8.4949,-8.4397,-8.3983,-8.3949,-8.3845,-8.388,-8.4018,-8.361,-8.3541,-8.379,-8.3845,-8.4061,-8.4823,-8.6501,-8.8102,-6.6767,-6.6825,-6.6331,-6.5751,-6.5257,-6.5606,-6.3138,-5.89,-5.8435,-5.9713,-6.2441,-6.4996,-6.5976,-6.5896,-6.5373,-6.5709,-6.6792,-6.7395,-6.8,-6.8674,-6.9249,-6.9209,-6.8703,-6.8703,-6.8988,-6.943,-6.8956,-6.9272,-7.0378,-6.9778,-6.864,-6.706,-6.7534,-6.6428,-6.3805,0.0,0.0,0.0,-6.4626,-6.6681,-6.7091,-6.51,-6.3773,-6.3236,-6.2541,0.0,-6.1213,-6.0613,-6.0138,-5.9931,-5.9977,0.0,-6.1734,0.0,0.0,0.0,0.0,0.0,0.0,0.0,0.0,0.0,-5.6108,-5.6387,-5.6107,-5.6971,-5.9596,-6.4477,-6.6493,-6.915,-7.3138,-7.4003,-7.49,-7.6177,-7.589,-7.6117,-7.7547,-7.7971,-7.8672,-8.0051,-8.0603,-8.0914,-8.1259,-8.2259,-8.2914,-8.2604,-8.3293,-8.3845,-8.3673,-8.3535,-8.3638,-8.3776,-8.3776,-8.388,-8.419,-8.4294,-8.4501,-8.4397,-8.4363,-8.4294,-8.4259,-8.419,-8.4018,-8.4018,-8.4018,-8.4018,-8.4052,-8.4274,-8.4412,-8.4087,-8.4971,-8.5966,-8.6257,-8.7184,-8.8065,-6.7189,-6.7783,-6.7173,-6.5983,0.0,-6.4183,-6.1658,-5.8,-6.0845,-6.3167,-6.5054,-6.6331,-6.6709,-6.6302,-6.4415,-6.3752,-6.4011,-6.3988,-6.4805,-6.6423,-6.7597,-6.8703,-6.9714,-6.9714,-6.9904,-7.022,-7.022,-7.0599,-7.1263,-7.1231,-7.0694,-6.9683,-6.9999,-6.9462,-6.8134,-6.8103,-6.6744,-6.3994,-6.5353,-6.6744,-6.8008,-6.6744,-6.5144,-6.3318,-6.2909,0.0,0.0,0.0,0.0,0.0,0.0,0.0,0.0,-5.9843,-5.9247,-6.0241,-5.8341,-5.7965,-5.9835,-6.002,-6.0557,-6.1813,-6.2553,-6.206,-6.0003,-6.1955,-6.4711,-6.8124,-6.9672,-7.1832,-7.5136,-7.6555,-7.7428,-7.7911,-7.7733,-7.7772,-7.8323,-7.8934,-7.9762,-8.0794,-8.1405,-8.1879,-8.2259,-8.3293,-8.3845,-8.3604,-8.4432,-8.5121,-8.5087,-8.4466,-8.4018,-8.4018,-8.4397,-8.4432,-8.4156,-8.4742,-8.4777,-8.4294,-8.4328,-8.4397,-8.4087,-8.4018,-8.4018,-8.4018,-8.4018,-8.4121,-8.457,-8.5082,-8.5442,-8.524,-8.5818,-8.6604,-8.7018,-8.7286,-8.7541,-6.762,-6.8711,-6.8122,-6.6418,-6.4067,-6.3399,-6.2064,-6.0642,-6.5228,0.0,0.0,-6.7725,-6.7318,-6.6535,-6.3806,-6.2448,-6.2078,-6.1545,-6.2616,-6.4993,-6.6581,-6.8577,-7.0726,-7.0789,-7.0789,-7.082,-7.1484,-7.1832,-7.1832,-7.2495,-7.278,-7.2811,-7.2938,-7.3001,-7.2969,-7.269,-7.0834,-6.7553,-6.6375,-6.687,-6.8806,-6.8428,-6.6658,-6.3566,-6.3472,-6.2316,-6.0004,-6.0391,-6.064,-6.0465,-6.0913,-6.1161,-6.0893,-6.0214,-5.997,-6.0403,-5.991,-6.104,-6.4303,-6.4641,-6.575,-6.812,-6.8274,-6.7319,-6.5072,-6.7442,-6.9542,-7.0753,-7.2513,-7.4061,-7.5275,-7.7061,-7.8296,-7.8397,-7.8642,-7.8754,-7.8919,-7.9871,-8.0878,-8.1627,-8.246,-8.3259,-8.3638,-8.4363,-8.4984,-8.5052,-8.5397,-8.6122,-8.5949,-8.5018,-8.4294,-8.4328,-8.4604,-8.4708,-8.4535,-8.4949,-8.5328,-8.4018,-8.4294,-8.4501,-8.388,-8.3742,-8.3811,-8.3742,-8.388,-8.4328,-8.5018,-8.56,-8.6167,-8.6398,-8.6501,-8.6716,-8.737,-8.711,-8.7045,-6.8005,-6.8601,-6.8094,-6.7928,-6.7986,-6.7347,-6.7492,-6.7957,-6.5635,-6.4328,-6.4038,-6.6128,-6.6651,-6.6012,-6.4996,-6.5007,-6.5729,-6.6462,-6.7411,-6.8621,-6.9709,-7.041,-7.0757,-7.0789,-7.0789,-7.082,-7.1484,-7.1832,-7.1895,-7.2495,-7.278,-7.2906,-7.3443,-7.3728,-7.3633,-7.2238,-7.1243,-7.0614,-6.8468,-6.6827,-6.5743,-6.3449,-6.1885,-6.1083,-6.1114,-6.1126,-6.1232,-6.1305,-6.1006,-6.0245,-6.0226,-6.0979,-6.2377,-6.2386,-6.3372,-6.5621,-6.6211,-6.6765,-6.7319,-6.7843,-6.8581,-6.9505,-6.9628,-6.9443,-6.9105,-6.9474,-7.0469,-7.2133,-7.3539,-7.5071,-7.6782,-7.8168,-7.9327,-8.0103,-8.0254,-8.0418,-8.0843,-8.1571,-8.2232,-8.2597,-8.3349,-8.3555,-8.328,-8.3762,-8.4328,-8.4363,-8.5121,-8.5432,-8.5328,-8.519,-8.5052,-8.4949,-8.4535,-8.4466,-8.4639,-8.4535,-8.4121,-8.3225,-8.319,-8.3156,-8.2431,-8.2776,-8.3121,-8.3087,-8.3604,-8.4294,-8.5052,-8.5225,-8.5896,-8.6777,-8.7087,-8.7292,-8.7473,-8.6943,-8.7048,-6.7861,-6.8372,-6.7931,-6.7928,-6.813,-6.793,-6.8218,-6.8625,-6.726,-6.6476,-6.6273,-6.7086,-6.6854,-6.5715,-6.3835,-6.3152,-6.3554,-6.3027,-6.4099,-6.6379,-6.7349,-6.8893,-7.0726,-7.1168,-7.1358,-7.1421,-7.2432,-7.2938,-7.3033,-7.3633,-7.3949,-7.3949,-7.4088,-7.397,-7.356,-7.2638,-7.1831,-7.108,-6.922,-6.7716,-6.655,-6.533,-6.4171,-6.3161,-6.313,-6.318,-6.3331,-6.3702,-6.3865,-6.3819,-6.4158,-6.4906,-6.5996,-6.6119,-6.6827,-6.8397,-6.8828,-6.9166,-6.9505,-6.9813,-7.0274,-7.0952,-7.1013,-7.1198,-7.1536,-7.1229,-7.1378,-7.2257,-7.4295,-7.6131,-7.7424,-7.9198,-8.0631,-8.1478,-8.1597,-8.1648,-8.1934,-8.2324,-8.2713,-8.2847,-8.327,-8.3487,-8.3291,-8.396,-8.4697,-8.5141,-8.5604,-8.5535,-8.4742,-8.4604,-8.457,-8.4501,-8.4259,-8.3983,-8.4018,-8.4052,-8.3535,-8.25,-8.2638,-8.2569,-8.2017,-8.2431,-8.2845,-8.2949,-8.35,-8.4259,-8.5052,-8.519,-8.5708,-8.6467,-8.7191,-8.7363,-8.7363,-8.7454,-8.7726,-6.7634,-6.8317,-6.7792,-6.7614,-6.765,-6.7805,-6.8026,-6.8363,-6.8654,-6.8741,-6.8538,-6.7928,-6.6941,-6.5519,-6.3109,-6.2064,-6.1924,-6.1169,-6.2378,-6.5045,-6.6369,-6.8482,-7.1017,-7.1674,-7.1832,-7.1958,-7.3064,-7.3665,-7.3759,-7.4486,-7.4897,-7.4747,-7.4322,-7.3797,-7.3265,-7.2654,-7.1787,-7.0544,-6.9272,-6.8307,-6.771,-6.7523,-6.682,-6.5582,-6.5404,-6.5448,-6.5565,-6.6088,-6.6611,-6.7135,-6.7781,-6.8366,-6.8858,-6.8889,-6.9259,-6.9997,-7.012,-7.049,-7.129,-7.1383,-7.1629,-7.2152,-7.2337,-7.2645,-7.3106,-7.2891,-7.2768,-7.3165,-7.5513,-7.7415,-7.849,-8.0275,-8.1765,-8.234,-8.2408,-8.2392,-8.2511,-8.2853,-8.3194,-8.3245,-8.3635,-8.404,-8.4086,-8.4514,-8.513,-8.5761,-8.6191,-8.5742,-8.4604,-8.4397,-8.4501,-8.4259,-8.4156,-8.388,-8.3259,-8.3431,-8.319,-8.1983,-8.2259,-8.2397,-8.2224,-8.2569,-8.2983,-8.319,-8.3638,-8.4294,-8.4984,-8.5363,-8.588,-8.6811,-8.7639,-8.7881,-8.7467,-8.7882,-8.8181,-6.7589,-6.8115,-6.7729,-6.7565,-6.7707,-6.7662,-6.8331,-6.9311,-6.906,-6.8509,-6.7861,-6.726,-6.6302,-6.5141,-6.4735,-6.4561,-6.478,-6.6879,-6.797,-6.8544,-7.0972,-7.2312,-7.2406,-7.2085,-7.1832,-7.1869,-7.2622,-7.3033,-7.3096,-7.4233,-7.4687,-7.4357,-7.3492,-7.2998,-7.2751,-7.1422,-7.0283,-6.9538,-6.8537,-6.7795,-6.7367,-6.6778,-6.6239,-6.5867,-6.5867,-6.6396,-6.7412,-6.772,-6.775,-6.7873,-6.8427,-6.8797,-6.8889,-6.8889,-6.9474,-7.0675,-7.0828,-7.1383,-7.2614,-7.2798,-7.2798,-7.2922,-7.3445,-7.3783,-7.3937,-7.4399,-7.4966,-7.5667,-7.7297,-7.8836,-8.0245,-8.1504,-8.2374,-8.2577,-8.2577,-8.2511,-8.2887,-8.3637,-8.4352,-8.4588,-8.517,-8.5796,-8.5126,-8.5229,-8.5313,-8.5501,-8.6087,-8.6122,-8.5363,-8.5501,-8.5708,-8.5156,-8.457,-8.4156,-8.3914,-8.3362,-8.2983,-8.2155,-8.1914,-8.2328,-8.2776,-8.3052,-8.3156,-8.4259,-8.4259,-8.4777,-8.5328,-8.5742,-8.6742,-8.7777,-8.857,-8.9019,-8.7879,-8.775,-8.7877,-6.723,-6.7469,-6.7792,-6.7489,-6.6986,-6.6292,-6.6299,-6.6828,-6.6971,-6.6589,-6.6076,-6.6076,-6.5917,-6.5548,-6.5548,-6.5751,-6.6164,-6.7236,-6.8402,-6.9488,-7.0615,-7.1609,-7.2432,-7.2443,-7.2286,-7.2176,-7.3011,-7.3443,-7.3538,-7.3836,-7.3851,-7.343,-7.2506,-7.1858,-7.1332,-7.0137,-6.9158,-6.8479,-6.7315,-6.6822,-6.6966,-6.6411,-6.6016,-6.5903,-6.5903,-6.6334,-6.7258,-6.772,-6.8089,-6.8458,-6.8735,-6.9074,-6.9474,-6.9843,-7.0336,-7.0921,-7.169,-7.2368,-7.2952,-7.3353,-7.3599,-7.3568,-7.4184,-7.4584,-7.4615,-7.5199,-7.599,-7.6987,-7.812,-7.9374,-8.1072,-8.2348,-8.3219,-8.3592,-8.3727,-8.3746,-8.3885,-8.4261,-8.464,-8.4933,-8.5327,-8.5669,-8.5786,-8.6573,-8.6742,-8.6225,-8.6467,-8.6639,-8.6053,-8.6122,-8.6363,-8.6536,-8.657,-8.6087,-8.5052,-8.4501,-8.3914,-8.3362,-8.3121,-8.3362,-8.4018,-8.4673,-8.519,-8.5811,-8.6191,-8.657,-8.7225,-8.7363,-8.795,-8.8743,-8.9157,-8.9467,-8.8881,-8.8808,-8.8934,-6.6779,-6.68,-6.7161,-6.6889,-6.623,-6.5334,-6.5081,-6.5315,-6.5555,-6.5387,-6.5021,-6.5274,-6.5539,-6.5753,-6.5684,-6.5857,-6.6326,-6.6764,-6.7971,-6.9594,-6.9778,-7.0893,-7.2704,-7.2265,-7.2199,-7.241,-7.3084,-7.3521,-7.356,-7.3265,-7.2932,-7.2444,-7.165,-7.0942,-7.0261,-6.9346,-6.8581,-6.7904,-6.6919,-6.6611,-6.6827,-6.6611,-6.6365,-6.6242,-6.6365,-6.6765,-6.7442,-6.7935,-6.8489,-6.9135,-6.932,-6.9659,-7.0151,-7.0828,-7.1198,-7.1321,-7.2491,-7.326,-7.326,-7.3876,-7.4276,-7.4307,-7.4892,-7.5292,-7.5384,-7.5907,-7.686,-7.8028,-7.8831,-8.0091,-8.1734,-8.3087,-8.4012,-8.4539,-8.4606,-8.4606,-8.4573,-8.4694,-8.4819,-8.5063,-8.5425,-8.5786,-8.6509,-8.7624,-8.8053,-8.726,-8.7398,-8.7605,-8.7156,-8.7156,-8.7501,-8.7984,-8.8674,-8.8053,-8.6087,-8.5466,-8.5121,-8.4328,-8.3914,-8.4156,-8.5052,-8.5777,-8.6501,-8.6639,-8.7881,-8.8467,-8.8191,-8.8433,-8.8984,-8.9191,-8.9467,-8.964,-8.9157,-8.9243,-8.9269,-6.6155,-6.6074,-6.5531,-6.5418,-6.5451,-6.5313,-6.5695,-6.609,-6.5795,-6.5514,-6.5333,-6.4968,-6.5037,-6.554,-6.5062,-6.4809,-6.5057,-6.6432,-6.7837,-6.9268,-6.9548,-7.1295,-7.3991,-7.1626,-7.1069,-7.2324,-7.2414,-7.2579,-7.2873,-7.2666,-7.2083,-7.1464,-7.1071,-7.0612,-6.9965,-6.9225,-6.8581,-6.8027,-6.7781,-6.7535,-6.7135,-6.7566,-6.7535,-6.7104,-6.7504,-6.8089,-6.8705,-6.8828,-6.9166,-6.9813,-7.0428,-7.0828,-7.0921,-7.1536,-7.1937,-7.2091,-7.3199,-7.3937,-7.403,-7.4584,-7.4953,-7.5046,-7.5569,-7.5969,-7.6,-7.6523,-7.7321,-7.8691,-7.9765,-8.1134,-8.2326,-8.3616,-8.4452,-8.4573,-8.4606,-8.4606,-8.4606,-8.4921,-8.5011,-8.5286,-8.6007,-8.6883,-8.7795,-8.8347,-8.8519,-8.8398,-8.8467,-8.8467,-8.8501,-8.895,-8.9295,-8.9571,-8.9881,-8.9674,-8.7018,-8.6432,-8.5742,-8.4984,-8.4742,-8.4466,-8.5087,-8.5811,-8.657,-8.7363,-8.8226,-8.8743,-8.8777,-8.9157,-8.9812,-9.0019,-8.9743,-8.964,-8.9295,-8.8157,-8.8328,-6.5775,-6.602,-6.5043,-6.4618,-6.4635,-6.3854,-6.3739,-6.3951,-6.4116,-6.417,-6.4225,-6.4335,-6.4555,-6.4747,-6.4528,-6.5011,-6.5949,-6.6534,-6.7387,-6.8602,-6.9575,-7.0899,-7.2176,-7.1967,-7.2021,-7.2291,-7.2186,-7.2002,-7.1953,-7.2268,-7.1715,-7.0608,-7.0334,-7.012,-6.9751,-6.8797,-6.8304,-6.8489,-6.815,-6.7997,-6.8212,-6.8828,-6.9074,-6.8828,-6.8612,-6.8858,-6.9505,-6.9936,-7.0305,-7.0521,-7.1198,-7.1598,-7.166,-7.2244,-7.2829,-7.3291,-7.4122,-7.4645,-7.4707,-7.5261,-7.563,-7.5692,-7.6277,-7.6646,-7.6677,-7.6862,-7.7181,-7.796,-7.9684,-8.0977,-8.1712,-8.331,-8.4606,-8.4606,-8.464,-8.464,-8.4708,-8.5153,-8.5599,-8.5913,-8.6828,-8.788,-8.8638,-8.9122,-8.9122,-8.8743,-8.8984,-8.926,-8.9329,-8.9571,-8.9881,-9.0295,-9.0571,-9.0295,-8.8915,-8.8053,-8.7398,-8.6536,-8.6087,-8.6087,-8.6467,-8.6674,-8.7363,-8.8398,-8.9053,-8.9364,-8.9536,-8.9881,-9.0536,-9.0467,-9.0226,-8.9536,-8.9364,-8.8226,-8.8495,-6.5151,-6.5368,-6.4663,-6.431,-6.4201,-6.3442,-6.3116,-6.3143,-6.3523,-6.3713,-6.3794,-6.4147,-6.431,-6.431,-6.431,-6.4817,-6.5791,-6.5862,-6.6469,-6.7564,-6.8654,-6.9854,-7.1194,-7.1812,-7.2211,-7.2178,-7.1554,-7.1244,-7.1313,-7.1686,-7.1163,-6.9967,-7.0305,-7.0428,-7.009,-6.932,-6.9135,-6.9382,-6.9105,-6.9043,-6.9289,-6.9874,-7.009,-6.9874,-6.9443,-6.9413,-6.9905,-7.0336,-7.0705,-7.0921,-7.1352,-7.1937,-7.2583,-7.326,-7.3845,-7.4338,-7.4953,-7.5323,-7.5415,-7.5969,-7.6338,-7.6338,-7.6739,-7.7016,-7.7016,-7.7016,-7.7212,-7.7896,-7.9124,-8.0572,-8.1647,-8.3365,-8.4553,-8.4674,-8.4843,-8.4979,-8.5046,-8.5689,-8.6237,-8.6744,-8.7754,-8.874,-8.9482,-8.9846,-8.9812,-8.9364,-8.9778,-9.0019,-9.0054,-9.0088,-9.0192,-9.0674,-9.0778,-9.0433,-8.9502,-8.8708,-8.8329,-8.757,-8.7122,-8.7294,-8.7432,-8.7639,-8.8122,-8.9226,-8.9847,-9.0157,-9.0433,-9.0709,-9.0778,-9.0743,-8.995,-8.9088,-8.8777,-8.8329,-8.8461,-6.4337,-6.4391,-6.431,-6.4364,-6.4391,-6.4283,-6.4283,-6.4256,-6.4256,-6.4201,-6.4201,-6.431,-6.431,-6.431,-6.431,-6.4383,-6.4528,-6.4528,-6.5193,-6.6413,-6.6832,-6.849,-7.0933,-7.0933,-7.1443,-7.2272,-7.0855,-7.0427,-7.095,-7.1166,-7.0798,-7.0336,-7.1229,-7.1444,-7.0921,-7.0705,-7.0736,-7.0705,-7.0613,-7.0398,-7.0059,-7.0459,-7.0521,-6.9967,-6.9813,-6.9813,-6.9843,-6.9905,-7.0274,-7.0828,-7.1044,-7.1937,-7.3691,-7.4553,-7.4984,-7.5076,-7.563,-7.5969,-7.6061,-7.6585,-7.6923,-7.6923,-7.6985,-7.7016,-7.7016,-7.7016,-7.7442,-7.8565,-7.9486,-8.0548,-8.2335,-8.3784,-8.4674,-8.4708,-8.5283,-8.5655,-8.5926,-8.6467,-8.7097,-8.7675,-8.8658,-8.9476,-9.0166,-9.0516,-9.0571,-9.0571,-9.0605,-9.0674,-9.064,-9.064,-9.0743,-9.0709,-9.0605,-9.0226,-8.9674,-8.9122,-8.8777,-8.8433,-8.8157,-8.8088,-8.8122,-8.8295,-8.857,-8.9467,-8.9985,-9.0295,-9.0571,-9.0812,-9.0812,-9.0605,-8.9605,-8.8846,-8.8501,-8.8155,-8.7729,-6.431,-6.4364,-6.4744,-6.4907,-6.4907,-6.4907,-6.4907,-6.4853,-6.45,-6.431,-6.431,-6.431,-6.431,-6.431,-6.431,-6.431,-6.431,-6.431,-6.4573,-6.5264,-6.7012,-6.8422,-6.9597,-7.1325,-7.2151,-7.2182,-7.209,-7.1598,-7.1167,-7.1844,-7.1752,-7.1013,-7.1536,-7.1844,-7.1629,-7.1167,-7.089,-7.089,-7.089,-7.0582,-7.0028,-7.0551,-7.0551,-6.9967,-6.9874,-6.969,-6.9259,-6.9659,-7.0213,-7.0921,-7.1844,-7.3045,-7.4461,-7.5323,-7.5692,-7.5754,-7.6338,-7.6708,-7.6708,-7.6862,-7.7016,-7.7016,-7.7016,-7.7016,-7.7016,-7.6985,-7.7605,-7.8911,-8.0332,-8.1806,-8.2671,-8.3838,-8.479,-8.5384,-8.5655,-8.6027,-8.6535,-8.7211,-8.8155,-8.9075,-8.954,-9.0036,-9.051,-9.0757,-9.0812,-9.0812,-9.0812,-9.0812,-9.0812,-9.0812,-9.0536,-9.0192,-9.0088,-8.9985,-8.9485,-8.8846,-8.8347,-8.8243,-8.8243,-8.857,-8.8708,-8.8812,-8.9157,-8.9502,-9.0019,-9.0398,-9.0709,-9.0812,-9.0812,-9.0467,-8.9674,-8.9053,-8.857,-8.8046,-8.752,-6.4419,-6.469,-6.5043,-6.5341,-6.5531,-6.5531,-6.5531,-6.5504,-6.5151,-6.488,-6.479,-6.4636,-6.45,-6.4337,-6.431,-6.431,-6.431,-6.431,-6.431,-6.4789,-6.726,-6.8557,-6.9028,-7.1631,-7.2798,-7.2429,-7.2521,-7.2152,-7.1383,-7.2121,-7.2152,-7.1536,-7.1998,-7.2337,-7.2337,-7.1906,-7.1598,-7.1352,-7.129,-7.0859,-7.0182,-7.0305,-7.0213,-6.9628,-6.9505,-6.9443,-6.9289,-6.9905,-7.0582,-7.1506,-7.3045,-7.4491,-7.5353,-7.6,-7.6369,-7.6461,-7.6739,-7.7016,-7.7016,-7.7016,-7.7016,-7.7016,-7.7016,-7.7016,-7.702,-7.6996,-7.7713,-7.9531,-8.1653,-8.3136,-8.3477,-8.4089,-8.4925,-8.5689,-8.5757,-8.6264,-8.711,-8.8066,-8.8719,-8.9504,-8.9901,-9.0275,-9.049,-9.0757,-9.0812,-9.0812,-9.0812,-9.0812,-9.0812,-9.0812,-9.0467,-9.0123,-8.995,-8.9761,-8.9329,-8.8656,-8.7933,-8.7882,-8.7985,-8.8622,-8.9122,-8.9191,-8.9398,-8.9709,-9.0157,-9.0536,-9.0812,-9.0812,-9.0778,-9.0192,-8.9812,-8.9226,-8.8674,-8.7743,-8.7246,-6.4663,-6.5178,-6.5233,-6.564,-6.6128,-6.6182,-6.6182,-6.6155,-6.6047,-6.5795,-6.5489,-6.5225,-6.4826,-6.4391,-6.431,-6.431,-6.431,-6.431,-6.431,-6.505,-6.7151,-6.8692,-6.9361,-7.1759,-7.2922,-7.2829,-7.246,-7.2121,-7.2029,-7.2183,-7.2029,-7.2091,-7.2583,-7.2952,-7.286,-7.2922,-7.246,-7.1783,-7.1783,-7.1105,-6.9874,-6.9813,-6.9659,-6.9074,-6.9105,-6.9351,-6.9967,-7.0798,-7.1536,-7.2368,-7.4553,-7.5784,-7.6154,-7.6677,-7.6954,-7.6923,-7.7016,-7.7016,-7.7016,-7.7016,-7.7016,-7.7016,-7.7016,-7.7016,-7.702,-7.7049,-7.8028,-8.0408,-8.2906,-8.4445,-8.4433,-8.4553,-8.4979,-8.5554,-8.5824,-8.6535,-8.7719,-8.8651,-8.8965,-8.9177,-8.9785,-9.03,-9.0265,-9.0532,-9.0535,-9.064,-9.064,-9.0605,-9.064,-9.0605,-9.0743,-9.0398,-8.9812,-8.8967,-8.8398,-8.7897,-8.7209,-8.7313,-8.7588,-8.8347,-8.9191,-8.9364,-8.9709,-9.0019,-9.026,-9.0605,-9.0812,-9.0812,-9.0812,-9.0571,-9.0088,-8.9467,-8.8743,-8.7915,-8.7458,-6.4663,-6.5233,-6.5694,-6.6237,-6.6752,-6.6779,-6.6779,-6.6725,-6.6318,-6.5958,-6.557,-6.5306,-6.488,-6.4337,-6.431,-6.431,-6.431,-6.431,-6.431,-6.4789,-6.7289,-6.9161,-7.0314,-7.2043,-7.2983,-7.2952,-7.2768,-7.2706,-7.2706,-7.2675,-7.2706,-7.2737,-7.286,-7.2983,-7.2983,-7.2983,-7.2337,-7.1352,-7.1198,-7.0582,-6.9474,-6.9228,-6.9351,-6.9628,-6.9628,-6.9997,-7.0736,-7.2306,-7.3506,-7.4184,-7.5292,-7.6246,-7.6677,-7.6923,-7.7016,-7.7016,-7.7016,-7.7016,-7.7016,-7.7016,-7.7016,-7.7016,-7.7016,-7.7016,-7.6985,-7.7021,-7.8244,-8.0615,-8.3079,-8.459,-8.4595,-8.4606,-8.4776,-8.5012,-8.579,-8.6602,-8.7076,-8.7402,-8.7939,-8.8892,-8.9022,-8.9341,-8.9937,-8.9994,-8.9913,-9.0036,-9.0123,-9.0157,-9.0329,-9.0571,-9.0778,-8.9985,-8.926,-8.8278,-8.7434,-8.6899,-8.6589,-8.6623,-8.7071,-8.783,-8.8674,-8.9295,-8.9847,-9.0433,-9.0502,-9.0778,-9.0812,-9.0812,-9.0812,-9.0812,-9.0295,-8.9674,-8.9157,-8.8433,-8.8058,-6.5043,-6.564,-6.6237,-6.6834,-6.7349,-6.7376,-6.7376,-6.7268,-6.6752,-6.6495,-6.6337,-6.5543,-6.488,-6.4337,-6.431,-6.431,-6.431,-6.431,-6.431,-6.4789,-6.7289,-6.9626,-7.1473,-7.2703,-7.2983,-7.2983,-7.2983,-7.2983,-7.2952,-7.2983,-7.2983,-7.2952,-7.2983,-7.2983,-7.2983,-7.2952,-7.246,-7.1506,-7.1075,-7.0459,-6.9782,-6.9443,-6.969,-7.0182,-7.0367,-7.0828,-7.2214,-7.3907,-7.4922,-7.5199,-7.5877,-7.6615,-7.6954,-7.7016,-7.7016,-7.7016,-7.7016,-7.7016,-7.7016,-7.7016,-7.7016,-7.7016,-7.7016,-7.7016,-7.7188,-7.7559,-7.9039,-8.0674,-8.3158,-8.4363,-8.4615,-8.4606,-8.4606,-8.4742,-8.556,-8.6203,-8.6399,-8.6771,-8.7308,-8.7987,-8.8252,-8.8516,-8.9716,-8.9548,-8.9741,-9.007,-9.0329,-9.0295,-9.0329,-9.0571,-9.0571,-8.9881,-8.9088,-8.8174,-8.74,-8.6864,-8.6467,-8.6432,-8.6605,-8.7363,-8.8157,-8.895,-8.9605,-9.0157,-9.0536,-9.0778,-9.0709,-9.0709,-9.0812,-9.0674,-9.0295,-8.9985,-8.9502,-8.895,-8.8578,-6.5613,-6.6264,-6.6779,-6.7349,-6.7838,-6.7892,-6.7756,-6.7675,-6.7186,-6.7162,-6.7079,-6.5862,-6.488,-6.431,-6.431,-6.431,-6.431,-6.431,-6.45,-6.538,-6.7398,-6.992,-7.2106,-7.2765,-7.2983,-7.2983,-7.2983,-7.2983,-7.2983,-7.2983,-7.2983,-7.2983,-7.2983,-7.2983,-7.2983,-7.2983,-7.2645,-7.2121,-7.1598,-7.1352,-7.1075,-7.0736,-7.0859,-7.1383,-7.169,-7.2398,-7.3814,-7.5169,-7.5692,-7.5138,-7.6338,-7.6892,-7.7016,-7.7016,-7.7016,-7.7016,-7.7016,-7.7016,-7.7016,-7.7016,-7.7016,-7.7016,-7.7016,-7.7147,-7.7512,-7.8559,-7.9828,-8.1089,-8.3254,-8.4406,-8.4587,-8.4606,-8.464,-8.4747,-8.506,-8.5279,-8.5749,-8.6372,-8.6833,-8.7171,-8.7439,-8.808,-8.8824,-8.9362,-8.9553,-8.9174,-8.9536,-8.964,-8.9743,-9.0019,-9.0123,-8.9985,-8.9157,-8.8243,-8.7554,-8.6933,-8.6554,-8.6329,-8.6363,-8.6846,-8.7639,-8.8398,-8.9088,-8.9605,-8.9778,-9.0123,-9.0502,-9.0571,-9.0605,-9.0778,-9.0536,-9.0295,-8.995,-8.9364,-8.8895,-6.583,-6.6834,-6.6969,-6.7349,-6.7838,-6.7892,-6.7648,-6.7213,-6.7078,-6.6815,-6.6384,-6.5516,-6.4853,-6.431,-6.431,-6.431,-6.431,-6.4383,-6.4861,-6.6202,-6.7673,-6.9494,-7.1345,-7.2359,-7.2983,-7.2983,-7.2983,-7.2983,-7.2983,-7.2983,-7.2983,-7.2983,-7.2983,-7.3014,-7.3014,-7.3076,-7.2952,-7.2737,-7.2583,-7.2521,-7.2521,-7.2368,-7.2491,-7.3106,-7.366,-7.4184,-7.4738,-7.5569,-7.5907,-7.6031,-7.6523,-7.7016,-7.7016,-7.7016,-7.7016,-7.7016,-7.7016,-7.7016,-7.7016,-7.7016,-7.7016,-7.7016,-7.7016,-7.7442,-7.8471,-7.9083,-8.049,-8.1984,-8.3674,-8.4553,-8.464,-8.4606,-8.4747,-8.4958,-8.5063,-8.5236,-8.5511,-8.5716,-8.6125,-8.6605,-8.6794,-8.7225,-8.8172,-8.7933,-8.8089,-8.8278,-8.8536,-8.8708,-8.9053,-8.9467,-8.9536,-8.9571,-8.8743,-8.783,-8.7519,-8.6899,-8.6485,-8.6294,-8.6294,-8.6329,-8.7122,-8.7605,-8.8191,-8.8605,-8.8881,-8.9329,-8.9881,-8.9985,-8.995,-9.0364,-9.0709,-9.0467,-9.0088,-8.9605,-8.9139,-6.6182,-6.7024,-6.7295,-6.7593,-6.7865,-6.7892,-6.7566,-6.7024,-6.6698,-6.6332,-6.5726,-6.5089,-6.4609,-6.431,-6.431,-6.431,-6.431,-6.431,-6.5077,-6.6483,-6.7975,-6.9361,-7.0864,-7.217,-7.2983,-7.3014,-7.2983,-7.2983,-7.2983,-7.2983,-7.2983,-7.2983,-7.3014,-7.3229,-7.3414,-7.3445,-7.3691,-7.3814,-7.3599,-7.3599,-7.3845,-7.3599,-7.3537,-7.403,-7.4615,-7.5015,-7.5046,-7.5661,-7.6154,-7.6492,-7.6831,-7.7016,-7.7016,-7.7016,-7.7016,-7.7016,-7.7016,-7.7016,-7.7016,-7.7016,-7.7016,-7.7016,-7.7016,-7.7734,-7.8785,-7.9608,-8.0919,-8.2449,-8.3729,-8.4606,-8.48,-8.4958,-8.515,-8.5221,-8.5377,-8.5532,-8.5635,-8.5618,-8.5669,-8.6148,-8.6303,-8.6834,-8.7143,-8.7126,-8.7607,-8.8226,-8.8467,-8.8639,-8.8674,-8.8984,-8.895,-8.8743,-8.8053,-8.7467,-8.7329,-8.6915,-8.6467,-8.6294,-8.6294,-8.6294,-8.6605,-8.6915,-8.7156,-8.7639,-8.8191,-8.8674,-8.9157,-8.9191,-8.926,-8.9467,-8.9743,-9.0088,-9.0123,-8.9674,-8.9191,-6.6617,-6.7186,-6.7675,-6.7892,-6.7892,-6.7892,-6.7539,-6.6969,-6.6481,-6.6074,-6.5496,-6.4798,-6.4853,-6.4663,-6.469,-6.4609,-6.4636,-6.4736,-6.5499,-6.6449,-6.8326,-6.9621,-7.0951,-7.2466,-7.3476,-7.3291,-7.3076,-7.3014,-7.3014,-7.3106,-7.326,-7.3168,-7.3168,-7.3445,-7.3876,-7.3876,-7.4061,-7.4584,-7.4368,-7.4461,-7.4922,-7.4584,-7.4399,-7.4338,-7.4861,-7.523,-7.5415,-7.5907,-7.6431,-7.6985,-7.7016,-7.7016,-7.7016,-7.7016,-7.7016,-7.7016,-7.7016,-7.7016,-7.7016,-7.7016,-7.7016,-7.7016,-7.7246,-7.8085,-7.9287,-8.0758,-8.2214,-8.3331,-8.4601,-8.5177,-8.532,-8.5341,-8.5463,-8.5583,-8.5788,-8.589,-8.589,-8.5737,-8.5857,-8.5959,-8.6147,-8.6558,-8.6901,-8.7021,-8.7588,-8.8088,-8.8295,-8.8398,-8.8364,-8.8364,-8.826,-8.7984,-8.7294,-8.7018,-8.688,-8.6846,-8.6363,-8.6294,-8.6294,-8.6294,-8.6294,-8.6501,-8.6811,-8.7122,-8.7605,-8.8019,-8.8329,-8.8398,-8.8467,-8.857,-8.8915,-8.9398,-8.9571,-8.9605,-8.9243,-6.7213,-6.7756,-6.7838,-6.7892,-6.7892,-6.7892,-6.7566,-6.7051,-6.6888,-6.6351,-6.5579,-6.5701,-6.5877,-6.606,-6.5857,-6.5802,-6.5667,-6.5834,-6.6083,-6.6979,-6.8964,-7.0624,-7.1473,-7.3282,-7.4428,-7.4338,-7.3722,-7.3168,-7.326,-7.3506,-7.3783,-7.3814,-7.3814,-7.3968,-7.3845,-7.3568,-7.3999,-7.4861,-7.483,-7.5076,-7.5538,-7.563,-7.5292,-7.4984,-7.5415,-7.5692,-7.5907,-7.6431,-7.6923,-7.7016,-7.7016,-7.7016,-7.7016,-7.7016,-7.7016,-7.7016,-7.7016,-7.7016,-7.7016,-7.7016,-7.7016,-7.7212,-7.7925,-7.9478,-8.106,-8.2603,-8.4015,-8.5544,-8.6113,-8.6298,-8.635,-8.601,-8.5737,-8.5857,-8.5925,-8.6026,-8.6212,-8.6178,-8.6128,-8.6144,-8.6228,-8.6228,-8.6554,-8.6742,-8.6949,-8.726,-8.7467,-8.7363,-8.7225,-8.7329,-8.7398,-8.7018,-8.6536,-8.6467,-8.6398,-8.6432,-8.6294,-8.6294,-8.6294,-8.6294,-8.6294,-8.6294,-8.6501,-8.6811,-8.688,-8.7087,-8.7329,-8.7536,-8.7812,-8.7984,-8.8364,-8.8777,-8.8881,-8.895,-8.9208,-6.7349,-6.7892,-6.7892,-6.7892,-6.7892,-6.7892,-6.7566,-6.7051,-6.6996,-6.6541,-6.6033,-6.6026,-6.6182,-6.6311,-6.6182,-6.6128,-6.6305,-6.701,-6.7641,-6.8768,-7.061,-7.2209,-7.2671,-7.447,-7.4856,-7.483,-7.4307,-7.3999,-7.4061,-7.4368,-7.4522,-7.4522,-7.4522,-7.4522,-7.4461,-7.4307,-7.4368,-7.4953,-7.5046,-7.5323,-7.6,-7.6277,-7.6123,-7.5815,-7.5754,-7.5969,-7.6061,-7.6246,-7.6677,-7.6923,-7.7016,-7.7016,-7.7016,-7.7016,-7.7016,-7.7016,-7.7016,-7.7016,-7.7016,-7.7016,-7.7016,-7.7177,-7.8498,-8.023,-8.208,-8.3705,-8.5628,-8.6908,-8.7617,-8.7451,-8.7416,-8.6817,-8.68,-8.7005,-8.6644,-8.6419,-8.6623,-8.6501,-8.6363,-8.6294,-8.6278,-8.6278,-8.6329,-8.6398,-8.6329,-8.6467,-8.6639,-8.6536,-8.6329,-8.6501,-8.6777,-8.6605,-8.6329,-8.6329,-8.6294,-8.6294,-8.6294,-8.6294,-8.6294,-8.6294,-8.6294,-8.6294,-8.6294,-8.6432,-8.6467,-8.6536,-8.657,-8.688,-8.7156,-8.7432,-8.7708,-8.7984,-8.8157,-8.8346,-8.8637,-6.7458,-6.7892,-6.7892,-6.7892,-6.7892,-6.7892,-6.7648,-6.7241,-6.7213,-6.6969,-6.6535,-6.6508,-6.6535,-6.6508,-6.6535,-6.6508,-6.6556,-6.7792,-6.8887,-7.0319,-7.1826,-7.3424,-7.4576,-7.532,-7.5538,-7.5661,-7.5476,-7.5261,-7.4892,-7.5107,-7.5199,-7.5199,-7.5199,-7.5199,-7.5169,-7.4922,-7.5076,-7.5199,-7.523,-7.5538,-7.6031,-7.6338,-7.6369,-7.5938,-7.5938,-7.6,-7.6031,-7.6277,-7.6585,-7.6892,-7.7016,-7.7016,-7.7016,-7.7016,-7.7016,-7.7016,-7.7016,-7.7016,-7.7016,-7.7016,-7.7208,-7.7916,-7.9479,-8.1263,-8.3415,-8.5464,-8.7114,-8.8004,-8.8344,-8.8501,-8.8398,-8.7968,-8.783,-8.7726,-8.7175,-8.6605,-8.6742,-8.6639,-8.6363,-8.6294,-8.6294,-8.6294,-8.6294,-8.6294,-8.6294,-8.6294,-8.6501,-8.6501,-8.6294,-8.6294,-8.6467,-8.6432,-8.6329,-8.6329,-8.6294,-8.6294,-8.6294,-8.6294,-8.6294,-8.6294,-8.6294,-8.6294,-8.6294,-8.6294,-8.6329,-8.6398,-8.6329,-8.6294,-8.6639,-8.688,-8.7018,-8.7156,-8.7329,-8.7826,-8.8254,-6.7838,-6.7892,-6.7892,-6.7892,-6.7892,-6.7892,-6.7865,-6.7783,-6.7729,-6.7756,-6.7539,-6.762,-6.7593,-6.7566,-6.7593,-6.762,-6.7746,-6.8092,-6.9105,-7.0662,-7.2092,-7.3625,-7.4894,-7.6212,-7.6423,-7.6492,-7.6585,-7.6061,-7.5569,-7.5723,-7.5877,-7.5907,-7.5907,-7.5846,-7.5692,-7.5353,-7.5323,-7.5754,-7.5846,-7.5907,-7.5938,-7.5661,-7.5476,-7.5476,-7.5754,-7.6092,-7.6184,-7.6523,-7.6892,-7.6954,-7.7016,-7.7016,-7.7016,-7.7016,-7.7016,-7.7016,-7.7016,-7.7016,-7.7016,-7.7016,-7.7727,-7.91,-8.1044,-8.3296,-8.5706,-8.7878,-8.9463,-8.9952,-8.9775,-8.9501,-8.9329,-8.8795,-8.826,-8.7812,-8.7398,-8.6846,-8.6708,-8.6605,-8.6363,-8.6294,-8.6294,-8.6294,-8.6294,-8.6294,-8.6294,-8.6294,-8.6294,-8.6294,-8.6294,-8.6294,-8.6294,-8.6294,-8.6294,-8.6294,-8.6294,-8.6294,-8.6294,-8.6294,-8.6294,-8.6294,-8.6294,-8.6294,-8.6294,-8.6294,-8.6294,-8.6294,-8.6294,-8.6294,-8.6294,-8.6432,-8.6639,-8.657,-8.6467,-8.7081,-8.7949,-6.7892,-6.7892,-6.7892,-6.7892,-6.7892,-6.7892,-6.7892,-6.7892,-6.7892,-6.7892,-6.7892,-6.7892,-6.7892,-6.7892,-6.7892,-6.7892,-6.8094,-6.8751,-7.0044,-7.1452,-7.2953,-7.4514,-7.5832,-7.6656,-7.695,-7.7016,-7.6985,-7.6769,-7.6338,-7.6338,-7.6585,-7.6554,-7.6554,-7.6338,-7.6123,-7.5723,-7.5507,-7.5569,-7.5754,-7.5969,-7.6031,-7.6092,-7.6123,-7.6123,-7.64,-7.6523,-7.6646,-7.68,-7.7016,-7.7016,-7.7016,-7.7016,-7.7016,-7.7016,-7.7016,-7.7016,-7.7016,-7.7016,-7.7016,-7.7212,-7.8243,-7.9793,-8.1997,-8.4862,-8.7902,-8.9737,-9.0601,-9.0566,-9.0431,-9.0329,-9.0019,-8.9226,-8.8915,-8.8398,-8.7536,-8.7156,-8.6742,-8.6432,-8.6294,-8.6294,-8.6294,-8.6294,-8.6294,-8.6294,-8.6294,-8.6294,-8.6294,-8.6294,-8.6294,-8.6294,-8.6294,-8.6294,-8.6294,-8.6294,-8.6294,-8.6294,-8.6294,-8.6294,-8.6294,-8.6294,-8.6294,-8.6294,-8.6294,-8.6294,-8.6294,-8.6294,-8.6294,-8.6294,-8.6294,-8.6294,-8.6329,-8.6294,-8.6344,-8.7178,-8.8135,-6.7892,-6.7892,-6.7892,-6.7973,-6.8082,-6.7973,-6.8,-6.8109,-6.7946,-6.7892,-6.7892,-6.7892,-6.7892,-6.7892,-6.7892,-6.7892,-6.7968,-6.9476,-7.1044,-7.2528,-7.4001,-7.5429,-7.6426,-7.695,-7.7016,-7.7016,-7.7016,-7.6923,-7.6954,-7.6985,-7.6954,-7.7016,-7.6923,-7.6739,-7.64,-7.6246,-7.6123,-7.5846,-7.6154,-7.6308,-7.64,-7.6739,-7.6892,-7.6985,-7.7016,-7.7016,-7.7016,-7.7016,-7.7016,-7.7016,-7.7016,-7.7016,-7.7016,-7.7016,-7.7016,-7.7016,-7.7081,-7.7442,-7.767,-7.8088,-7.8754,-8.0688,-8.3362,-8.6982,-8.9512,-9.0707,-9.0812,-9.076,-9.0467,-9.0433,-9.026,-8.9295,-8.8743,-8.8226,-8.7605,-8.7294,-8.6949,-8.657,-8.6294,-8.6294,-8.6294,-8.6294,-8.6294,-8.6294,-8.6294,-8.6294,-8.6294,-8.6294,-8.6294,-8.6294,-8.6294,-8.6294,-8.6294,-8.6294,-8.6294,-8.6294,-8.6294,-8.6294,-8.6294,-8.6294,-8.6294,-8.6294,-8.6294,-8.6294,-8.6294,-8.6294,-8.6294,-8.6294,-8.6294,-8.6294,-8.6294,-8.6294,-8.6593,-8.7361,-8.8436,-6.7892,-6.7892,-6.7919,-6.8217,-6.8652,-6.8109,-6.8217,-6.857,-6.8109,-6.7865,-6.781,-6.7892,-6.7892,-6.7865,-6.7865,-6.7892,-6.7968,-6.9476,-7.0972,-7.2456,-7.4001,-7.5429,-7.6457,-7.7016,-7.7016,-7.7016,-7.7016,-7.7016,-7.7016,-7.7016,-7.7016,-7.7016,-7.7016,-7.6985,-7.6892,-7.6769,-7.6769,-7.6585,-7.6769,-7.6831,-7.6831,-7.6985,-7.7016,-7.7016,-7.7016,-7.7016,-7.7016,-7.7016,-7.7016,-7.7016,-7.7016,-7.7016,-7.7016,-7.7081,-7.7081,-7.7147,-7.7343,-7.7927,-7.866,-7.9192,-8.0463,-8.3001,-8.5885,-8.857,-9.0257,-9.0656,-9.0743,-9.0502,-9.0019,-8.9812,-8.9571,-8.9088,-8.8329,-8.7881,-8.7363,-8.6984,-8.6708,-8.6536,-8.6294,-8.6294,-8.6294,-8.6294,-8.6294,-8.6294,-8.6294,-8.6294,-8.6294,-8.6294,-8.6294,-8.6294,-8.6294,-8.6294,-8.6294,-8.6294,-8.6294,-8.6294,-8.6294,-8.6294,-8.6294,-8.6294,-8.6294,-8.6294,-8.6294,-8.6294,-8.6294,-8.6294,-8.6294,-8.6294,-8.6294,-8.6294,-8.6344,-8.6494,-8.706,-8.7981,-8.9063,-6.8109,-6.8435,-6.8435,-6.857,-6.876,-6.8543,-6.857,-6.8652,-6.8136,-6.7675,-6.7403,-6.7702,-6.7702,-6.7539,-6.7783,-6.7892,-6.7968,-6.8399,-7.0385,-7.1956,-7.3304,-7.4817,-7.6094,-7.7046,-7.7016,-7.7046,-7.7046,-7.7016,-7.7016,-7.7108,-7.7046,-7.7016,-7.7046,-7.7016,-7.7016,-7.7016,-7.7016,-7.7016,-7.7016,-7.7016,-7.7016,-7.7016,-7.7016,-7.7016,-7.7016,-7.7016,-7.7016,-7.7016,-7.7016,-7.7016,-7.7016,-7.7016,-7.7081,-7.7212,-7.7343,-7.7408,-7.7732,-7.866,-7.9745,-8.0264,-8.1555,-8.4767,-8.7109,-8.8778,-9.0019,-8.9812,-8.9502,-8.9295,-8.926,-8.9019,-8.8915,-8.8329,-8.7674,-8.7398,-8.7053,-8.6674,-8.6467,-8.6363,-8.6294,-8.6294,-8.6294,-8.6294,-8.6294,-8.6294,-8.6294,-8.6294,-8.6294,-8.6294,-8.6294,-8.6294,-8.6294,-8.6294,-8.6294,-8.6294,-8.6294,-8.6294,-8.6294,-8.6294,-8.6294,-8.6294,-8.6294,-8.6294,-8.6294,-8.6294,-8.6363,-8.6432,-8.6432,-8.6329,-8.6363,-8.6467,-8.6647,-8.6818,-8.7609,-8.8676,-8.9869,-6.8407,-6.8814,-6.9167,-6.933,-6.9276,-6.8923,-6.8896,-6.8896,-6.8217,-6.7675,-6.7295,-6.7702,-6.7675,-6.7485,-6.7675,-6.8323,-6.8751,-6.9476,-7.1016,-7.267,-7.4169,-7.509,-7.6452,-7.7231,-7.7416,-7.7354,-7.76,-7.7724,-7.7785,-7.7447,-7.7385,-7.7323,-7.7108,-7.7046,-7.7016,-7.7016,-7.7016,-7.7016,-7.7016,-7.7016,-7.7016,-7.7016,-7.7016,-7.7016,-7.7016,-7.7016,-7.7016,-7.7016,-7.7016,-7.7016,-7.7081,-7.7147,-7.7277,-7.7408,-7.7667,-7.7894,-7.8438,-7.9471,-8.0532,-8.1752,-8.3347,-8.6602,-8.7501,-8.8571,-8.9157,-8.9191,-8.9226,-8.8708,-8.8501,-8.8226,-8.8191,-8.757,-8.7122,-8.6846,-8.6708,-8.6398,-8.6398,-8.6294,-8.6294,-8.6294,-8.6294,-8.6294,-8.6294,-8.6294,-8.6294,-8.6294,-8.6294,-8.6294,-8.6294,-8.6294,-8.6294,-8.6294,-8.6294,-8.6294,-8.6294,-8.6294,-8.6294,-8.6294,-8.6294,-8.6294,-8.6294,-8.6294,-8.6329,-8.6329,-8.6432,-8.657,-8.6811,-8.7087,-8.6949,-8.6708,-8.7062,-8.7518,-8.9071,-9.0196,-9.1037,-6.876,-6.8923,-7.0036,-7.0497,-7.0361,-6.9276,-6.9113,-6.9384,-6.8353,-6.7783,-6.7675,-6.781,-6.781,-6.7756,-6.7783,-6.8627,-6.9923,-7.1117,-7.274,-7.407,-7.5308,-7.6518,-7.7191,-7.7631,-7.8031,-7.8185,-7.8432,-7.8678,-7.8862,-7.8278,-7.8062,-7.7816,-7.7508,-7.7108,-7.7046,-7.7016,-7.7016,-7.7016,-7.7016,-7.7016,-7.7016,-7.7016,-7.7016,-7.7016,-7.7016,-7.7016,-7.7016,-7.7016,-7.7016,-7.7016,-7.7246,-7.7377,-7.7442,-7.7861,-7.8118,-7.8342,-7.9501,-8.0804,-8.2116,-8.3519,-8.5584,-8.7674,-8.8157,-8.8622,-8.9398,-8.9502,-8.9053,-8.8329,-8.7846,-8.7501,-8.7191,-8.688,-8.6605,-8.6467,-8.6363,-8.6294,-8.6294,-8.6294,-8.6294,-8.6294,-8.6294,-8.6294,-8.6294,-8.6294,-8.6294,-8.6294,-8.6294,-8.6294,-8.6294,-8.6294,-8.6294,-8.6294,-8.6294,-8.6294,-8.6294,-8.6294,-8.6294,-8.6294,-8.6294,-8.6294,-8.6294,-8.6294,-8.6329,-8.6398,-8.6708,-8.7018,-8.7536,-8.8019,-8.7915,-8.7846,-8.8019,-8.8663,-9.0293,-9.1404,-9.1996,-6.9004,-6.9466,-7.028,-7.0822,-7.0958,-6.99,-6.952,-6.9411,-6.8109,-6.7322,-6.7295,-6.7295,-6.7322,-6.7403,-6.7882,-6.8751,-7.0192,-7.056,-7.2028,-7.4681,-7.5987,-7.68,-7.7544,-7.8308,-7.8709,-7.8801,-7.9047,-7.9201,-7.9047,-7.8801,-7.877,-7.8555,-7.8154,-7.7477,-7.7139,-7.7016,-7.7016,-7.7016,-7.7016,-7.7016,-7.7016,-7.7016,-7.7016,-7.7016,-7.7016,-7.7016,-7.7016,-7.7016,-7.7016,-7.7016,-7.7312,-7.7507,-7.7636,-7.8054,-7.8849,-7.941,-8.0565,-8.1687,-8.3354,-8.5011,-8.6474,-8.7779,-8.8295,-8.857,-8.9467,-8.8605,-8.8157,-8.7812,-8.7225,-8.6846,-8.657,-8.6536,-8.6363,-8.6363,-8.6294,-8.6294,-8.6294,-8.6294,-8.6294,-8.6294,-8.6294,-8.6294,-8.6294,-8.6294,-8.6294,-8.6294,-8.6294,-8.6294,-8.6294,-8.6294,-8.6294,-8.6294,-8.6294,-8.6294,-8.6294,-8.6294,-8.6294,-8.6294,-8.6294,-8.6294,-8.6294,-8.6363,-8.6639,-8.6846,-8.7191,-8.757,-8.826,-8.8846,-8.9053,-8.9122,-8.9294,-8.9757,-9.1077,-9.1833,-9.2148,-6.9466,-7.0063,-7.066,-7.0985,-7.1012,-7.0117,-6.9411,-6.8706,-6.7729,-6.7213,-6.7105,-6.7213,-6.7349,-6.7458,-6.7827,-6.9251,-7.0825,-7.1044,-7.267,-7.5248,-7.6259,-7.7179,-7.8046,-7.8955,-7.9355,-7.9478,-7.9694,-7.9817,-7.9878,-7.957,-7.9447,-7.9386,-7.917,-7.8678,-7.8031,-7.7477,-7.7016,-7.7016,-7.7016,-7.7016,-7.7016,-7.7016,-7.7016,-7.7016,-7.7016,-7.7016,-7.7016,-7.7016,-7.7016,-7.7081,-7.7343,-7.7572,-7.7894,-7.8691,-7.9595,-8.0417,-8.1828,-8.3054,-8.4856,-8.5618,-8.6952,-8.8364,-8.8019,-8.8467,-8.9226,-8.8674,-8.7984,-8.7398,-8.6742,-8.6467,-8.6329,-8.6294,-8.6294,-8.6294,-8.6294,-8.6294,-8.6294,-8.6294,-8.6294,-8.6294,-8.6294,-8.6294,-8.6294,-8.6294,-8.6294,-8.6294,-8.6294,-8.6294,-8.6294,-8.6294,-8.6294,-8.6294,-8.6294,-8.6294,-8.6294,-8.6294,-8.6294,-8.6294,-8.6294,-8.6294,-8.6501,-8.657,-8.6949,-8.7432,-8.8053,-8.8639,-8.926,-8.9709,-8.9916,-9.026,-9.0512,-9.117,-9.2021,-9.2581,-9.3031,-7.0063,-7.066,-7.1229,-7.1121,-7.0551,-6.9846,-6.8624,-6.7159,-6.7566,-6.7458,-6.7051,-6.7539,-6.7702,-6.7887,-6.7968,-6.9672,-7.1956,-7.2385,-7.4396,-7.6331,-7.7441,-7.796,-7.8641,-7.9509,-8.0001,-8.034,-8.0525,-8.0617,-8.0894,-8.0586,-8.0309,-8.0432,-8.0679,-8.0124,-7.9232,-7.8308,-7.7539,-7.72,-7.7016,-7.7016,-7.7016,-7.7016,-7.7016,-7.7016,-7.7016,-7.7016,-7.7016,-7.7081,-7.7081,-7.7212,-7.7377,-7.7797,-7.8501,-7.9625,-8.0356,-8.157,-8.3387,-8.4856,-8.5977,-8.6451,-8.7244,-8.857,-8.8674,-8.9088,-8.926,-8.9019,-8.826,-8.7536,-8.6915,-8.657,-8.6294,-8.6294,-8.6294,-8.6294,-8.6294,-8.6294,-8.6294,-8.6294,-8.6294,-8.6294,-8.6294,-8.6294,-8.6294,-8.6294,-8.6294,-8.6294,-8.6294,-8.6294,-8.6294,-8.6294,-8.6294,-8.6294,-8.6294,-8.6294,-8.6294,-8.6294,-8.6294,-8.6294,-8.6294,-8.6329,-8.6536,-8.6846,-8.7294,-8.795,-8.8984,-8.964,-9.0019,-9.0486,-9.0901,-9.114,-9.1301,-9.246,-9.3309,-9.4014,-9.4638,-7.0443,-7.066,-7.1229,-7.1148,-7.0415,-6.9032,-6.7865,-6.7078,-6.6806,-6.6698,-6.7024,-6.7186,-6.7566,-6.7941,-6.9053,-7.0679,-7.2243,-7.3812,-7.5519,-7.7154,-7.8339,-7.8986,-7.9632,-8.0248,-8.0679,-8.0832,-8.0956,-8.111,-8.1202,-8.1171,-8.1817,-8.2218,-8.2033,-8.1571,-8.0832,-7.9878,-7.8585,-7.7508,-7.7262,-7.7077,-7.7046,-7.7016,-7.7016,-7.7016,-7.7016,-7.7016,-7.7081,-7.7277,-7.7343,-7.7408,-7.799,-7.8596,-7.9809,-8.0445,-8.1219,-8.3442,-8.4943,-8.6164,-8.6899,-8.7087,-8.7708,-8.8915,-8.9295,-8.9812,-8.9916,-8.9467,-8.8605,-8.7915,-8.7087,-8.6639,-8.6363,-8.6294,-8.6294,-8.6294,-8.6294,-8.6294,-8.6294,-8.6294,-8.6294,-8.6294,-8.6294,-8.6294,-8.6294,-8.6294,-8.6294,-8.6294,-8.6294,-8.6294,-8.6294,-8.6294,-8.6294,-8.6294,-8.6294,-8.6294,-8.6294,-8.6294,-8.6294,-8.6294,-8.6294,-8.6398,-8.6605,-8.6984,-8.757,-8.8467,-8.9536,-9.0192,-9.0605,-9.0935,-9.1092,-9.1588,-9.1929,-9.3306,-9.4539,-9.5091,-9.5586,-7.0741,-7.0985,-7.1311,-7.1012,-7.0008,-6.8326,-6.7322,-6.6969,-6.6617,-6.6698,-6.6996,-6.7295,-6.7566,-6.8143,-6.9476,-7.0972,-7.2528,-7.3961,-7.5829,-7.7667,-7.8801,-7.9386,-8.0094,-8.0709,-8.0956,-8.1048,-8.111,-8.1233,-8.1602,-8.2433,-8.3141,-8.3357,-8.3172,-8.2926,-8.2341,-8.151,-8.0248,-7.8832,-7.7847,-7.7354,-7.7169,-7.7077,-7.7016,-7.7077,-7.7077,-7.7077,-7.7274,-7.7535,-7.7634,-7.7732,-7.8246,-7.9005,-8.0541,-8.1766,-8.3453,-8.5505,-8.6594,-8.7365,-8.7812,-8.7881,-8.8605,-8.9329,-8.9743,-9.0088,-9.0123,-8.9778,-8.9088,-8.8433,-8.7467,-8.6674,-8.6467,-8.6294,-8.6294,-8.6294,-8.6294,-8.6294,-8.6294,-8.6294,-8.6294,-8.6294,-8.6294,-8.6294,-8.6294,-8.6294,-8.6294,-8.6294,-8.6294,-8.6294,-8.6294,-8.6294,-8.6294,-8.6294,-8.6294,-8.6294,-8.6294,-8.6294,-8.6294,-8.6294,-8.6294,-8.6432,-8.6674,-8.7432,-8.8329,-8.9226,-9.0157,-9.0571,-9.0812,-9.0865,-9.0988,-9.1537,-9.2253,-9.3284,-9.4539,-9.5586,-9.6104,-7.0985,-7.1419,-7.1311,-7.0551,-6.9466,-6.7702,-6.6969,-6.6996,-6.6969,-6.6996,-6.7105,-6.762,-6.7991,-6.8676,-7.0044,-7.1524,-7.3181,-7.4731,-7.647,-7.8088,-7.8986,-7.9694,-8.0309,-8.0771,-8.1017,-8.1079,-8.1294,-8.1725,-8.2464,-8.3203,-8.3818,-8.4188,-8.4588,-8.4311,-8.3449,-8.3049,-8.1848,-8.0278,-7.9078,-7.8339,-7.76,-7.7293,-7.7169,-7.7293,-7.7323,-7.7358,-7.759,-7.782,-7.7887,-7.8112,-7.8816,-7.9603,-8.1857,-8.4021,-8.6049,-8.7005,-8.7882,-8.8278,-8.857,-8.8674,-8.9088,-8.9571,-8.9847,-9.0226,-9.0295,-8.9985,-8.9329,-8.8605,-8.7639,-8.6846,-8.6501,-8.6363,-8.6294,-8.6294,-8.6294,-8.6294,-8.6294,-8.6294,-8.6294,-8.6294,-8.6294,-8.6294,-8.6294,-8.6294,-8.6294,-8.6294,-8.6294,-8.6294,-8.6294,-8.6294,-8.6294,-8.6294,-8.6294,-8.6294,-8.6294,-8.6294,-8.6294,-8.6294,-8.6294,-8.6639,-8.7018,-8.7984,-8.9157,-8.9881,-9.0536,-9.064,-9.0812,-9.0812,-9.0988,-9.1521,-9.2253,-9.3144,-9.4319,-9.5503,-9.6299,-7.1338,-7.1338,-7.0008,-6.9249,-6.8787,-6.7105,-6.6644,-6.6996,-6.6996,-6.7024,-6.7132,-6.767,-6.8475,-6.9401,-7.119,-7.267,-7.3991,-7.5776,-7.7655,-7.8666,-7.9478,-8.0063,-8.0679,-8.0925,-8.1048,-8.1233,-8.1633,-8.2402,-8.3326,-8.3941,-8.4372,-8.4803,-8.5111,-8.4742,-8.4434,-8.4065,-8.2926,-8.151,-8.0617,-7.957,-7.8739,-7.8616,-7.8616,-7.8555,-7.8524,-7.8498,-7.8765,-7.9126,-7.9386,-7.9679,-8.125,-8.2965,-8.5259,-8.6885,-8.7847,-8.8312,-8.8605,-8.9019,-8.9295,-8.9467,-8.9778,-9.0226,-9.0502,-9.064,-9.0502,-9.0019,-8.9398,-8.8639,-8.7915,-8.7156,-8.6536,-8.6398,-8.6294,-8.6294,-8.6294,-8.6294,-8.6294,-8.6294,-8.6294,-8.6294,-8.6294,-8.6294,-8.6294,-8.6294,-8.6294,-8.6294,-8.6294,-8.6294,-8.6294,-8.6294,-8.6294,-8.6294,-8.6294,-8.6294,-8.6294,-8.6294,-8.6294,-8.6294,-8.6294,-8.6742,-8.7329,-8.8433,-8.9536,-9.0226,-9.0778,-9.0812,-9.0812,-9.0812,-9.104,-9.1418,-9.189,-9.2656,-9.3654,-9.4842,-9.5745,-7.1474,-7.1284,-6.9846,-6.8869,-6.8245,-6.7295,-6.7105,-6.7349,-6.7403,-6.7403,-6.7583,-6.8387,-6.9129,-7.0044,-7.21,-7.3263,-7.4525,-7.6794,-7.8041,-7.901,-7.9847,-8.0402,-8.0802,-8.1048,-8.1048,-8.1263,-8.2156,-8.308,-8.4034,-8.4495,-8.4834,-8.505,-8.508,-8.505,-8.4957,-8.4372,-8.3541,-8.2525,-8.1817,-8.0925,-7.9847,-7.954,-7.917,-7.9109,-7.9109,-7.9207,-7.9481,-7.9915,-8.0509,-8.1633,-8.3416,-8.4829,-8.6594,-8.8046,-8.8863,-8.9191,-8.9433,-8.9778,-9.0054,-9.0226,-9.0364,-9.0674,-9.0812,-9.0778,-9.0778,-9.026,-8.9674,-8.8915,-8.8054,-8.7296,-8.6639,-8.6329,-8.6294,-8.6294,-8.6294,-8.6294,-8.6294,-8.6294,-8.6294,-8.6294,-8.6294,-8.6294,-8.6294,-8.6294,-8.6294,-8.6294,-8.6294,-8.6294,-8.6294,-8.6294,-8.6294,-8.6294,-8.6294,-8.6294,-8.6294,-8.6294,-8.6294,-8.6294,-8.6294,-8.7053,-8.7777,-8.8881,-8.9881,-9.0467,-9.0812,-9.0812,-9.0812,-9.0812,-9.0812,-9.104,-9.1521,-9.2005,-9.3179,-9.4319,-9.5259,-7.1447,-7.1202,-6.9981,-6.8923,-6.8055,-6.781,-6.7783,-6.7865,-6.7892,-6.7865,-6.8192,-6.9747,-6.9551,-7.0385,-7.2171,-7.3011,-7.4526,-7.7196,-7.8513,-7.9324,-8.0001,-8.0555,-8.0894,-8.1048,-8.1263,-8.1817,-8.271,-8.351,-8.4342,-8.4711,-8.4957,-8.5019,-8.4957,-8.4896,-8.4711,-8.428,-8.3449,-8.2772,-8.2125,-8.1664,-8.0832,-8.0032,-7.9731,-7.9515,-7.9423,-7.9594,-7.9929,-8.0626,-8.1537,-8.314,-8.5276,-8.6858,-8.7885,-8.9152,-8.9534,-8.995,-9.0226,-9.0502,-9.0709,-9.0674,-9.0743,-9.0812,-9.0812,-9.0812,-9.0812,-9.0502,-8.9881,-8.9174,-8.8364,-8.7606,-8.6864,-8.6329,-8.6329,-8.6363,-8.6363,-8.6363,-8.6363,-8.6363,-8.6363,-8.6363,-8.6329,-8.6329,-8.6294,-8.6294,-8.6294,-8.6294,-8.6294,-8.6294,-8.6294,-8.6294,-8.6294,-8.6294,-8.6294,-8.6294,-8.6294,-8.6294,-8.6294,-8.6294,-8.6432,-8.7294,-8.8191,-8.9088,-8.9916,-9.0536,-9.0812,-9.0812,-9.0812,-9.0812,-9.0812,-9.0812,-9.1092,-9.1689,-9.3132,-9.4231,-9.5006,-7.1202,-7.0605,-6.8977,-6.8353,-6.8407,-6.762,-6.7458,-6.7865,-6.7892,-6.7892,-6.8524,-7.0752,-7.1841,-7.1625,-7.2243,-7.358,-7.6146,-7.8127,-7.9097,-7.9971,-8.0463,-8.0832,-8.1079,-8.1233,-8.1787,-8.2587,-8.3418,-8.4157,-8.4434,-8.4803,-8.4773,-8.4342,-8.4311,-8.4065,-8.3541,-8.3203,-8.2987,-8.2464,-8.2125,-8.1664,-8.1263,-8.0809,-8.0977,-8.1021,-8.1158,-8.1361,-8.1901,-8.3061,-8.3707,-8.4962,-8.6754,-8.8549,-8.9434,-8.9997,-9.0346,-9.0433,-9.0709,-9.0743,-9.0812,-9.0812,-9.0812,-9.0812,-9.0812,-9.0812,-9.0812,-9.0778,-9.0192,-8.964,-8.8864,-8.802,-8.7313,-8.6674,-8.6467,-8.657,-8.6605,-8.6605,-8.6605,-8.657,-8.6536,-8.6467,-8.6398,-8.6363,-8.6294,-8.6294,-8.6294,-8.6294,-8.6294,-8.6294,-8.6294,-8.6294,-8.6294,-8.6294,-8.6294,-8.6294,-8.6294,-8.6294,-8.6294,-8.6294,-8.6536,-8.7363,-8.8226,-8.9122,-8.9916,-9.0571,-9.0812,-9.0812,-9.0812,-9.0812,-9.0812,-9.0812,-9.0812,-9.1418,-9.2943,-9.4097,-9.4835]},{"header":{"parameterUnit":"m.s-1","parameterCategory":1,"la1":31.0,"la2":29.5877,"lo1":-88.7671,"lo2":-86.6584,"dx":0.0162,"dy":0.0185,"nx":115,"ny":88,"refTime":"2022-12-11T06:00:00:Z","depth":0,"parameterNumber":3,"parameterNumberName":"V-component_of_WINDS"},"data":[0.0,0.0,0.0,0.0,0.0,0.0,0.0,0.0,0.0,0.0,0.0,0.0,0.0,0.0,0.0,0.0,0.0,0.0,0.0,0.0,0.0,0.0,0.0,0.0,0.0,0.0,0.0,0.0,0.0,0.0,0.0,0.0,0.0,0.0,0.0,0.0,0.0,0.0,0.0,0.0,0.0,0.0,0.0,0.0,0.0,0.0,0.0,0.0,0.0,0.0,0.0,0.0,0.0,0.0,0.0,0.0,0.0,0.0,0.0,0.0,0.0,0.0,0.0,0.0,0.0,0.0,0.0,0.0,0.0,0.0,0.0,0.0,0.0,0.0,0.0,0.0,0.0,0.0,0.0,0.0,0.0,0.0,0.0,0.0,0.0,0.0,0.0,0.0,0.0,0.0,0.0,0.0,0.0,0.0,0.0,0.0,0.0,0.0,0.0,0.0,0.0,0.0,0.0,0.0,0.0,0.0,0.0,0.0,0.0,0.0,0.0,0.0,0.0,0.0,0.0,0.0,0.0,0.0,0.0,0.0,0.0,0.0,0.0,0.0,0.0,0.0,0.0,0.0,0.0,0.0,0.0,0.0,0.0,0.0,0.0,0.0,0.0,0.0,0.0,0.0,0.0,0.0,0.0,0.0,0.0,0.0,0.0,0.0,0.0,0.0,0.0,0.0,0.0,0.0,0.0,0.0,0.0,0.0,0.0,0.0,0.0,0.0,0.0,0.0,0.0,0.0,0.0,0.0,0.0,0.0,0.0,0.0,0.0,0.0,0.0,0.0,0.0,0.0,0.0,0.0,0.0,0.0,0.0,0.0,0.0,0.0,0.0,0.0,0.0,0.0,0.0,0.0,0.0,0.0,0.0,0.0,0.0,0.0,0.0,0.0,0.0,0.0,0.0,0.0,0.0,0.0,0.0,0.0,0.0,0.0,0.0,0.0,0.0,0.0,0.0,0.0,0.0,0.0,0.0,0.0,0.0,0.0,0.0,0.0,0.0,0.0,0.0,0.0,0.0,0.0,0.0,0.0,0.0,0.0,0.0,0.0,0.0,0.0,0.0,0.0,0.0,0.0,0.0,0.0,0.0,0.0,0.0,0.0,0.0,0.0,0.0,0.0,0.0,0.0,0.0,0.0,0.0,0.0,0.0,0.0,0.0,0.0,0.0,0.0,0.0,0.0,0.0,0.0,0.0,0.0,0.0,0.0,0.0,0.0,0.0,0.0,0.0,0.0,0.0,0.0,0.0,0.0,0.0,0.0,0.0,0.0,0.0,0.0,0.0,0.0,0.0,0.0,0.0,0.0,0.0,0.0,0.0,0.0,0.0,0.0,0.0,0.0,0.0,0.0,0.0,0.0,0.0,0.0,0.0,0.0,0.0,0.0,0.0,0.0,0.0,0.0,0.0,0.0,0.0,0.0,0.0,0.0,0.0,0.0,0.0,0.0,0.0,0.0,0.0,0.0,0.0,0.0,0.0,0.0,0.0,0.0,0.0,0.0,0.0,0.0,0.0,0.0,0.0,0.0,0.0,0.0,0.0,0.0,0.0,0.0,0.0,0.0,0.0,0.0,0.0,0.0,0.0,0.0,0.0,0.0,0.0,0.0,0.0,0.0,0.0,0.0,0.0,0.0,0.0,0.0,0.0,0.0,0.0,0.0,0.0,0.0,0.0,0.0,0.0,0.0,0.0,0.0,0.0,0.0,0.0,0.0,0.0,0.0,0.0,0.0,0.0,0.0,0.0,0.0,0.0,0.0,0.0,0.0,0.0,0.0,0.0,0.0,0.0,0.0,0.0,0.0,0.0,0.0,0.0,0.0,0.0,0.0,0.0,0.0,0.0,0.0,0.0,0.0,0.0,0.0,0.0,0.0,0.0,0.0,0.0,0.0,0.0,0.0,0.0,0.0,0.0,0.0,0.0,0.0,0.0,0.0,0.0,0.0,0.0,0.0,0.0,0.0,0.0,0.0,0.0,0.0,0.0,0.0,0.0,0.0,0.0,0.0,0.0,0.0,0.0,0.0,0.0,0.0,0.0,0.0,0.0,0.0,0.0,0.0,0.0,0.0,0.0,0.0,0.0,0.0,0.0,0.0,0.0,0.0,0.0,0.0,0.0,0.0,0.0,0.0,0.0,0.0,0.0,0.0,0.0,0.0,0.0,0.0,0.0,0.0,0.0,0.0,0.0,0.0,0.0,0.0,0.0,0.0,0.0,0.0,0.0,0.0,0.0,0.0,0.0,0.0,0.0,0.0,0.0,0.0,0.0,0.0,0.0,0.0,0.0,0.0,0.0,0.0,0.0,0.0,0.0,0.0,0.0,0.0,0.0,0.0,0.0,0.0,0.0,0.0,0.0,0.0,0.0,0.0,0.0,0.0,0.0,0.0,0.0,0.0,0.0,0.0,0.0,0.0,0.0,0.0,0.0,0.0,0.0,0.0,0.0,0.0,0.0,0.0,0.0,0.0,0.0,0.0,0.0,0.0,0.0,0.0,0.0,0.0,0.0,0.0,0.0,0.0,0.0,0.0,0.0,0.0,0.0,0.0,0.0,0.0,0.0,0.0,0.0,0.0,0.0,0.0,0.0,0.0,0.0,0.0,0.0,0.0,0.0,0.0,0.0,0.0,0.0,0.0,0.0,0.0,0.0,0.0,0.0,0.0,0.0,0.0,0.0,0.0,0.0,0.0,0.0,0.0,0.0,0.0,0.0,0.0,0.0,0.0,0.0,0.0,0.0,0.0,0.0,0.0,0.0,0.0,0.0,0.0,0.0,0.0,0.0,0.0,0.0,0.0,0.0,0.0,0.0,0.0,0.0,0.0,0.0,0.0,0.0,0.0,0.0,0.0,0.0,0.0,0.0,0.0,0.0,0.0,0.0,0.0,0.0,0.0,0.0,0.0,0.0,0.0,0.0,0.0,0.0,0.0,0.0,0.0,0.0,0.0,0.0,0.0,0.0,0.0,0.0,0.0,0.0,0.0,0.0,0.0,0.0,0.0,0.0,0.0,0.0,0.0,0.0,0.0,0.0,0.0,0.0,0.0,0.0,0.0,0.0,0.0,0.0,0.0,0.0,0.0,0.0,0.0,0.0,0.0,0.0,0.0,0.0,0.0,0.0,0.0,0.0,0.0,0.0,0.0,0.0,0.0,0.0,0.0,0.0,0.0,0.0,0.0,0.0,0.0,0.0,0.0,0.0,0.0,0.0,0.0,0.0,0.0,0.0,0.0,0.0,0.0,0.0,0.0,0.0,0.0,0.0,0.0,0.0,0.0,0.0,0.0,0.0,0.0,0.0,0.0,0.0,0.0,0.0,0.0,0.0,0.0,0.0,0.0,0.0,0.0,0.0,0.0,0.0,0.0,0.0,0.0,0.0,0.0,0.0,0.0,0.0,0.0,0.0,0.0,0.0,0.0,0.0,0.0,0.0,0.0,0.0,0.0,0.0,0.0,0.0,0.0,0.0,0.0,0.0,0.0,0.0,0.0,0.0,0.0,0.0,0.0,0.0,0.0,0.0,0.0,0.0,0.0,0.0,0.0,0.0,0.0,0.0,0.0,0.0,0.0,0.0,0.0,0.0,0.0,0.0,0.0,0.0,0.0,0.0,0.0,0.0,0.0,0.0,0.0,0.0,0.0,0.0,0.0,0.0,0.0,0.0,0.0,0.0,0.0,0.0,0.0,0.0,0.0,0.0,0.0,0.0,0.0,0.0,0.0,0.0,0.0,0.0,0.0,0.0,0.0,0.0,0.0,0.0,0.0,0.0,0.0,0.0,0.0,0.0,0.0,0.0,0.0,0.0,0.0,0.0,0.0,0.0,0.0,0.0,0.0,0.0,0.0,0.0,0.0,0.0,0.0,0.0,0.0,0.0,0.0,0.0,0.0,0.0,0.0,0.0,0.0,0.0,0.0,0.0,0.0,0.0,0.0,0.0,0.0,0.0,0.0,0.0,0.0,0.0,0.0,0.0,0.0,0.0,0.0,0.0,0.0,0.0,0.0,0.0,0.0,0.0,0.0,0.0,0.0,0.0,0.0,0.0,0.0,0.0,0.0,0.0,0.0,0.0,0.0,0.0,0.0,0.0,0.0,0.0,0.0,0.0,0.0,0.0,0.0,0.0,0.0,0.0,0.0,0.0,0.0,0.0,0.0,0.0,0.0,0.0,0.0,0.0,0.0,0.0,0.0,0.0,0.0,0.0,0.0,0.0,0.0,0.0,0.0,0.0,0.0,0.0,0.0,0.0,0.0,0.0,0.0,0.0,0.0,-1.1674,0.0,0.0,0.0,-0.9187,0.0,0.0,0.0,0.0,0.0,0.0,0.0,0.0,0.0,0.0,0.0,0.0,0.0,0.0,0.0,0.0,0.0,0.0,0.0,0.0,0.0,0.0,0.0,0.0,0.0,0.0,0.0,0.0,0.0,0.0,0.0,0.0,0.0,0.0,0.0,0.0,0.0,0.0,0.0,0.0,0.0,0.0,0.0,0.0,0.0,0.0,0.0,0.0,0.0,0.0,0.0,0.0,0.0,0.0,0.0,0.0,0.0,0.0,0.0,0.0,0.0,0.0,0.0,0.0,0.0,0.0,0.0,0.0,0.0,0.0,0.0,0.0,0.0,0.0,0.0,0.0,0.0,0.0,0.0,0.0,0.0,0.0,0.0,0.0,0.0,0.0,0.0,0.0,0.0,0.0,0.0,0.0,0.0,0.0,0.0,0.0,0.0,0.0,0.0,0.0,0.0,0.0,0.0,0.0,0.0,0.0,0.0,0.0,0.0,0.0,-1.2565,-1.2565,-1.1185,-1.0407,-1.0376,0.0,0.0,0.0,0.0,0.0,0.0,0.0,0.0,0.0,0.0,0.0,0.0,0.0,0.0,0.0,0.0,0.0,0.0,0.0,0.0,0.0,0.0,0.0,0.0,0.0,0.0,0.0,0.0,0.0,0.0,0.0,0.0,0.0,0.0,0.0,0.0,0.0,0.0,0.0,0.0,0.0,0.0,0.0,0.0,0.0,0.0,0.0,0.0,0.0,0.0,0.0,0.0,0.0,0.0,0.0,0.0,0.0,0.0,0.0,0.0,0.0,0.0,0.0,0.0,0.0,0.0,0.0,0.0,0.0,0.0,0.0,0.0,0.0,0.0,0.0,0.0,0.0,0.0,0.0,0.0,0.0,0.0,0.0,0.0,0.0,0.0,0.0,0.0,0.0,0.0,0.0,0.0,0.0,0.0,0.0,0.0,0.0,0.0,0.0,0.0,0.0,0.0,0.0,0.0,0.0,0.0,0.0,0.0,0.0,0.0,0.0,0.0,-1.2043,-1.1423,-1.1236,0.0,0.0,0.0,0.0,0.0,0.0,0.0,0.0,0.0,0.0,0.0,0.0,0.0,0.0,0.0,0.0,0.0,0.0,0.0,0.0,0.0,0.0,0.0,0.0,0.0,0.0,0.0,0.0,0.0,0.0,0.0,0.0,0.0,0.0,0.0,0.0,0.0,0.0,0.0,0.0,0.0,0.0,0.0,0.0,0.0,0.0,0.0,0.0,0.0,0.0,0.0,0.0,0.0,0.0,0.0,0.0,0.0,0.0,0.0,0.0,0.0,0.0,0.0,0.0,0.0,0.0,0.0,0.0,0.0,0.0,0.0,0.0,0.0,0.0,0.0,0.0,0.0,0.0,0.0,0.0,0.0,0.0,0.0,0.0,0.0,0.0,0.0,0.0,0.0,0.0,0.0,0.0,0.0,0.0,0.0,0.0,0.0,0.0,0.0,0.0,0.0,0.0,0.0,0.0,0.0,0.0,0.0,0.0,0.0,0.0,-1.2289,-1.1703,-1.1578,0.0,-1.0604,0.0,0.0,0.0,0.0,0.0,0.0,0.0,0.0,0.0,0.0,0.0,0.0,0.0,0.0,0.0,0.0,0.0,0.0,0.0,0.0,0.0,0.0,0.0,0.0,0.0,0.0,0.0,0.0,0.0,0.0,0.0,0.0,0.0,0.0,0.0,0.0,0.0,0.0,0.0,0.0,0.0,0.0,0.0,0.0,0.0,0.0,0.0,0.0,0.0,0.0,0.0,0.0,0.0,0.0,0.0,0.0,0.0,0.0,0.0,0.0,0.0,0.0,0.0,0.0,0.0,0.0,0.0,0.0,0.0,0.0,0.0,0.0,0.0,0.0,0.0,0.0,0.0,0.0,0.0,0.0,0.0,0.0,0.0,0.0,0.0,0.0,0.0,0.0,0.0,0.0,0.0,0.0,0.0,0.0,0.0,0.0,0.0,0.0,0.0,0.0,0.0,0.0,0.0,0.0,0.0,0.0,0.0,0.0,0.0,0.0,-1.3454,-1.3413,-1.279,-1.1831,0.0,0.0,0.0,0.0,0.0,0.0,0.0,0.0,0.0,0.0,0.0,0.0,0.0,0.0,0.0,0.0,0.0,0.0,0.0,0.0,0.0,0.0,0.0,0.0,0.0,0.0,0.0,0.0,0.0,0.0,0.0,0.0,0.0,0.0,0.0,0.0,0.0,0.0,0.0,0.0,0.0,0.0,0.0,0.0,0.0,0.0,0.0,0.0,0.0,0.0,0.0,0.0,0.0,0.0,0.0,0.0,0.0,0.0,0.0,0.0,0.0,0.0,0.0,0.0,0.0,0.0,0.0,0.0,0.0,0.0,0.0,0.0,0.0,0.0,0.0,0.0,0.0,0.0,0.0,0.0,0.0,0.0,0.0,0.0,0.0,0.0,0.0,0.0,0.0,0.0,0.0,0.0,0.0,0.0,0.0,0.0,0.0,0.0,0.0,0.0,0.0,0.0,0.0,0.0,0.0,0.0,0.0,0.0,0.0,0.0,-1.4196,-1.4433,-1.4641,-1.3478,-1.2328,-1.1249,0.0,0.0,0.0,0.0,0.0,0.0,0.0,0.0,0.0,0.0,0.0,0.0,0.0,0.0,0.0,0.0,0.0,0.0,0.0,0.0,0.0,0.0,0.0,0.0,0.0,0.0,0.0,0.0,0.0,0.0,0.0,0.0,0.0,0.0,0.0,0.0,0.0,0.0,0.0,0.0,0.0,0.0,0.0,0.0,0.0,0.0,0.0,0.0,0.0,0.0,0.0,0.0,0.0,0.0,0.0,0.0,0.0,0.0,0.0,0.0,0.0,0.0,0.0,0.0,0.0,0.0,0.0,0.0,0.0,0.0,0.0,0.0,0.0,0.0,0.0,0.0,0.0,0.0,0.0,0.0,0.0,0.0,0.0,0.0,0.0,0.0,0.0,0.0,0.0,0.0,0.0,0.0,0.0,0.0,0.0,0.0,0.0,0.0,0.0,0.0,0.0,0.0,0.0,0.0,0.0,0.0,0.0,0.0,-1.4127,-1.447,-1.4708,-1.4692,-1.3056,-1.2402,0.0,0.0,0.0,0.0,0.0,0.0,0.0,0.0,0.0,0.0,0.0,0.0,0.0,0.0,0.0,0.0,0.0,0.0,0.0,0.0,0.0,0.0,0.0,0.0,0.0,0.0,0.0,0.0,0.0,0.0,0.0,0.0,0.0,0.0,0.0,0.0,0.0,0.0,0.0,0.0,0.0,0.0,0.0,0.0,0.0,0.0,0.0,0.0,0.0,0.0,0.0,0.0,0.0,0.0,0.0,0.0,0.0,0.0,0.0,0.0,0.0,0.0,0.0,0.0,0.0,0.0,0.0,0.0,0.0,0.0,0.0,0.0,0.0,0.0,0.0,0.0,0.0,0.0,0.0,0.0,0.0,0.0,0.0,0.0,0.0,0.0,0.0,0.0,0.0,0.0,0.0,0.0,0.0,0.0,0.0,0.0,0.0,0.0,0.0,0.0,0.0,0.0,0.0,0.0,0.0,0.0,0.0,0.0,0.0,-1.4795,-1.5189,-1.5274,-1.5001,-1.4396,-1.3769,0.0,0.0,0.0,0.0,0.0,0.0,0.0,0.0,0.0,0.0,0.0,0.0,0.0,0.0,0.0,0.0,0.0,0.0,0.0,0.0,0.0,0.0,0.0,0.0,0.0,0.0,0.0,0.0,0.0,0.0,0.0,0.0,0.0,0.0,0.0,0.0,0.0,0.0,0.0,0.0,0.0,0.0,0.0,0.0,0.0,0.0,0.0,0.0,0.0,0.0,0.0,0.0,0.0,0.0,0.0,0.0,0.0,0.0,0.0,0.0,0.0,0.0,0.0,0.0,0.0,0.0,0.0,0.0,0.0,0.0,0.0,0.0,0.0,0.0,0.0,0.0,0.0,0.0,0.0,0.0,0.0,0.0,0.0,0.0,0.0,0.0,0.0,0.0,0.0,0.0,0.0,0.0,0.0,0.0,0.0,0.0,0.0,0.0,0.0,0.0,0.0,0.0,0.0,0.0,0.0,0.0,0.0,0.0,0.0,-1.5548,-1.6031,-1.61,-1.5771,-1.5531,-1.49,0.0,0.0,0.0,0.0,0.0,0.0,0.0,0.0,0.0,0.0,0.0,0.0,0.0,0.0,0.0,0.0,0.0,0.0,0.0,0.0,0.0,0.0,0.0,0.0,0.0,0.0,0.0,0.0,0.0,0.0,0.0,0.0,0.0,0.0,0.0,0.0,0.0,0.0,0.0,0.0,0.0,0.0,0.0,0.0,0.0,0.0,0.0,0.0,0.0,0.0,0.0,0.0,0.0,0.0,0.0,0.0,0.0,0.0,0.0,0.0,0.0,0.0,0.0,0.0,0.0,0.0,0.0,0.0,0.0,0.0,0.0,0.0,0.0,0.0,0.0,0.0,0.0,0.0,0.0,0.0,0.0,0.0,0.0,0.0,0.0,0.0,0.0,0.0,0.0,0.0,0.0,0.0,0.0,0.0,0.0,0.0,0.0,0.0,0.0,0.0,0.0,0.0,0.0,0.0,0.0,0.0,0.0,0.0,-1.5826,-1.6392,-1.6882,-1.7038,-1.6884,-1.6182,-1.5617,0.0,0.0,0.0,0.0,0.0,0.0,0.0,0.0,0.0,0.0,0.0,0.0,0.0,0.0,0.0,0.0,0.0,0.0,0.0,0.0,0.0,0.0,0.0,0.0,0.0,0.0,0.0,0.0,0.0,0.0,0.0,0.0,0.0,0.0,0.0,0.0,0.0,0.0,0.0,0.0,0.0,0.0,0.0,0.0,0.0,0.0,0.0,0.0,0.0,0.0,0.0,0.0,0.0,0.0,0.0,0.0,0.0,0.0,0.0,0.0,0.0,0.0,0.0,0.0,0.0,0.0,0.0,0.0,0.0,0.0,0.0,0.0,0.0,0.0,0.0,0.0,0.0,0.0,0.0,0.0,0.0,0.0,0.0,0.0,0.0,0.0,0.0,0.0,0.0,0.0,0.0,0.0,0.0,0.0,0.0,0.0,0.0,0.0,0.0,0.0,0.0,0.0,0.0,0.0,0.0,0.0,0.0,0.0,0.0,-1.6747,-1.6888,-1.6956,-1.6901,-1.6439,-1.6011,0.0,0.0,0.0,0.0,0.0,0.0,0.0,0.0,0.0,0.0,0.0,0.0,0.0,0.0,0.0,0.0,0.0,0.0,0.0,0.0,0.0,0.0,0.0,0.0,0.0,0.0,0.0,0.0,0.0,0.0,0.0,0.0,0.0,0.0,0.0,0.0,0.0,0.0,0.0,0.0,0.0,0.0,0.0,0.0,0.0,0.0,0.0,0.0,0.0,0.0,0.0,0.0,0.0,0.0,0.0,0.0,0.0,0.0,0.0,0.0,0.0,0.0,0.0,0.0,0.0,0.0,0.0,0.0,0.0,0.0,0.0,0.0,0.0,0.0,0.0,0.0,0.0,0.0,0.0,0.0,0.0,0.0,0.0,0.0,0.0,0.0,0.0,0.0,0.0,0.0,0.0,0.0,0.0,0.0,0.0,0.0,0.0,0.0,0.0,0.0,0.0,0.0,0.0,0.0,0.0,0.0,0.0,0.0,0.0,-1.8929,-1.897,-1.9011,-1.8929,-1.8481,-1.7592,-1.617,0.0,0.0,0.0,0.0,0.0,0.0,0.0,0.0,0.0,0.0,0.0,0.0,0.0,0.0,0.0,0.0,0.0,0.0,0.0,0.0,0.0,0.0,0.0,0.0,0.0,0.0,0.0,0.0,0.0,0.0,0.0,0.0,0.0,0.0,0.0,0.0,0.0,0.0,0.0,0.0,0.0,0.0,0.0,0.0,0.0,0.0,0.0,0.0,0.0,0.0,0.0,0.0,0.0,0.0,0.0,0.0,0.0,0.0,0.0,0.0,0.0,0.0,0.0,0.0,0.0,0.0,0.0,0.0,0.0,0.0,0.0,0.0,0.0,0.0,0.0,0.0,0.0,0.0,0.0,0.0,0.0,0.0,0.0,0.0,0.0,0.0,0.0,0.0,0.0,0.0,0.0,0.0,0.0,0.0,0.0,0.0,0.0,0.0,0.0,0.0,0.0,0.0,0.0,0.0,0.0,0.0,0.0,0.0,-2.256,-2.2859,-2.2859,-2.2458,-2.1737,-2.0018,0.0,0.0,0.0,0.0,0.0,0.0,0.0,0.0,0.0,0.0,0.0,0.0,0.0,0.0,0.0,0.0,0.0,0.0,0.0,0.0,0.0,0.0,0.0,0.0,0.0,0.0,0.0,0.0,0.0,0.0,0.0,0.0,0.0,0.0,0.0,0.0,0.0,0.0,0.0,0.0,0.0,0.0,0.0,0.0,0.0,0.0,0.0,0.0,0.0,0.0,0.0,0.0,0.0,0.0,0.0,0.0,0.0,0.0,0.0,0.0,0.0,0.0,0.0,0.0,0.0,0.0,0.0,0.0,0.0,0.0,0.0,0.0,0.0,0.0,0.0,0.0,0.0,0.0,0.0,0.0,0.0,0.0,0.0,0.0,0.0,0.0,0.0,0.0,0.0,0.0,0.0,0.0,0.0,0.0,0.0,0.0,0.0,0.0,0.0,0.0,0.0,0.0,0.0,0.0,0.0,0.0,0.0,0.0,0.0,-2.5844,-2.7413,-2.7153,-2.5022,-2.2669,-2.1046,0.0,0.0,0.0,0.0,0.0,0.0,0.0,0.0,0.0,0.0,0.0,0.0,0.0,0.0,0.0,0.0,0.0,0.0,0.0,0.0,0.0,0.0,0.0,0.0,0.0,0.0,0.0,0.0,0.0,0.0,0.0,0.0,0.0,0.0,0.0,0.0,0.0,0.0,0.0,0.0,0.0,0.0,0.0,0.0,0.0,0.0,0.0,0.0,0.0,0.0,0.0,0.0,0.0,0.0,0.0,0.0,0.0,0.0,0.0,0.0,0.0,0.0,0.0,0.0,0.0,0.0,0.0,0.0,0.0,0.0,0.0,0.0,0.0,0.0,0.0,0.0,0.0,0.0,0.0,0.0,0.0,0.0,0.0,0.0,0.0,0.0,0.0,0.0,0.0,0.0,0.0,0.0,0.0,0.0,0.0,0.0,0.0,0.0,0.0,0.0,0.0,0.0,0.0,0.0,0.0,0.0,0.0,0.0,-2.5436,-2.7416,-3.0406,-3.1157,-2.9523,-2.5757,-2.2979,0.0,0.0,0.0,0.0,0.0,0.0,0.0,0.0,0.0,0.0,0.0,0.0,0.0,0.0,0.0,0.0,0.0,0.0,0.0,0.0,0.0,0.0,0.0,0.0,0.0,0.0,0.0,0.0,0.0,0.0,0.0,0.0,0.0,0.0,0.0,0.0,0.0,0.0,0.0,0.0,0.0,0.0,0.0,0.0,0.0,0.0,0.0,0.0,0.0,0.0,0.0,0.0,0.0,0.0,0.0,0.0,0.0,0.0,0.0,0.0,0.0,0.0,0.0,0.0,0.0,0.0,0.0,0.0,0.0,0.0,0.0,0.0,0.0,0.0,0.0,0.0,0.0,0.0,0.0,0.0,0.0,0.0,0.0,0.0,0.0,0.0,0.0,0.0,0.0,0.0,0.0,0.0,0.0,0.0,0.0,0.0,0.0,0.0,0.0,0.0,0.0,0.0,0.0,0.0,0.0,0.0,0.0,0.0,-2.7234,-2.8226,-3.2276,-3.444,-3.4257,-2.958,-2.5432,0.0,0.0,0.0,0.0,0.0,0.0,0.0,0.0,0.0,0.0,0.0,0.0,0.0,0.0,0.0,0.0,0.0,0.0,0.0,0.0,0.0,0.0,0.0,0.0,0.0,0.0,0.0,0.0,0.0,0.0,0.0,0.0,0.0,0.0,0.0,0.0,0.0,0.0,0.0,0.0,0.0,0.0,0.0,0.0,0.0,0.0,0.0,0.0,0.0,0.0,0.0,0.0,0.0,0.0,0.0,0.0,0.0,0.0,0.0,0.0,0.0,0.0,0.0,0.0,0.0,0.0,0.0,0.0,0.0,0.0,0.0,0.0,0.0,0.0,0.0,0.0,0.0,0.0,0.0,0.0,0.0,0.0,0.0,0.0,0.0,0.0,0.0,0.0,0.0,0.0,0.0,0.0,0.0,0.0,0.0,0.0,0.0,0.0,0.0,0.0,0.0,0.0,0.0,0.0,0.0,0.0,0.0,0.0,-2.8575,-3.0589,-3.3413,-3.4733,-3.4385,-2.9836,-2.6698,0.0,0.0,0.0,0.0,0.0,0.0,0.0,0.0,0.0,0.0,0.0,0.0,0.0,0.0,0.0,0.0,0.0,0.0,0.0,0.0,0.0,0.0,0.0,0.0,0.0,0.0,0.0,0.0,0.0,0.0,0.0,0.0,0.0,0.0,0.0,0.0,0.0,0.0,0.0,0.0,0.0,0.0,0.0,0.0,0.0,0.0,0.0,0.0,-1.3626,0.0,0.0,0.0,0.0,0.0,0.0,0.0,0.0,0.0,0.0,0.0,0.0,0.0,0.0,0.0,0.0,0.0,0.0,0.0,0.0,0.0,0.0,0.0,0.0,0.0,0.0,0.0,0.0,0.0,0.0,0.0,0.0,0.0,0.0,0.0,0.0,0.0,0.0,0.0,0.0,0.0,0.0,0.0,0.0,0.0,0.0,0.0,0.0,0.0,0.0,0.0,0.0,0.0,0.0,0.0,0.0,0.0,0.0,0.0,-2.9182,-3.1891,-3.4147,-3.5284,-3.5119,-3.1559,-2.8519,0.0,0.0,0.0,0.0,0.0,0.0,0.0,0.0,0.0,0.0,0.0,0.0,0.0,0.0,0.0,0.0,0.0,0.0,0.0,0.0,0.0,0.0,0.0,0.0,0.0,0.0,0.0,0.0,0.0,0.0,0.0,0.0,0.0,0.0,0.0,0.0,0.0,0.0,0.0,0.0,0.0,0.0,0.0,0.0,0.0,0.0,0.0,0.0,0.0,0.0,0.0,0.0,0.0,0.0,0.0,0.0,0.0,0.0,0.0,0.0,0.0,0.0,0.0,0.0,0.0,0.0,0.0,0.0,0.0,0.0,0.0,0.0,0.0,0.0,0.0,0.0,0.0,0.0,0.0,0.0,0.0,0.0,0.0,0.0,0.0,0.0,0.0,0.0,0.0,0.0,0.0,0.0,0.0,0.0,0.0,0.0,0.0,0.0,0.0,0.0,0.0,0.0,0.0,0.0,0.0,0.0,0.0,-2.6609,-2.9599,-3.2955,-3.4862,-3.5944,-3.6164,-3.3541,-3.0343,-2.6572,0.0,0.0,0.0,0.0,0.0,0.0,0.0,0.0,0.0,0.0,0.0,0.0,0.0,0.0,0.0,0.0,0.0,0.0,0.0,0.0,0.0,0.0,0.0,0.0,0.0,0.0,0.0,0.0,0.0,0.0,0.0,0.0,0.0,0.0,0.0,0.0,0.0,0.0,-1.5943,-1.6076,0.0,0.0,0.0,0.0,0.0,0.0,0.0,0.0,-1.5156,0.0,0.0,0.0,0.0,0.0,0.0,0.0,0.0,0.0,0.0,0.0,0.0,0.0,0.0,0.0,0.0,0.0,0.0,0.0,0.0,0.0,0.0,0.0,0.0,0.0,0.0,0.0,0.0,0.0,0.0,0.0,0.0,0.0,0.0,0.0,0.0,0.0,0.0,0.0,0.0,0.0,0.0,0.0,0.0,0.0,0.0,0.0,0.0,0.0,0.0,0.0,0.0,0.0,0.0,0.0,0.0,-2.6041,-2.7875,-3.0846,-3.5009,-3.6035,-3.6494,-3.6164,-3.3798,-3.0956,-2.7673,0.0,0.0,0.0,0.0,0.0,0.0,0.0,0.0,0.0,0.0,0.0,0.0,0.0,0.0,0.0,0.0,0.0,0.0,0.0,0.0,0.0,0.0,0.0,0.0,0.0,0.0,0.0,0.0,0.0,0.0,0.0,0.0,0.0,0.0,0.0,0.0,0.0,0.0,0.0,-1.911,-1.8625,0.0,0.0,0.0,0.0,0.0,0.0,0.0,0.0,-1.7381,0.0,0.0,0.0,0.0,0.0,0.0,0.0,0.0,0.0,0.0,0.0,0.0,0.0,0.0,0.0,0.0,0.0,0.0,0.0,0.0,0.0,0.0,0.0,0.0,0.0,0.0,0.0,0.0,0.0,0.0,0.0,0.0,0.0,0.0,0.0,0.0,0.0,0.0,0.0,0.0,0.0,0.0,0.0,0.0,0.0,0.0,0.0,0.0,0.0,0.0,0.0,0.0,0.0,0.0,0.0,-2.7788,-3.0063,-3.2826,-3.6127,-3.6824,-3.7044,-3.6787,-3.4092,-3.1267,0.0,0.0,0.0,0.0,0.0,0.0,0.0,0.0,0.0,0.0,0.0,0.0,0.0,0.0,0.0,0.0,0.0,0.0,0.0,0.0,0.0,0.0,0.0,0.0,0.0,0.0,0.0,0.0,0.0,0.0,0.0,0.0,0.0,0.0,0.0,0.0,0.0,0.0,0.0,0.0,-2.1563,-2.1799,-2.4432,0.0,0.0,0.0,0.0,0.0,0.0,-1.9852,-1.9499,0.0,0.0,0.0,0.0,0.0,0.0,0.0,0.0,0.0,0.0,0.0,0.0,0.0,0.0,0.0,0.0,0.0,0.0,0.0,0.0,0.0,0.0,0.0,0.0,0.0,0.0,0.0,0.0,0.0,0.0,0.0,0.0,0.0,0.0,0.0,0.0,0.0,0.0,0.0,0.0,0.0,0.0,0.0,0.0,0.0,0.0,0.0,0.0,0.0,0.0,0.0,0.0,0.0,0.0,0.0,-2.9218,-3.2147,-3.4741,-3.6952,-3.7374,-3.7539,-3.7466,-3.4018,-3.1121,0.0,0.0,0.0,0.0,0.0,0.0,0.0,0.0,0.0,0.0,0.0,0.0,0.0,0.0,0.0,0.0,0.0,0.0,0.0,0.0,0.0,0.0,0.0,0.0,0.0,0.0,0.0,0.0,0.0,0.0,0.0,0.0,0.0,0.0,0.0,0.0,0.0,0.0,0.0,0.0,0.0,-2.4666,-2.7068,-2.6114,0.0,0.0,0.0,0.0,-2.2037,-2.2209,0.0,0.0,0.0,0.0,0.0,0.0,0.0,0.0,0.0,0.0,0.0,0.0,0.0,0.0,0.0,0.0,0.0,0.0,0.0,0.0,0.0,0.0,0.0,0.0,0.0,0.0,0.0,0.0,0.0,0.0,0.0,0.0,0.0,0.0,0.0,0.0,0.0,0.0,0.0,0.0,0.0,0.0,0.0,0.0,0.0,0.0,0.0,0.0,0.0,0.0,0.0,0.0,0.0,0.0,0.0,0.0,-2.9679,-3.3345,-3.6093,-3.7763,-3.7924,-3.7943,-3.7869,-3.3101,-3.0002,0.0,0.0,0.0,0.0,0.0,0.0,0.0,0.0,0.0,0.0,0.0,0.0,0.0,0.0,0.0,0.0,0.0,0.0,0.0,0.0,0.0,0.0,0.0,0.0,0.0,0.0,0.0,0.0,0.0,0.0,0.0,0.0,0.0,0.0,0.0,0.0,0.0,0.0,0.0,0.0,0.0,-2.5509,-2.793,-2.7178,-2.5919,0.0,0.0,-2.7771,-2.466,-2.6604,0.0,0.0,0.0,0.0,0.0,0.0,0.0,0.0,0.0,0.0,0.0,0.0,0.0,0.0,0.0,0.0,0.0,0.0,0.0,0.0,0.0,0.0,0.0,0.0,0.0,0.0,0.0,0.0,0.0,0.0,0.0,0.0,0.0,0.0,0.0,0.0,0.0,0.0,0.0,0.0,0.0,0.0,0.0,0.0,0.0,0.0,0.0,0.0,0.0,0.0,0.0,0.0,0.0,0.0,0.0,-3.0556,-3.221,-3.6876,-3.9763,-4.0732,-4.1028,-4.1166,-4.1223,-3.5751,-3.2111,0.0,0.0,0.0,0.0,0.0,0.0,0.0,0.0,0.0,0.0,0.0,0.0,0.0,0.0,0.0,0.0,0.0,0.0,0.0,0.0,0.0,0.0,0.0,0.0,0.0,0.0,0.0,0.0,0.0,0.0,0.0,0.0,0.0,0.0,0.0,0.0,0.0,0.0,0.0,0.0,0.0,0.0,-2.8553,-2.8682,0.0,0.0,0.0,-2.9232,-2.6208,0.0,0.0,0.0,0.0,0.0,0.0,0.0,0.0,0.0,0.0,0.0,0.0,0.0,0.0,0.0,0.0,0.0,0.0,0.0,0.0,0.0,0.0,0.0,0.0,0.0,0.0,0.0,0.0,0.0,0.0,0.0,0.0,0.0,0.0,0.0,0.0,0.0,0.0,0.0,0.0,0.0,0.0,0.0,0.0,0.0,0.0,0.0,0.0,0.0,0.0,0.0,0.0,0.0,0.0,0.0,0.0,0.0,-3.4224,-3.9707,-4.2763,-4.3214,-4.3491,-4.3753,-4.3725,-3.8615,0.0,0.0,0.0,0.0,0.0,0.0,0.0,0.0,0.0,0.0,0.0,0.0,0.0,0.0,0.0,0.0,0.0,0.0,0.0,0.0,0.0,0.0,0.0,0.0,0.0,0.0,0.0,-1.7825,0.0,0.0,0.0,0.0,0.0,0.0,0.0,0.0,0.0,0.0,0.0,0.0,0.0,0.0,-2.8902,-2.9489,-3.0185,-3.0717,0.0,0.0,-3.0549,-2.8691,-3.1285,-3.1804,0.0,0.0,0.0,0.0,0.0,0.0,0.0,0.0,0.0,0.0,0.0,0.0,0.0,0.0,0.0,0.0,0.0,0.0,0.0,0.0,0.0,0.0,0.0,0.0,0.0,0.0,0.0,0.0,-1.9261,-1.8442,0.0,0.0,0.0,0.0,0.0,0.0,0.0,0.0,0.0,0.0,0.0,0.0,0.0,0.0,0.0,0.0,0.0,0.0,0.0,0.0,0.0,0.0,0.0,0.0,-3.4092,-3.4719,-4.0538,-4.3769,-4.4029,-4.4132,-4.4251,-4.4189,-4.0842,-3.7252,0.0,0.0,0.0,0.0,0.0,0.0,0.0,0.0,0.0,0.0,0.0,0.0,0.0,0.0,0.0,0.0,0.0,0.0,0.0,0.0,0.0,0.0,0.0,0.0,0.0,0.0,0.0,0.0,0.0,0.0,0.0,0.0,0.0,0.0,0.0,0.0,0.0,0.0,0.0,0.0,0.0,-2.991,-3.1047,-3.1598,-3.2551,0.0,-3.3413,-3.2681,-3.3215,-3.4743,-3.4108,-2.8742,0.0,0.0,0.0,0.0,0.0,0.0,0.0,0.0,0.0,0.0,0.0,0.0,0.0,0.0,0.0,0.0,0.0,0.0,0.0,0.0,0.0,0.0,0.0,0.0,0.0,-2.0914,-2.0836,0.0,-2.0095,0.0,0.0,0.0,0.0,0.0,0.0,0.0,0.0,0.0,0.0,0.0,0.0,0.0,0.0,0.0,0.0,0.0,0.0,0.0,0.0,0.0,0.0,0.0,0.0,-3.529,-3.6162,-4.2388,-4.615,-4.7118,-4.7259,-4.7547,-4.8167,-4.4546,-4.0537,0.0,0.0,0.0,0.0,0.0,0.0,0.0,0.0,0.0,0.0,0.0,0.0,0.0,0.0,0.0,0.0,0.0,0.0,0.0,0.0,0.0,0.0,0.0,0.0,0.0,0.0,0.0,0.0,-2.3859,-2.3987,-2.2693,0.0,0.0,0.0,0.0,0.0,0.0,0.0,0.0,0.0,0.0,-3.1121,-3.3321,-3.3963,0.0,0.0,-3.5064,-3.4375,-3.3218,-3.4655,-3.4125,-2.9102,-2.8031,0.0,0.0,0.0,0.0,0.0,0.0,0.0,0.0,0.0,0.0,0.0,0.0,0.0,0.0,0.0,0.0,0.0,0.0,0.0,0.0,0.0,0.0,0.0,0.0,0.0,0.0,0.0,0.0,0.0,0.0,0.0,0.0,0.0,0.0,0.0,0.0,0.0,0.0,0.0,0.0,0.0,0.0,0.0,0.0,0.0,0.0,0.0,0.0,0.0,0.0,0.0,0.0,-3.5864,-3.7002,-4.3372,-4.739,-4.886,-4.9181,-4.9686,-5.0306,-4.7666,-4.4117,-3.9809,0.0,0.0,0.0,0.0,0.0,0.0,0.0,0.0,0.0,0.0,0.0,0.0,0.0,0.0,0.0,0.0,0.0,0.0,0.0,0.0,0.0,0.0,0.0,0.0,0.0,0.0,0.0,-2.5142,-2.5124,-2.3645,0.0,0.0,0.0,0.0,0.0,0.0,0.0,0.0,0.0,0.0,-3.2533,-3.4403,-3.4807,-3.499,-3.521,-3.4972,-3.4345,-3.3132,-3.4066,-3.3731,-3.0393,0.0,0.0,0.0,0.0,0.0,0.0,0.0,0.0,0.0,0.0,0.0,0.0,0.0,0.0,0.0,0.0,0.0,0.0,0.0,0.0,0.0,0.0,0.0,0.0,0.0,0.0,0.0,-2.4015,0.0,0.0,-2.3385,0.0,0.0,0.0,0.0,0.0,0.0,0.0,0.0,0.0,0.0,0.0,0.0,0.0,0.0,0.0,0.0,0.0,0.0,0.0,0.0,0.0,0.0,-3.5588,-3.7025,-4.3096,-4.6908,-4.84,-4.9365,-4.9893,-4.9939,-4.9801,-4.7849,-4.3674,0.0,0.0,0.0,0.0,0.0,0.0,0.0,0.0,0.0,0.0,0.0,0.0,0.0,0.0,0.0,0.0,0.0,0.0,0.0,0.0,0.0,0.0,0.0,0.0,0.0,0.0,-2.1071,-2.2419,-2.3627,0.0,0.0,0.0,0.0,0.0,0.0,0.0,0.0,0.0,-2.8315,-3.1818,-3.4183,-3.3908,-3.3541,-3.3688,-3.4422,-3.2881,-3.2084,-3.3572,-3.3511,-3.3255,0.0,0.0,0.0,0.0,0.0,0.0,0.0,0.0,0.0,0.0,0.0,0.0,0.0,0.0,0.0,0.0,0.0,0.0,0.0,0.0,0.0,0.0,0.0,0.0,0.0,0.0,0.0,-2.6347,-2.6304,0.0,0.0,0.0,0.0,0.0,0.0,0.0,0.0,0.0,0.0,0.0,-3.3476,-3.3499,0.0,0.0,0.0,0.0,0.0,0.0,0.0,0.0,0.0,0.0,0.0,0.0,-3.6874,-3.8275,-4.4038,-4.7689,-4.8837,-4.9204,-4.9709,-5.0352,-4.9732,-4.7482,-4.3441,0.0,0.0,0.0,0.0,0.0,0.0,0.0,0.0,0.0,0.0,0.0,0.0,0.0,0.0,0.0,0.0,0.0,0.0,0.0,0.0,0.0,0.0,0.0,0.0,0.0,-2.4299,0.0,0.0,0.0,0.0,0.0,0.0,0.0,0.0,0.0,0.0,-2.6958,-2.8773,-3.0901,-3.1891,-3.2936,-3.4403,-3.4733,-3.5284,0.0,0.0,0.0,0.0,0.0,0.0,0.0,0.0,0.0,0.0,0.0,0.0,0.0,-2.6055,-2.3926,-2.0135,-2.0469,-2.1017,-1.9861,0.0,0.0,0.0,0.0,0.0,0.0,0.0,0.0,0.0,0.0,0.0,0.0,0.0,0.0,-3.1128,-3.0992,-2.9724,0.0,0.0,0.0,0.0,0.0,0.0,0.0,0.0,-3.4854,-3.6323,-3.7356,-3.7379,-3.7196,-3.6874,-3.6323,-3.366,0.0,0.0,0.0,0.0,0.0,0.0,0.0,0.0,-3.7816,-3.9033,-4.4658,-4.8033,-4.8814,-4.902,-4.9434,-5.0053,-4.9457,-4.7872,-4.5255,-4.2247,-3.9147,0.0,0.0,0.0,0.0,0.0,0.0,0.0,0.0,0.0,0.0,0.0,0.0,0.0,0.0,0.0,0.0,0.0,0.0,0.0,0.0,0.0,0.0,0.0,-2.5894,0.0,0.0,0.0,0.0,0.0,0.0,0.0,0.0,0.0,-2.7856,-2.914,-3.0809,-3.2753,-3.3413,-3.3817,-3.4128,0.0,0.0,0.0,0.0,0.0,0.0,0.0,-3.2129,-3.1249,-3.1689,-3.2331,-3.2826,-3.2771,-3.226,-3.1055,0.0,0.0,-2.4591,-2.4079,-2.4281,-2.3299,-2.2388,-2.1819,-2.1988,-2.1875,-2.1726,0.0,0.0,0.0,0.0,-3.3875,0.0,0.0,0.0,-3.7978,-3.796,0.0,-3.5086,0.0,0.0,0.0,0.0,-3.2297,-3.4987,0.0,0.0,-4.1834,-4.3257,-4.1076,-4.0984,-4.0984,-4.08,-3.8492,-3.7323,-3.714,-3.5841,-3.4004,0.0,0.0,0.0,0.0,0.0,-3.8367,-3.9652,-4.4933,-4.7918,-4.84,-4.886,-4.9112,-4.9135,-4.9181,-4.9112,-4.8928,-4.5347,-4.3005,-4.2229,-3.6782,0.0,0.0,0.0,0.0,0.0,0.0,0.0,0.0,0.0,0.0,0.0,0.0,0.0,0.0,0.0,0.0,0.0,0.0,0.0,0.0,-2.6499,0.0,0.0,0.0,0.0,0.0,0.0,0.0,0.0,0.0,-2.9617,-2.9342,-3.1451,-3.3321,-3.3707,0.0,0.0,0.0,0.0,-3.4403,-3.1121,-3.0497,-3.0589,-3.0662,-3.2184,-3.4018,-3.5834,0.0,0.0,-3.8108,-3.5815,-3.4147,-3.4055,-3.5541,-3.4974,-2.8854,-2.6448,-2.5291,-2.536,-2.4327,-2.3193,-2.3122,-2.3326,-2.3095,-4.5924,0.0,0.0,0.0,0.0,-3.9751,-4.0409,-4.1559,-4.1559,-4.1512,-4.1469,-4.0274,0.0,0.0,0.0,0.0,0.0,0.0,-3.9309,-4.0617,-4.227,-4.3556,-4.4589,-4.4612,-4.4428,-4.4038,-4.3693,-4.351,-4.3487,-4.3096,-3.9652,-3.343,0.0,0.0,0.0,0.0,-4.0249,-4.3096,-4.6449,-4.824,-4.8377,-4.886,-4.9112,-4.9112,-4.9801,-4.9686,-4.863,-4.8171,-4.6541,-4.351,-4.1397,0.0,0.0,0.0,0.0,0.0,0.0,0.0,0.0,0.0,0.0,0.0,0.0,0.0,0.0,0.0,0.0,0.0,0.0,0.0,-2.6866,-2.8755,-2.9214,0.0,0.0,0.0,0.0,0.0,0.0,0.0,0.0,0.0,-3.3248,-3.2459,-3.2276,0.0,0.0,-3.3028,-3.2276,-3.4147,-3.5559,-3.5375,-3.5595,0.0,-3.6934,-3.6586,-3.6311,-3.6622,-3.8089,-3.9061,-3.8548,-3.8731,-3.8896,-3.8585,-3.8786,-3.8353,-3.6659,-3.3703,-3.1338,-3.0046,-2.8487,-2.7295,-2.7237,-2.7539,-2.7643,-5.2223,-4.7466,-4.5663,-4.4959,-4.4905,-4.4905,-4.5767,-4.7127,-4.7127,-4.7156,-4.6995,-4.5573,-4.4935,-4.4859,-4.3272,0.0,0.0,0.0,-4.2815,-4.4428,-4.4222,-4.5071,-4.6655,-4.6724,-4.6564,-4.6288,-4.6564,-4.6724,-4.6631,-4.5691,-4.2867,-3.8298,0.0,-3.5772,-3.7356,-3.9813,-4.2247,-4.4589,-4.7115,-4.8492,-4.8676,-4.9158,-4.9434,-4.9434,-4.9824,-4.9594,-4.8722,-4.9089,-4.8079,-4.5438,-4.4084,-4.1443,0.0,0.0,0.0,0.0,0.0,0.0,0.0,0.0,0.0,0.0,0.0,-2.9306,-2.8187,0.0,0.0,0.0,-2.9579,-2.9543,-3.0187,-3.0649,0.0,0.0,0.0,0.0,0.0,0.0,0.0,-3.0626,-3.3101,-3.5045,-3.5412,-3.4367,-3.4,-3.521,-3.5155,-3.4788,-3.422,0.0,-3.7576,-3.7649,-3.7851,-3.8273,-3.8988,-3.9116,-3.9281,-3.9868,-4.0437,-4.0822,-4.0657,-4.1152,-4.1445,-4.1225,-4.1053,-4.0887,-4.0887,-3.8372,-3.5714,-3.3466,-3.17,-3.0359,-2.9703,-2.984,-3.0069,-5.6615,-5.5752,-5.1596,-4.9766,-4.9636,-4.9636,-5.1152,-5.3635,-5.3583,-5.3609,-5.3478,-5.0803,-4.9576,-4.9455,-4.6779,0.0,-4.7066,-4.6472,-4.6748,-4.7643,-4.7229,-4.7275,-4.7689,-4.7689,-4.764,-4.7757,-4.764,-4.7734,-4.7712,-4.5438,-4.4428,-4.475,-4.3395,-4.188,-4.0494,-4.2477,-4.4015,-4.4819,-4.7046,-4.8538,-4.9204,-4.9709,-4.9962,-4.9962,-4.9457,-4.9158,-4.9089,-4.8676,-4.8217,-4.7666,-4.5438,-4.3441,-4.1742,0.0,0.0,0.0,0.0,0.0,0.0,0.0,0.0,0.0,0.0,0.0,0.0,0.0,0.0,-3.4539,-3.3373,0.0,-3.4817,-3.2445,0.0,0.0,0.0,-3.1084,-3.2588,-3.3541,-3.4073,-3.4018,0.0,0.0,-3.6402,-3.6842,-3.7576,-3.8768,-3.9703,-3.9612,-3.7778,-3.9171,-4.0015,-3.8548,-3.8456,-3.8548,-3.908,-4.0529,-4.2289,-4.3848,-4.4031,-4.3426,-4.3371,-4.2839,-4.2417,-4.2362,-4.2307,-4.2234,-4.2252,-4.0699,-3.878,-3.5892,-3.3873,-3.2333,-3.1103,-3.0676,-3.0582,-5.8026,-5.7817,-5.6719,-5.5491,-5.4288,-5.4288,-5.4942,-5.5935,-5.5517,-5.5539,-5.5898,-5.4379,-5.3922,-5.4223,-5.3518,-5.2476,-5.1206,-5.1415,-5.0293,-4.8289,-4.8469,-4.8446,-4.8217,-4.8194,-4.84,-4.8722,-4.84,-4.8607,-4.9296,-4.8354,-4.7321,-4.6357,-4.5967,-4.4451,-4.1903,-4.1994,-4.351,-4.6311,-4.6541,-4.7826,-5.0168,-5.0398,-5.0467,-5.0444,-4.9985,-4.9525,-4.9135,-4.8997,-4.8722,-4.824,-4.762,-4.6081,-4.3395,-4.0066,0.0,0.0,0.0,0.0,0.0,0.0,0.0,0.0,0.0,-3.3198,-3.2342,0.0,-3.5536,0.0,-3.6299,-3.6674,-3.6077,-3.555,0.0,0.0,-3.3175,-3.3211,-3.3908,-3.5504,-3.6329,-3.5705,-3.7246,-3.8401,-3.8493,-3.9153,-4.0052,-4.1207,-3.9777,-3.853,-3.8383,-4.0107,-4.1152,-4.062,-4.1574,-4.2619,-4.2564,-4.3078,-4.3774,-4.4545,-4.427,-4.405,-4.4343,-4.3738,-4.3206,-4.3169,-4.2674,-4.2326,-4.2326,-4.1864,-4.0871,-3.8746,-3.5781,-3.3361,-3.3009,-3.1974,-3.1049,-5.9045,-5.9281,-5.9281,-5.7974,-5.5961,-5.6745,-5.7399,-5.7921,-5.7582,-5.7773,-5.8302,-5.7642,-5.7399,-5.7451,-5.7451,-5.636,-5.4406,-5.3953,-5.2453,-5.02,-4.9656,-4.9319,-4.9066,-4.9066,-4.9204,-4.9457,-4.9204,-4.9342,-4.987,-4.9594,-4.9043,-4.824,-4.8217,-4.6931,-4.4405,-4.3165,-4.3556,-4.5484,-4.638,-4.8033,-5.0513,-5.0857,-5.0559,-4.9663,-4.9158,-4.8217,-4.6793,-4.6747,-4.6518,-4.6081,-4.6242,-4.5393,-4.3257,-4.0831,-3.8562,0.0,0.0,0.0,0.0,0.0,0.0,0.0,0.0,0.0,0.0,0.0,-3.9036,-3.8358,-3.8922,-3.8741,-3.7209,-3.6796,-3.6439,-3.6048,-3.5866,-3.6072,-3.7015,-3.8223,-3.8933,-3.8695,-4.0107,-4.1189,-4.139,-4.1941,-4.2564,-4.3261,-4.1977,-4.0932,-4.0895,-4.1831,-4.2472,-4.2472,-4.3353,-4.4233,-4.4545,-4.4618,-4.4765,-4.5095,-4.4893,-4.471,-4.4893,-4.4435,-4.4013,-4.3976,-4.3646,-4.3353,-4.3334,-4.3346,-4.2989,-4.1853,-3.9362,-3.6672,-3.4377,-3.2692,-3.161,-5.9777,-6.0195,-6.0143,-5.8653,-5.6458,-5.7974,-5.8523,-5.8366,-5.8358,-5.8758,-5.9594,-5.9934,-5.983,-5.9359,-5.9281,-5.8197,-5.6309,-5.4938,-5.3521,-5.1994,-5.0619,-4.9962,-4.9916,-4.9916,-4.9939,-5.0008,-4.9939,-4.9962,-5.0099,-5.0031,-4.9916,-4.9732,-4.9778,-4.8791,-4.6793,-4.5002,-4.4038,-4.3946,-4.6426,-4.8511,-5.0283,-5.0536,-4.9801,-4.8102,-4.7505,-4.6196,-4.4038,-4.3854,-4.3625,-4.3299,-4.3644,-4.3575,-4.2949,-4.126,-3.9755,0.0,-3.6918,0.0,0.0,0.0,0.0,0.0,0.0,0.0,0.0,-4.2853,-4.2606,-4.1958,-4.134,-4.0297,-3.8799,-3.7708,-3.772,-3.9031,-3.8855,-3.9105,-4.0477,-4.0962,-4.1317,-4.1776,-4.2766,-4.3536,-4.3738,-4.4306,-4.4563,-4.438,-4.4361,-4.4031,-4.3738,-4.3573,-4.3719,-4.4123,-4.416,-4.4416,-4.4966,-4.515,-4.526,-4.5572,-4.5352,-4.5223,-4.5168,-4.4875,-4.4655,-4.4636,-4.4581,-4.46,-4.4673,-4.4691,-4.4654,-4.4435,-4.2721,-3.9983,-3.6005,-3.3747,-3.2502,-6.0117,-6.0169,-5.9725,-5.9202,-5.8758,-5.9072,-5.685,-5.3034,-5.2616,-5.3766,-5.6223,-5.8523,-5.9536,-5.9333,-5.8862,-5.7246,-5.4693,-5.4819,-5.3247,-5.0354,-5.0428,-5.0283,-4.9916,-4.9916,-5.0122,-5.0444,-5.0099,-5.0329,-5.1133,-5.0696,-4.987,-4.8722,-4.9066,-4.8263,-4.6357,0.0,0.0,0.0,-4.6954,-4.8446,-4.8745,-4.7298,-4.6334,-4.5944,-4.5438,0.0,-4.4474,-4.4038,-4.3894,-4.4044,-4.4179,0.0,-4.6204,0.0,0.0,0.0,0.0,0.0,0.0,0.0,0.0,0.0,-4.2956,-4.317,-4.315,-4.4013,-4.43,-4.349,-4.3491,-4.3105,-4.2226,-4.1656,-4.1411,-4.1684,-4.1312,-4.1221,-4.145,-4.1567,-4.1831,-4.2564,-4.2858,-4.3023,-4.3206,-4.3738,-4.4086,-4.3921,-4.4288,-4.4581,-4.449,-4.4416,-4.4471,-4.4545,-4.4545,-4.46,-4.4765,-4.482,-4.493,-4.4875,-4.4856,-4.482,-4.4801,-4.4765,-4.4673,-4.4673,-4.4673,-4.4673,-4.4691,-4.4691,-4.4764,-4.471,-4.3178,-4.0889,-3.8292,-3.6336,-3.4468,-6.1164,-6.1032,-6.0483,-5.9411,0.0,-5.7791,-5.5517,-5.2223,-5.4785,-5.6876,-5.8575,-5.9725,-6.0065,-5.9699,-5.8,-5.6279,-5.455,-5.263,-5.1433,-5.0624,-4.9905,-4.9916,-5.065,-5.065,-5.0788,-5.1018,-5.1018,-5.1293,-5.1775,-5.1753,-5.1362,-5.0627,-5.0857,-5.0467,-4.9502,-4.9479,-4.8492,-4.6495,-4.7482,-4.8492,-4.9411,-4.8492,-4.7438,-4.6427,-4.6127,0.0,0.0,0.0,0.0,0.0,0.0,0.0,0.0,-4.5403,-4.5154,-4.5912,-4.4666,-4.4579,-4.6121,-4.6264,-4.6783,-4.7969,-4.8543,-4.816,-4.6669,-4.8295,-4.8874,-4.7701,-4.7105,-4.6315,-4.5146,-4.4199,-4.3695,-4.3632,-4.331,-4.2999,-4.2969,-4.2746,-4.2858,-4.3412,-4.3512,-4.3536,-4.3738,-4.4288,-4.4581,-4.4453,-4.4893,-4.526,-4.5242,-4.4911,-4.4673,-4.4673,-4.4875,-4.4893,-4.4746,-4.5058,-4.5077,-4.482,-4.4838,-4.4875,-4.471,-4.4673,-4.4673,-4.4673,-4.4673,-4.4728,-4.4966,-4.5001,-4.5072,-4.5204,-4.4436,-4.3061,-4.104,-3.8862,-3.6597,-6.237,-6.2276,-6.1472,-5.9803,-5.7686,-5.7085,-5.5883,-5.4602,-5.8732,0.0,0.0,-6.098,-6.0614,-5.9908,-5.7451,-5.5982,-5.5164,-5.1414,-5.0479,-5.1698,-4.9832,-4.9824,-5.1385,-5.1431,-5.1431,-5.1454,-5.1936,-5.2189,-5.2189,-5.2671,-5.2878,-5.2901,-5.2992,-5.3038,-5.3015,-5.2934,-5.1701,-4.9306,-4.8335,-4.8584,-5.0106,-4.983,-4.8875,-4.7144,-4.7074,-4.6534,-4.5319,-4.5715,-4.5903,-4.5875,-4.6319,-4.6508,-4.6409,-4.6204,-4.6329,-4.6663,-4.6597,-4.769,-5.0239,-5.0503,-5.1369,-5.3221,-5.3341,-5.2596,-5.084,-5.2692,-5.3362,-5.1878,-5.0421,-4.8904,-4.738,-4.5961,-4.509,-4.5149,-4.4721,-4.4444,-4.431,-4.4046,-4.3913,-4.409,-4.4191,-4.427,-4.4471,-4.4856,-4.5187,-4.5223,-4.5407,-4.5792,-4.57,-4.5205,-4.482,-4.4838,-4.4985,-4.504,-4.4948,-4.5168,-4.537,-4.4673,-4.482,-4.493,-4.46,-4.4526,-4.4563,-4.4526,-4.46,-4.4838,-4.5205,-4.5275,-4.5455,-4.5938,-4.5993,-4.5503,-4.3799,-4.1666,-3.9211,-6.3277,-6.3553,-6.1852,-6.1163,-6.1215,-6.064,-6.0771,-6.1189,-5.9098,-5.7921,-5.766,-5.9542,-6.0013,-5.9437,-5.8523,-5.7513,-5.6387,-5.4787,-5.3741,-5.2893,-5.1582,-5.1156,-5.1408,-5.1431,-5.1431,-5.1454,-5.1936,-5.2189,-5.2235,-5.2671,-5.2878,-5.2969,-5.336,-5.3566,-5.3498,-5.3089,-5.2597,-5.2133,-4.9973,-4.8776,-4.8536,-4.6843,-4.6001,-4.6029,-4.6053,-4.6167,-4.6351,-4.6512,-4.639,-4.6228,-4.6317,-4.7003,-4.8516,-4.8632,-4.94,-5.1153,-5.173,-5.2163,-5.2596,-5.3004,-5.3582,-5.4303,-5.4399,-5.4255,-5.3991,-5.4279,-5.3951,-5.277,-5.1135,-4.9571,-4.8212,-4.6621,-4.5569,-4.5551,-4.5521,-4.5152,-4.4467,-4.452,-4.4532,-4.4265,-4.4434,-4.4544,-4.4397,-4.4654,-4.4838,-4.4856,-4.526,-4.5425,-4.537,-4.5297,-4.5223,-4.5168,-4.4948,-4.4911,-4.5003,-4.4948,-4.4728,-4.4251,-4.4233,-4.4215,-4.3829,-4.4013,-4.4196,-4.4178,-4.4453,-4.482,-4.5223,-4.5315,-4.5551,-4.614,-4.6305,-4.617,-4.5657,-4.4898,-4.2691,-6.5248,-6.4883,-6.307,-6.2381,-6.2566,-6.1568,-6.1424,-6.179,-6.0561,-5.9856,-5.9673,-6.0405,-6.0195,-5.93,-5.7477,-5.6366,-5.5735,-5.3475,-5.2371,-5.2212,-5.1213,-5.0978,-5.1385,-5.1707,-5.1844,-5.189,-5.2625,-5.2992,-5.3061,-5.3498,-5.3727,-5.3727,-5.4199,-5.4361,-5.406,-5.3995,-5.3639,-5.3078,-5.1454,-5.0336,-4.9808,-4.8895,-4.8357,-4.8138,-4.8114,-4.837,-4.8815,-4.9101,-4.9338,-4.9525,-4.9789,-5.0482,-5.1562,-5.1658,-5.2211,-5.3437,-5.3774,-5.4039,-5.4303,-5.4544,-5.4904,-5.5433,-5.5482,-5.5626,-5.589,-5.565,-5.5267,-5.4697,-5.2507,-5.0869,-5.04,-4.7941,-4.6435,-4.6687,-4.6636,-4.6547,-4.6121,-4.5986,-4.5848,-4.5687,-4.5565,-4.533,-4.4871,-4.5113,-4.5391,-4.5389,-4.5517,-4.548,-4.5058,-4.4985,-4.4966,-4.493,-4.4801,-4.4655,-4.4673,-4.4691,-4.4416,-4.3866,-4.394,-4.3903,-4.3609,-4.3829,-4.405,-4.4105,-4.4398,-4.4801,-4.5223,-4.5297,-4.5572,-4.5975,-4.636,-4.6452,-4.6452,-4.5525,-4.2905,-6.7046,-6.6406,-6.4473,-6.3466,-6.3085,-6.1996,-6.152,-6.1555,-6.1816,-6.1894,-6.1711,-6.1163,-6.0274,-5.8993,-5.6824,-5.5883,-5.5513,-5.2823,-5.1879,-5.2321,-5.1272,-5.1138,-5.1715,-5.2074,-5.2189,-5.2281,-5.3084,-5.352,-5.3589,-5.4117,-5.4416,-5.4556,-5.487,-5.4857,-5.4461,-5.4625,-5.4218,-5.34,-5.2557,-5.1825,-5.1255,-5.1114,-5.0811,-5.0437,-5.0413,-5.0675,-5.1225,-5.1634,-5.2043,-5.2451,-5.2956,-5.3413,-5.3798,-5.3822,-5.4111,-5.4688,-5.4784,-5.5073,-5.5698,-5.577,-5.5963,-5.6371,-5.6516,-5.6756,-5.7117,-5.6949,-5.647,-5.5762,-5.3491,-5.1971,-5.1338,-4.8952,-4.7207,-4.7539,-4.7578,-4.7449,-4.7398,-4.7115,-4.683,-4.6739,-4.636,-4.5868,-4.5537,-4.5649,-4.5742,-4.572,-4.5828,-4.559,-4.4985,-4.4875,-4.493,-4.4801,-4.4746,-4.46,-4.427,-4.4361,-4.4233,-4.3591,-4.3738,-4.3811,-4.3719,-4.3903,-4.4123,-4.4233,-4.4471,-4.482,-4.5187,-4.5388,-4.5663,-4.6158,-4.6599,-4.6727,-4.6507,-4.4778,-4.2415,-6.7589,-6.7671,-6.5834,-6.4257,-6.3138,-6.2958,-6.2751,-6.2545,-6.2182,-6.1685,-6.1237,-6.0561,-5.9699,-5.8653,-5.8287,-5.8131,-5.7945,-5.6118,-5.5164,-5.5013,-5.3481,-5.2658,-5.2727,-5.2372,-5.2189,-5.2336,-5.2763,-5.3061,-5.3107,-5.3934,-5.4638,-5.5021,-5.5004,-5.4883,-5.4821,-5.4311,-5.3808,-5.3238,-5.3067,-5.2493,-5.1576,-5.1125,-5.1057,-5.1345,-5.1345,-5.1874,-5.2668,-5.2908,-5.2932,-5.3029,-5.3461,-5.375,-5.3822,-5.3822,-5.4279,-5.5217,-5.5337,-5.577,-5.6732,-5.6876,-5.6876,-5.6973,-5.7381,-5.7646,-5.7766,-5.8127,-5.7394,-5.5481,-5.3873,-5.2304,-5.0631,-4.8731,-4.7558,-4.7676,-4.7676,-4.7398,-4.7134,-4.6839,-4.6517,-4.6167,-4.6243,-4.5739,-4.5501,-4.5556,-4.5481,-4.5462,-4.5773,-4.5792,-4.5388,-4.5462,-4.5572,-4.5278,-4.4966,-4.4746,-4.4618,-4.4325,-4.4123,-4.3683,-4.3554,-4.3774,-4.4013,-4.416,-4.4215,-4.4801,-4.4801,-4.5077,-4.537,-4.559,-4.6122,-4.6672,-4.7094,-4.7332,-4.648,-4.4952,-4.2505,-6.8713,-6.8807,-6.7497,-6.5745,-6.3846,-6.3046,-6.2641,-6.2591,-6.2725,-6.2504,-6.2023,-6.2023,-6.0933,-5.9019,-5.9019,-5.9202,-5.9444,-5.8705,-5.7524,-5.627,-5.5419,-5.4453,-5.3353,-5.2875,-5.276,-5.3042,-5.329,-5.336,-5.3429,-5.4015,-5.4522,-5.4958,-5.4886,-5.4642,-5.4365,-5.4062,-5.3668,-5.3141,-5.2474,-5.209,-5.1968,-5.1537,-5.1345,-5.1489,-5.1489,-5.1826,-5.2548,-5.2908,-5.3197,-5.3485,-5.3702,-5.3966,-5.4279,-5.4568,-5.4952,-5.5409,-5.6011,-5.654,-5.6997,-5.7309,-5.7502,-5.7478,-5.7959,-5.8271,-5.8295,-5.8752,-5.8177,-5.6191,-5.4194,-5.2412,-5.0783,-4.8992,-4.8047,-4.8262,-4.834,-4.8229,-4.8065,-4.8037,-4.7765,-4.7322,-4.7176,-4.6878,-4.6336,-4.6274,-4.6122,-4.5847,-4.5975,-4.6067,-4.5755,-4.5792,-4.592,-4.6012,-4.603,-4.5773,-4.5223,-4.493,-4.4618,-4.4325,-4.4196,-4.4325,-4.4673,-4.5021,-4.5297,-4.5627,-4.5828,-4.603,-4.6379,-4.6452,-4.6764,-4.7185,-4.7406,-4.7571,-4.7259,-4.6477,-4.4341,-6.9152,-6.9023,-6.8344,-6.6743,-6.4518,-6.3646,-6.3123,-6.2936,-6.3306,-6.3143,-6.279,-6.3035,-6.2194,-6.0649,-6.032,-6.0479,-6.0777,-6.0644,-5.9347,-5.7497,-5.752,-5.6391,-5.4167,-5.384,-5.3668,-5.358,-5.3587,-5.3784,-5.406,-5.4461,-5.4709,-5.4839,-5.4979,-5.4682,-5.4157,-5.3936,-5.3582,-5.3053,-5.2283,-5.2043,-5.2211,-5.2043,-5.185,-5.1754,-5.185,-5.2163,-5.2692,-5.3077,-5.351,-5.4015,-5.4159,-5.4423,-5.4808,-5.5337,-5.5626,-5.5722,-5.6636,-5.7237,-5.7237,-5.7718,-5.8031,-5.8055,-5.8512,-5.8824,-5.8897,-5.9305,-5.8711,-5.6951,-5.4814,-5.2886,-5.1197,-4.9432,-4.8627,-4.8808,-4.8848,-4.8848,-4.8828,-4.8775,-4.8478,-4.8127,-4.7963,-4.7797,-4.7215,-4.6959,-4.6819,-4.6397,-4.647,-4.658,-4.6342,-4.6342,-4.6525,-4.6782,-4.7149,-4.6819,-4.5773,-4.5443,-4.526,-4.4838,-4.4618,-4.4746,-4.5223,-4.5608,-4.5993,-4.6067,-4.6727,-4.7039,-4.6892,-4.702,-4.7314,-4.7424,-4.7571,-4.7662,-4.7406,-4.7327,-4.524,-6.8506,-6.8421,-6.7859,-6.6716,-6.5308,-6.517,-6.4841,-6.4102,-6.3676,-6.3405,-6.3367,-6.3014,-6.2943,-6.3153,-6.2692,-6.2448,-6.2415,-6.1813,-6.068,-5.9161,-5.9794,-5.838,-5.5251,-5.5584,-5.5028,-5.3762,-5.3706,-5.4074,-5.4789,-5.5257,-5.5312,-5.4836,-5.5153,-5.5044,-5.4539,-5.3963,-5.3582,-5.3149,-5.2956,-5.2764,-5.2451,-5.2788,-5.2764,-5.2427,-5.274,-5.3197,-5.3678,-5.3774,-5.4039,-5.4544,-5.5025,-5.5337,-5.5409,-5.589,-5.6203,-5.6323,-5.7189,-5.7766,-5.7838,-5.8271,-5.856,-5.8632,-5.9041,-5.9353,-5.9378,-5.9786,-5.933,-5.7567,-5.5593,-5.3574,-5.1944,-4.9994,-4.8881,-4.8828,-4.8848,-4.8848,-4.8848,-4.8536,-4.8219,-4.813,-4.8043,-4.7913,-4.7793,-4.7346,-4.719,-4.7002,-4.7039,-4.7039,-4.7057,-4.7295,-4.7479,-4.7626,-4.7791,-4.7681,-4.6269,-4.5957,-4.559,-4.5187,-4.5058,-4.4911,-4.5242,-4.5627,-4.603,-4.6452,-4.691,-4.7185,-4.7204,-4.7406,-4.7754,-4.7864,-4.7717,-4.7662,-4.7479,-4.6874,-4.4763,-6.8112,-6.8365,-6.7354,-6.6623,-6.6061,-6.5405,-6.4861,-6.4652,-6.4819,-6.4874,-6.493,-6.5041,-6.5263,-6.5458,-6.5235,-6.4587,-6.3686,-6.3415,-6.2565,-6.123,-6.048,-5.9228,-5.754,-5.6101,-5.5264,-5.4847,-5.4273,-5.4257,-5.4839,-5.5328,-5.5278,-5.4794,-5.4828,-5.4784,-5.4496,-5.375,-5.3365,-5.351,-5.3245,-5.3125,-5.3293,-5.3774,-5.3966,-5.3774,-5.3606,-5.3798,-5.4303,-5.464,-5.4928,-5.5097,-5.5626,-5.5938,-5.5987,-5.6444,-5.69,-5.7261,-5.7911,-5.8319,-5.8367,-5.88,-5.9089,-5.9137,-5.9594,-5.9883,-5.9907,-6.0051,-5.9895,-5.8747,-5.6185,-5.4235,-5.3191,-5.0803,-4.8848,-4.8848,-4.8867,-4.8867,-4.8906,-4.8916,-4.8924,-4.8607,-4.8254,-4.7964,-4.7877,-4.7637,-4.7387,-4.7185,-4.7314,-4.7461,-4.7497,-4.7626,-4.7791,-4.8011,-4.8157,-4.8011,-4.7277,-4.6819,-4.647,-4.6012,-4.5773,-4.5773,-4.5975,-4.6085,-4.6452,-4.7002,-4.7351,-4.7516,-4.7607,-4.7791,-4.8139,-4.8102,-4.7974,-4.7607,-4.7516,-4.691,-4.4605,-6.7466,-6.7691,-6.696,-6.6595,-6.6483,-6.5696,-6.5359,-6.5387,-6.578,-6.5977,-6.6061,-6.6426,-6.6595,-6.6595,-6.6595,-6.6102,-6.5077,-6.5005,-6.4328,-6.3005,-6.1816,-6.0456,-5.8688,-5.6867,-5.5786,-5.5509,-5.4782,-5.4544,-5.4968,-5.538,-5.5225,-5.4664,-5.4928,-5.5025,-5.476,-5.4159,-5.4015,-5.4207,-5.3991,-5.3942,-5.4135,-5.4592,-5.476,-5.4592,-5.4255,-5.4231,-5.4616,-5.4952,-5.5241,-5.5409,-5.5746,-5.6203,-5.6708,-5.7237,-5.7694,-5.8079,-5.856,-5.8848,-5.8921,-5.9353,-5.9642,-5.9642,-5.9955,-6.0171,-6.0171,-6.0171,-5.9919,-5.8832,-5.6569,-5.4346,-5.3149,-5.0712,-4.894,-4.8887,-4.8984,-4.9062,-4.9101,-4.9473,-4.9538,-4.9202,-4.8518,-4.8182,-4.8206,-4.8023,-4.7754,-4.7516,-4.7736,-4.7864,-4.7882,-4.7901,-4.7956,-4.8212,-4.8267,-4.8084,-4.7589,-4.7167,-4.6965,-4.6562,-4.6324,-4.6415,-4.6489,-4.6599,-4.6855,-4.7442,-4.7772,-4.7937,-4.8084,-4.8231,-4.8267,-4.8249,-4.7827,-4.7369,-4.7204,-4.6965,-4.4588,-6.6623,-6.6679,-6.6595,-6.6651,-6.6679,-6.6567,-6.6567,-6.6539,-6.6539,-6.6483,-6.6483,-6.6595,-6.6595,-6.6595,-6.6595,-6.6525,-6.6384,-6.6384,-6.5621,-6.4274,-6.3838,-6.1939,-5.9125,-5.8083,-5.6829,-5.5707,-5.4985,-5.49,-5.5308,-5.5476,-5.5313,-5.4952,-5.565,-5.5818,-5.5409,-5.5241,-5.5265,-5.5241,-5.5169,-5.5001,-5.4736,-5.5049,-5.5097,-5.4664,-5.4544,-5.4544,-5.4568,-5.4616,-5.4904,-5.5337,-5.5506,-5.6203,-5.7574,-5.8247,-5.8584,-5.8656,-5.9089,-5.9353,-5.9426,-5.9834,-6.0099,-6.0099,-6.0147,-6.0171,-6.0171,-6.0171,-5.9558,-5.7738,-5.5786,-5.3821,-5.2075,-5.0094,-4.8887,-4.8906,-4.9238,-4.9453,-4.9609,-4.9922,-5.0159,-4.9857,-4.9144,-4.8708,-4.8829,-4.8509,-4.8157,-4.8157,-4.8176,-4.8212,-4.8194,-4.8194,-4.8249,-4.8231,-4.8176,-4.7974,-4.7681,-4.7387,-4.7204,-4.702,-4.6874,-4.6837,-4.6855,-4.6947,-4.7094,-4.7571,-4.7846,-4.8011,-4.8157,-4.8286,-4.8286,-4.8176,-4.7644,-4.724,-4.7057,-4.6626,-4.4821,-6.6595,-6.6651,-6.7045,-6.7213,-6.7213,-6.7213,-6.7213,-6.7157,-6.6792,-6.6595,-6.6595,-6.6595,-6.6595,-6.6595,-6.6595,-6.6595,-6.6595,-6.6595,-6.6286,-6.555,-6.3592,-6.2014,-6.0633,-5.8405,-5.6879,-5.6142,-5.6197,-5.5938,-5.5602,-5.6131,-5.6059,-5.5482,-5.589,-5.6131,-5.5963,-5.5602,-5.5385,-5.5385,-5.5385,-5.5145,-5.4712,-5.5121,-5.5121,-5.4664,-5.4592,-5.4447,-5.4111,-5.4423,-5.4856,-5.5409,-5.6131,-5.7069,-5.8175,-5.8848,-5.9137,-5.9185,-5.9642,-5.9931,-5.9931,-6.0051,-6.0171,-6.0171,-6.0171,-6.0171,-6.0171,-6.0147,-5.928,-5.7464,-5.5598,-5.3762,-5.191,-5.0002,-4.9077,-4.9297,-4.9453,-4.9668,-4.9961,-5.0351,-5.0512,-5.0396,-4.9888,-4.9395,-4.9015,-4.8638,-4.8286,-4.8286,-4.8286,-4.8286,-4.8286,-4.8286,-4.8139,-4.7956,-4.7901,-4.7846,-4.7455,-4.724,-4.7098,-4.7043,-4.7043,-4.7094,-4.7167,-4.7222,-4.7406,-4.7589,-4.7864,-4.8066,-4.8231,-4.8286,-4.8286,-4.8102,-4.7681,-4.7351,-4.7094,-4.6078,-4.4714,-6.6707,-6.6988,-6.7354,-6.7663,-6.7859,-6.7859,-6.7859,-6.7831,-6.7466,-6.7185,-6.6946,-6.6932,-6.6792,-6.6623,-6.6595,-6.6595,-6.6595,-6.6595,-6.6595,-6.6074,-6.3272,-6.1865,-6.1339,-5.8525,-5.6876,-5.6588,-5.666,-5.6371,-5.577,-5.6347,-5.6371,-5.589,-5.6251,-5.6516,-5.6516,-5.6179,-5.5938,-5.5746,-5.5698,-5.5361,-5.4832,-5.4928,-5.4856,-5.4399,-5.4303,-5.4255,-5.4135,-5.4616,-5.5145,-5.5866,-5.7069,-5.8199,-5.8872,-5.9378,-5.9666,-5.9738,-5.9955,-6.0171,-6.0171,-6.0171,-6.0171,-6.0171,-6.0171,-6.0171,-6.0039,-5.9751,-5.8296,-5.6468,-5.4559,-5.2709,-5.0904,-4.9656,-4.9155,-4.9473,-4.9512,-4.9805,-5.0293,-5.0589,-5.0707,-5.051,-4.9961,-4.9527,-4.9132,-4.8638,-4.8286,-4.8286,-4.8286,-4.8286,-4.8286,-4.8286,-4.8102,-4.7919,-4.7827,-4.7601,-4.7247,-4.7015,-4.6878,-4.6974,-4.7029,-4.7245,-4.7387,-4.7424,-4.7534,-4.7699,-4.7937,-4.8139,-4.8286,-4.8286,-4.8267,-4.7956,-4.7754,-4.7442,-4.7149,-4.6654,-4.5417,-6.696,-6.7494,-6.755,-6.7972,-6.8478,-6.8534,-6.8534,-6.8506,-6.8393,-6.7984,-6.752,-6.7395,-6.7129,-6.6679,-6.6595,-6.6595,-6.6595,-6.6595,-6.6595,-6.5763,-6.3446,-6.1715,-6.0962,-5.8369,-5.6973,-5.69,-5.6485,-5.6347,-5.6275,-5.6395,-5.6275,-5.6323,-5.6708,-5.6997,-5.6925,-5.6973,-5.6612,-5.6083,-5.6083,-5.5554,-5.4592,-5.4544,-5.4423,-5.3966,-5.3991,-5.4183,-5.4664,-5.5313,-5.589,-5.654,-5.8247,-5.9209,-5.9498,-5.9907,-6.0123,-6.0099,-6.0171,-6.0171,-6.0171,-6.0171,-6.0171,-6.0171,-6.0171,-6.0171,-6.0039,-5.8722,-5.6951,-5.5005,-5.3071,-5.1116,-4.9611,-4.894,-4.9062,-4.9394,-4.9551,-4.9961,-5.0644,-5.0668,-5.0591,-5.0454,-4.9769,-4.9156,-4.9138,-4.8645,-4.8392,-4.8194,-4.8194,-4.8176,-4.8194,-4.8176,-4.8249,-4.8066,-4.7754,-4.7429,-4.7002,-4.6613,-4.6492,-4.6547,-4.6694,-4.7098,-4.7424,-4.7516,-4.7699,-4.7864,-4.7992,-4.8176,-4.8286,-4.8286,-4.8286,-4.8157,-4.7901,-4.7571,-4.7185,-4.6745,-4.577,-6.696,-6.755,-6.8028,-6.859,-6.9124,-6.9152,-6.9152,-6.9096,-6.8674,-6.8153,-6.7604,-6.7479,-6.7185,-6.6623,-6.6595,-6.6595,-6.6595,-6.6595,-6.6595,-6.6074,-6.3299,-6.1189,-5.9921,-5.808,-5.7021,-5.6997,-5.6852,-5.6804,-5.6804,-5.678,-5.6804,-5.6828,-5.6925,-5.7021,-5.7021,-5.7021,-5.6516,-5.5746,-5.5626,-5.5145,-5.4279,-5.4087,-5.4183,-5.4399,-5.4399,-5.4688,-5.5265,-5.6492,-5.743,-5.7959,-5.8824,-5.957,-5.9907,-6.0099,-6.0171,-6.0171,-6.0171,-6.0171,-6.0171,-6.0171,-6.0171,-6.0171,-6.0171,-6.0171,-6.0147,-5.8436,-5.6587,-5.4632,-5.28,-5.0952,-4.9334,-4.8848,-4.8945,-4.9082,-4.9531,-5.0,-5.0273,-5.0334,-5.0261,-5.0165,-4.9855,-4.9522,-4.9086,-4.8736,-4.8312,-4.7999,-4.7919,-4.7937,-4.8029,-4.8157,-4.8267,-4.7846,-4.7461,-4.7062,-4.6734,-4.6327,-4.6161,-4.618,-4.6419,-4.6823,-4.7149,-4.7479,-4.7772,-4.8084,-4.8121,-4.8267,-4.8286,-4.8286,-4.8286,-4.8286,-4.8011,-4.7681,-4.7406,-4.702,-4.5718,-6.7354,-6.7972,-6.859,-6.9208,-6.9742,-6.977,-6.977,-6.9658,-6.9124,-6.8558,-6.7948,-6.7576,-6.7185,-6.6623,-6.6595,-6.6595,-6.6595,-6.6595,-6.6595,-6.6074,-6.3299,-6.0659,-5.8656,-5.7314,-5.7021,-5.7021,-5.7021,-5.7021,-5.6997,-5.7021,-5.7021,-5.6997,-5.7021,-5.7021,-5.7021,-5.6997,-5.6612,-5.5866,-5.553,-5.5049,-5.452,-5.4255,-5.4447,-5.4832,-5.4977,-5.5337,-5.6419,-5.7742,-5.8536,-5.8752,-5.9281,-5.9859,-6.0123,-6.0171,-6.0171,-6.0171,-6.0171,-6.0171,-6.0171,-6.0171,-6.0171,-6.0171,-6.0171,-6.0171,-5.9631,-5.7916,-5.5472,-5.4544,-5.2089,-5.019,-4.9222,-4.8848,-4.8848,-4.8926,-4.9149,-4.9519,-4.9883,-5.0098,-5.0027,-4.9781,-4.955,-4.9318,-4.8839,-4.8494,-4.8219,-4.8017,-4.8029,-4.8011,-4.8029,-4.8157,-4.8157,-4.7791,-4.7369,-4.7007,-4.6716,-4.6308,-4.5975,-4.5957,-4.6048,-4.6452,-4.6874,-4.7295,-4.7644,-4.7937,-4.8139,-4.8267,-4.8231,-4.8231,-4.8286,-4.8212,-4.8011,-4.7846,-4.7589,-4.7295,-4.5988,-6.7944,-6.8618,-6.9152,-6.9742,-7.0248,-7.0304,-7.0164,-7.0079,-6.9573,-6.8944,-6.826,-6.7757,-6.7185,-6.6595,-6.6595,-6.6595,-6.6595,-6.6595,-6.6356,-6.538,-6.3125,-6.038,-5.8001,-5.7235,-5.7021,-5.7021,-5.7021,-5.7021,-5.7021,-5.7021,-5.7021,-5.7021,-5.7021,-5.7021,-5.7021,-5.7021,-5.6756,-5.6347,-5.5938,-5.5746,-5.553,-5.5265,-5.5361,-5.577,-5.6011,-5.6564,-5.767,-5.8728,-5.9137,-5.8704,-5.9642,-6.0075,-6.0171,-6.0171,-6.0171,-6.0171,-6.0171,-6.0171,-6.0171,-6.0171,-6.0171,-6.0171,-6.0171,-6.0003,-5.9209,-5.6685,-5.4608,-5.3926,-5.0894,-4.9348,-4.8959,-4.8848,-4.8867,-4.8682,-4.837,-4.8618,-4.9134,-4.9616,-4.9755,-4.9319,-4.8843,-4.8573,-4.8353,-4.8016,-4.7742,-4.7539,-4.7607,-4.7662,-4.7717,-4.7864,-4.7919,-4.7846,-4.7406,-4.7043,-4.6676,-4.6345,-4.6143,-4.5902,-4.592,-4.6177,-4.6599,-4.7002,-4.7369,-4.7644,-4.7736,-4.7919,-4.8121,-4.8157,-4.8176,-4.8267,-4.8139,-4.8011,-4.7827,-4.7516,-4.6646,-6.8169,-6.9208,-6.9349,-6.9742,-7.0248,-7.0304,-7.0051,-6.9602,-6.9461,-6.8737,-6.7848,-6.7548,-6.7157,-6.6595,-6.6595,-6.6595,-6.6595,-6.6525,-6.6003,-6.4491,-6.2831,-6.0811,-5.8812,-5.7686,-5.7021,-5.7021,-5.7021,-5.7021,-5.7021,-5.7021,-5.7021,-5.7021,-5.7021,-5.7045,-5.7045,-5.7093,-5.6997,-5.6828,-5.6708,-5.666,-5.666,-5.654,-5.6636,-5.7117,-5.755,-5.7959,-5.8392,-5.9041,-5.9305,-5.9402,-5.9786,-6.0171,-6.0171,-6.0171,-6.0171,-6.0171,-6.0171,-6.0171,-6.0171,-6.0171,-6.0171,-6.0171,-6.0171,-5.9558,-5.7933,-5.602,-5.3909,-5.2482,-5.0276,-4.894,-4.8867,-4.8848,-4.8682,-4.8312,-4.8127,-4.7979,-4.7889,-4.8003,-4.8232,-4.8253,-4.8235,-4.8101,-4.7998,-4.762,-4.7332,-4.7062,-4.7075,-4.7167,-4.7351,-4.7571,-4.7607,-4.7626,-4.7185,-4.6823,-4.6657,-4.6327,-4.6106,-4.5883,-4.5883,-4.5902,-4.6324,-4.658,-4.6892,-4.7112,-4.7259,-4.7497,-4.7791,-4.7846,-4.7827,-4.8047,-4.8231,-4.8102,-4.7901,-4.7644,-4.7272,-6.8534,-6.9405,-6.9686,-6.9995,-7.0276,-7.0304,-6.9967,-6.9405,-6.9068,-6.8389,-6.7617,-6.7255,-6.6904,-6.6595,-6.6595,-6.6595,-6.6595,-6.6595,-6.5791,-6.4201,-6.2561,-6.0962,-5.933,-5.7922,-5.7021,-5.7045,-5.7021,-5.7021,-5.7021,-5.7021,-5.7021,-5.7021,-5.7045,-5.7213,-5.7357,-5.7381,-5.7574,-5.767,-5.7502,-5.7502,-5.7694,-5.7502,-5.7454,-5.7838,-5.8295,-5.8608,-5.8632,-5.9113,-5.9498,-5.9762,-6.0027,-6.0171,-6.0171,-6.0171,-6.0171,-6.0171,-6.0171,-6.0171,-6.0171,-6.0171,-6.0171,-6.0171,-6.0171,-5.9111,-5.7504,-5.5613,-5.3686,-5.1896,-5.0185,-4.8848,-4.859,-4.8312,-4.8053,-4.7848,-4.7569,-4.7289,-4.7102,-4.7215,-4.7365,-4.7385,-4.7347,-4.727,-4.7192,-4.706,-4.7073,-4.691,-4.7039,-4.713,-4.7149,-4.7314,-4.7295,-4.7185,-4.6819,-4.6507,-4.6434,-4.6213,-4.5975,-4.5883,-4.5883,-4.5883,-4.6048,-4.6213,-4.6342,-4.6599,-4.6892,-4.7149,-4.7406,-4.7424,-4.7461,-4.7571,-4.7717,-4.7901,-4.7919,-4.7681,-4.7424,-6.8983,-6.9573,-7.0079,-7.0304,-7.0304,-7.0304,-6.9939,-6.9349,-6.8843,-6.8421,-6.7676,-6.7101,-6.7157,-6.696,-6.6988,-6.6904,-6.6932,-6.689,-6.6362,-6.5299,-6.316,-6.1731,-6.0197,-5.8551,-5.7405,-5.7261,-5.7093,-5.7045,-5.7045,-5.7117,-5.7237,-5.7165,-5.7165,-5.7381,-5.7718,-5.7718,-5.7862,-5.8271,-5.8103,-5.8175,-5.8536,-5.8271,-5.8127,-5.8079,-5.8488,-5.8776,-5.8921,-5.9305,-5.9714,-6.0147,-6.0171,-6.0171,-6.0171,-6.0171,-6.0171,-6.0171,-6.0171,-6.0171,-6.0171,-6.0171,-6.0171,-6.0171,-5.9811,-5.8841,-5.7078,-5.5115,-5.3136,-5.1441,-4.971,-4.8559,-4.8149,-4.7793,-4.7495,-4.7196,-4.6822,-4.6635,-4.6635,-4.6916,-4.6859,-4.6672,-4.6653,-4.6631,-4.6571,-4.6513,-4.6694,-4.6837,-4.6947,-4.7002,-4.6984,-4.6984,-4.6929,-4.6782,-4.6415,-4.6269,-4.6195,-4.6177,-4.592,-4.5883,-4.5883,-4.5883,-4.5883,-4.5993,-4.6158,-4.6324,-4.658,-4.68,-4.6965,-4.7002,-4.7039,-4.7094,-4.7277,-4.7534,-4.7626,-4.7644,-4.7327,-6.9602,-7.0164,-7.0248,-7.0304,-7.0304,-7.0304,-6.9967,-6.9433,-6.9264,-6.8859,-6.8355,-6.8184,-6.8069,-6.8109,-6.8197,-6.814,-6.8,-6.7729,-6.7541,-6.6542,-6.431,-6.2483,-6.145,-5.9343,-5.828,-5.8079,-5.7598,-5.7165,-5.7237,-5.743,-5.7646,-5.767,-5.767,-5.779,-5.7694,-5.7478,-5.7814,-5.8488,-5.8464,-5.8656,-5.9017,-5.9089,-5.8824,-5.8584,-5.8921,-5.9137,-5.9305,-5.9714,-6.0099,-6.0171,-6.0171,-6.0171,-6.0171,-6.0171,-6.0171,-6.0171,-6.0171,-6.0171,-6.0171,-6.0171,-6.0171,-5.9919,-5.8988,-5.7348,-5.5711,-5.3899,-5.2117,-5.0264,-4.8969,-4.8082,-4.7988,-4.7554,-4.7159,-4.6859,-4.6653,-4.6466,-4.6202,-4.6184,-4.6278,-4.6166,-4.609,-4.609,-4.6143,-4.6122,-4.6232,-4.6397,-4.6507,-4.6452,-4.6379,-4.6434,-4.647,-4.6269,-4.6012,-4.5975,-4.5938,-4.5957,-4.5883,-4.5883,-4.5883,-4.5883,-4.5883,-4.5883,-4.5993,-4.6158,-4.6195,-4.6305,-4.6434,-4.6544,-4.669,-4.6782,-4.6984,-4.7204,-4.7259,-4.7295,-4.7059,-6.9742,-7.0304,-7.0304,-7.0304,-7.0304,-7.0304,-6.9967,-6.9433,-6.9377,-6.9056,-6.8678,-6.8522,-6.8534,-6.8518,-6.8534,-6.8478,-6.8361,-6.745,-6.6761,-6.5544,-6.3438,-6.1672,-6.1248,-5.9236,-5.8747,-5.8464,-5.8055,-5.7814,-5.7862,-5.8103,-5.8223,-5.8223,-5.8223,-5.8223,-5.8175,-5.8055,-5.8103,-5.856,-5.8632,-5.8848,-5.9378,-5.9594,-5.9474,-5.9233,-5.9185,-5.9353,-5.9426,-5.957,-5.9907,-6.0099,-6.0171,-6.0171,-6.0171,-6.0171,-6.0171,-6.0171,-6.0171,-6.0171,-6.0171,-6.0171,-6.0171,-6.0027,-5.8617,-5.6833,-5.4974,-5.3198,-5.1196,-4.9546,-4.8442,-4.7853,-4.7834,-4.7383,-4.7006,-4.6872,-4.6555,-4.6313,-4.618,-4.5993,-4.592,-4.5883,-4.5996,-4.5996,-4.5902,-4.5938,-4.5902,-4.5975,-4.6067,-4.6012,-4.5902,-4.5993,-4.614,-4.6048,-4.5902,-4.5902,-4.5883,-4.5883,-4.5883,-4.5883,-4.5883,-4.5883,-4.5883,-4.5883,-4.5883,-4.5957,-4.5975,-4.6012,-4.603,-4.6195,-4.6342,-4.6489,-4.6635,-4.6782,-4.6874,-4.6851,-4.6634,-6.9854,-7.0304,-7.0304,-7.0304,-7.0304,-7.0304,-7.0051,-6.963,-6.9602,-6.9349,-6.8899,-6.8871,-6.8899,-6.8871,-6.8899,-6.8871,-6.877,-6.7497,-6.6379,-6.486,-6.3128,-6.1201,-5.9854,-5.8979,-5.9017,-5.9113,-5.8969,-5.88,-5.8512,-5.868,-5.8752,-5.8752,-5.8752,-5.8752,-5.8728,-5.8536,-5.8656,-5.8752,-5.8776,-5.9017,-5.9402,-5.9642,-5.9666,-5.9329,-5.9329,-5.9378,-5.9402,-5.9594,-5.9834,-6.0075,-6.0171,-6.0171,-6.0171,-6.0171,-6.0171,-6.0171,-6.0171,-6.0171,-6.0171,-6.0171,-6.0051,-5.9517,-5.8143,-5.6243,-5.43,-5.2372,-5.0676,-4.9033,-4.8092,-4.7802,-4.7747,-4.7143,-4.6823,-4.6768,-4.6474,-4.6048,-4.6122,-4.6067,-4.592,-4.5883,-4.5883,-4.5883,-4.5883,-4.5883,-4.5883,-4.5883,-4.5993,-4.5993,-4.5883,-4.5883,-4.5975,-4.5957,-4.5902,-4.5902,-4.5883,-4.5883,-4.5883,-4.5883,-4.5883,-4.5883,-4.5883,-4.5883,-4.5883,-4.5883,-4.5902,-4.5938,-4.5902,-4.5883,-4.6067,-4.6195,-4.6269,-4.6342,-4.6434,-4.633,-4.6187,-7.0248,-7.0304,-7.0304,-7.0304,-7.0304,-7.0304,-7.0276,-7.0192,-7.0135,-7.0164,-6.9939,-7.0023,-6.9995,-6.9967,-6.9995,-7.0023,-6.9847,-6.9291,-6.8058,-6.6327,-6.4769,-6.3021,-6.1876,-6.0622,-5.9977,-5.9762,-5.9834,-5.9426,-5.9041,-5.9161,-5.9281,-5.9305,-5.9305,-5.9257,-5.9137,-5.8872,-5.8848,-5.9185,-5.9257,-5.9305,-5.9329,-5.9113,-5.8969,-5.8969,-5.9185,-5.945,-5.9522,-5.9786,-6.0075,-6.0123,-6.0171,-6.0171,-6.0171,-6.0171,-6.0171,-6.0171,-6.0171,-6.0171,-6.0171,-6.0171,-5.9507,-5.8264,-5.6353,-5.4481,-5.2649,-5.0993,-4.9463,-4.9222,-4.8238,-4.7839,-4.7747,-4.7337,-4.6929,-4.669,-4.647,-4.6177,-4.6103,-4.6048,-4.592,-4.5883,-4.5883,-4.5883,-4.5883,-4.5883,-4.5883,-4.5883,-4.5883,-4.5883,-4.5883,-4.5883,-4.5883,-4.5883,-4.5883,-4.5883,-4.5883,-4.5883,-4.5883,-4.5883,-4.5883,-4.5883,-4.5883,-4.5883,-4.5883,-4.5883,-4.5883,-4.5883,-4.5883,-4.5883,-4.5883,-4.5957,-4.6067,-4.603,-4.5975,-4.5816,-4.5418,-7.0304,-7.0304,-7.0304,-7.0304,-7.0304,-7.0304,-7.0304,-7.0304,-7.0304,-7.0304,-7.0304,-7.0304,-7.0304,-7.0304,-7.0304,-7.0304,-7.0054,-6.9354,-6.7936,-6.6339,-6.4685,-6.2941,-6.1408,-6.0566,-6.0255,-6.0171,-6.0147,-5.9979,-5.9642,-5.9642,-5.9834,-5.981,-5.981,-5.9642,-5.9474,-5.9161,-5.8993,-5.9041,-5.9185,-5.9353,-5.9402,-5.945,-5.9474,-5.9474,-5.969,-5.9786,-5.9883,-6.0003,-6.0171,-6.0171,-6.0171,-6.0171,-6.0171,-6.0171,-6.0171,-6.0171,-6.0171,-6.0171,-6.0171,-5.9919,-5.8827,-5.7311,-5.5308,-5.3415,-5.1263,-4.9614,-4.8682,-4.8663,-4.8336,-4.8029,-4.7864,-4.7442,-4.7277,-4.7002,-4.6544,-4.6342,-4.6122,-4.5957,-4.5883,-4.5883,-4.5883,-4.5883,-4.5883,-4.5883,-4.5883,-4.5883,-4.5883,-4.5883,-4.5883,-4.5883,-4.5883,-4.5883,-4.5883,-4.5883,-4.5883,-4.5883,-4.5883,-4.5883,-4.5883,-4.5883,-4.5883,-4.5883,-4.5883,-4.5883,-4.5883,-4.5883,-4.5883,-4.5883,-4.5883,-4.5883,-4.5902,-4.5883,-4.5789,-4.418,-4.3225,-7.0304,-7.0304,-7.0304,-7.0388,-7.0501,-7.0388,-7.0416,-7.0529,-7.036,-7.0304,-7.0304,-7.0304,-7.0304,-7.0304,-7.0304,-7.0304,-7.023,-6.8572,-6.6832,-6.5161,-6.3483,-6.1903,-6.0792,-6.0255,-6.0171,-6.0171,-6.0171,-6.0099,-6.0123,-6.0147,-6.0123,-6.0171,-6.0099,-5.9955,-5.969,-5.957,-5.9474,-5.9257,-5.9498,-5.9618,-5.969,-5.9955,-6.0075,-6.0147,-6.0171,-6.0171,-6.0171,-6.0171,-6.0171,-6.0171,-6.0171,-6.0171,-6.0171,-6.0171,-6.0171,-6.0171,-6.0087,-5.9558,-5.9195,-5.8577,-5.7745,-5.5975,-5.3878,-5.1364,-4.9617,-4.8484,-4.8286,-4.8385,-4.8102,-4.8084,-4.7992,-4.7479,-4.7185,-4.691,-4.658,-4.6415,-4.6232,-4.603,-4.5883,-4.5883,-4.5883,-4.5883,-4.5883,-4.5883,-4.5883,-4.5883,-4.5883,-4.5883,-4.5883,-4.5883,-4.5883,-4.5883,-4.5883,-4.5883,-4.5883,-4.5883,-4.5883,-4.5883,-4.5883,-4.5883,-4.5883,-4.5883,-4.5883,-4.5883,-4.5883,-4.5883,-4.5883,-4.5883,-4.5883,-4.5883,-4.5883,-4.5883,-4.5318,-4.3556,-4.1238,-7.0304,-7.0304,-7.0332,-7.0641,-7.1091,-7.0529,-7.0641,-7.1007,-7.0529,-7.0276,-7.022,-7.0304,-7.0304,-7.0276,-7.0276,-7.0304,-7.023,-6.8572,-6.6909,-6.524,-6.3483,-6.1903,-6.0817,-6.0171,-6.0171,-6.0171,-6.0171,-6.0171,-6.0171,-6.0171,-6.0171,-6.0171,-6.0171,-6.0147,-6.0075,-5.9979,-5.9979,-5.9834,-5.9979,-6.0027,-6.0027,-6.0147,-6.0171,-6.0171,-6.0171,-6.0171,-6.0171,-6.0171,-6.0171,-6.0171,-6.0171,-6.0171,-6.0171,-6.0087,-6.0087,-6.0003,-5.975,-5.8856,-5.7676,-5.701,-5.5819,-5.3645,-5.1223,-4.9221,-4.8497,-4.833,-4.8249,-4.8121,-4.7864,-4.7754,-4.7626,-4.7369,-4.6965,-4.6727,-4.6452,-4.625,-4.6103,-4.6012,-4.5883,-4.5883,-4.5883,-4.5883,-4.5883,-4.5883,-4.5883,-4.5883,-4.5883,-4.5883,-4.5883,-4.5883,-4.5883,-4.5883,-4.5883,-4.5883,-4.5883,-4.5883,-4.5883,-4.5883,-4.5883,-4.5883,-4.5883,-4.5883,-4.5883,-4.5883,-4.5883,-4.5883,-4.5883,-4.5883,-4.5883,-4.5883,-4.5789,-4.5506,-4.424,-4.22,-3.977,-7.0529,-7.0866,-7.0866,-7.1007,-7.1203,-7.0978,-7.1007,-7.1091,-7.0557,-7.0079,-6.9798,-7.0107,-7.0107,-6.9939,-7.0192,-7.0304,-7.023,-6.9756,-6.7526,-6.5791,-6.4286,-6.264,-6.1208,-6.0195,-6.0171,-6.0195,-6.0195,-6.0171,-6.0171,-6.0243,-6.0195,-6.0171,-6.0195,-6.0171,-6.0171,-6.0171,-6.0171,-6.0171,-6.0171,-6.0171,-6.0171,-6.0171,-6.0171,-6.0171,-6.0171,-6.0171,-6.0171,-6.0171,-6.0171,-6.0171,-6.0171,-6.0171,-6.0087,-5.9919,-5.975,-5.9666,-5.9243,-5.7808,-5.6098,-5.5422,-5.4494,-5.1564,-4.9033,-4.7453,-4.7864,-4.7754,-4.7589,-4.7479,-4.7461,-4.7332,-4.7277,-4.6965,-4.6617,-4.647,-4.6287,-4.6085,-4.5975,-4.592,-4.5883,-4.5883,-4.5883,-4.5883,-4.5883,-4.5883,-4.5883,-4.5883,-4.5883,-4.5883,-4.5883,-4.5883,-4.5883,-4.5883,-4.5883,-4.5883,-4.5883,-4.5883,-4.5883,-4.5883,-4.5883,-4.5883,-4.5883,-4.5883,-4.5883,-4.5883,-4.592,-4.5957,-4.5957,-4.5902,-4.592,-4.5975,-4.5467,-4.4714,-4.2967,-4.0998,-3.8611,-7.0838,-7.1259,-7.1625,-7.1793,-7.1737,-7.1372,-7.1344,-7.1344,-7.0641,-7.0079,-6.9686,-7.0107,-7.0079,-6.9883,-7.0079,-6.983,-6.9354,-6.8572,-6.6805,-6.5003,-6.3346,-6.2313,-6.0949,-6.0339,-6.0484,-6.0436,-6.0628,-6.0724,-6.0772,-6.0508,-6.046,-6.0412,-6.0243,-6.0195,-6.0171,-6.0171,-6.0171,-6.0171,-6.0171,-6.0171,-6.0171,-6.0171,-6.0171,-6.0171,-6.0171,-6.0171,-6.0171,-6.0171,-6.0171,-6.0171,-6.0087,-6.0003,-5.9835,-5.9666,-5.9327,-5.8964,-5.8174,-5.6686,-5.4961,-5.3344,-5.2081,-4.9372,-4.8005,-4.7342,-4.7406,-4.7424,-4.7442,-4.7167,-4.7057,-4.691,-4.6892,-4.6562,-4.6324,-4.6177,-4.6103,-4.5938,-4.5938,-4.5883,-4.5883,-4.5883,-4.5883,-4.5883,-4.5883,-4.5883,-4.5883,-4.5883,-4.5883,-4.5883,-4.5883,-4.5883,-4.5883,-4.5883,-4.5883,-4.5883,-4.5883,-4.5883,-4.5883,-4.5883,-4.5883,-4.5883,-4.5883,-4.5883,-4.5902,-4.5902,-4.5957,-4.603,-4.6158,-4.6305,-4.6232,-4.6103,-4.5684,-4.5317,-4.2365,-4.0394,-3.8058,-7.1203,-7.1372,-7.2524,-7.3002,-7.2861,-7.1737,-7.1569,-7.185,-7.0782,-7.0192,-7.0079,-7.022,-7.022,-7.0164,-7.0192,-6.9532,-6.8116,-6.6754,-6.4923,-6.3402,-6.2356,-6.0865,-6.058,-6.0652,-6.0965,-6.1085,-6.1277,-6.147,-6.1614,-6.1157,-6.0989,-6.0796,-6.0556,-6.0243,-6.0195,-6.0171,-6.0171,-6.0171,-6.0171,-6.0171,-6.0171,-6.0171,-6.0171,-6.0171,-6.0171,-6.0171,-6.0171,-6.0171,-6.0171,-6.0171,-5.9811,-5.9642,-5.9558,-5.9073,-5.8733,-5.8368,-5.6577,-5.4631,-5.2566,-5.0307,-4.8792,-4.7851,-4.7121,-4.7245,-4.7534,-4.7589,-4.7351,-4.6965,-4.6709,-4.6525,-4.636,-4.6195,-4.6048,-4.5975,-4.592,-4.5883,-4.5883,-4.5883,-4.5883,-4.5883,-4.5883,-4.5883,-4.5883,-4.5883,-4.5883,-4.5883,-4.5883,-4.5883,-4.5883,-4.5883,-4.5883,-4.5883,-4.5883,-4.5883,-4.5883,-4.5883,-4.5883,-4.5883,-4.5883,-4.5883,-4.5883,-4.5883,-4.5902,-4.5938,-4.6103,-4.6269,-4.6544,-4.68,-4.6745,-4.6709,-4.68,-4.5909,-4.2705,-3.9981,-3.7989,-7.1456,-7.1934,-7.2777,-7.3339,-7.3479,-7.2383,-7.199,-7.1878,-7.0529,-6.9714,-6.9686,-6.9686,-6.9714,-6.9798,-6.9988,-6.9354,-6.7783,-6.7399,-6.5713,-6.2803,-6.2084,-6.1639,-6.1268,-6.1181,-6.1494,-6.1566,-6.1758,-6.1879,-6.1758,-6.1566,-6.1542,-6.1374,-6.1061,-6.0532,-6.0267,-6.0171,-6.0171,-6.0171,-6.0171,-6.0171,-6.0171,-6.0171,-6.0171,-6.0171,-6.0171,-6.0171,-6.0171,-6.0171,-6.0171,-6.0171,-5.9726,-5.9473,-5.9304,-5.8818,-5.7682,-5.6773,-5.4983,-5.3302,-5.058,-4.8219,-4.7196,-4.6919,-4.6947,-4.7094,-4.7571,-4.7112,-4.6874,-4.669,-4.6379,-4.6177,-4.603,-4.6012,-4.592,-4.592,-4.5883,-4.5883,-4.5883,-4.5883,-4.5883,-4.5883,-4.5883,-4.5883,-4.5883,-4.5883,-4.5883,-4.5883,-4.5883,-4.5883,-4.5883,-4.5883,-4.5883,-4.5883,-4.5883,-4.5883,-4.5883,-4.5883,-4.5883,-4.5883,-4.5883,-4.5883,-4.5883,-4.592,-4.6067,-4.6177,-4.636,-4.6562,-4.6929,-4.724,-4.7351,-4.7387,-4.698,-4.5487,-4.2228,-4.0169,-3.8641,-7.1934,-7.2552,-7.317,-7.3507,-7.3535,-7.2608,-7.1878,-7.1147,-7.0135,-6.9602,-6.9489,-6.9602,-6.9742,-6.9854,-6.9931,-6.8799,-6.7064,-6.6832,-6.5003,-6.2306,-6.2307,-6.1666,-6.1389,-6.1686,-6.1999,-6.2095,-6.2263,-6.236,-6.2408,-6.2167,-6.2071,-6.2023,-6.1855,-6.147,-6.0965,-6.0532,-6.0171,-6.0171,-6.0171,-6.0171,-6.0171,-6.0171,-6.0171,-6.0171,-6.0171,-6.0171,-6.0171,-6.0171,-6.0171,-6.0087,-5.975,-5.9388,-5.8964,-5.7831,-5.6513,-5.5269,-5.3013,-5.1145,-4.8254,-4.6971,-4.6477,-4.6984,-4.68,-4.7039,-4.7442,-4.7149,-4.6782,-4.647,-4.6122,-4.5975,-4.5902,-4.5883,-4.5883,-4.5883,-4.5883,-4.5883,-4.5883,-4.5883,-4.5883,-4.5883,-4.5883,-4.5883,-4.5883,-4.5883,-4.5883,-4.5883,-4.5883,-4.5883,-4.5883,-4.5883,-4.5883,-4.5883,-4.5883,-4.5883,-4.5883,-4.5883,-4.5883,-4.5883,-4.5883,-4.5883,-4.5993,-4.603,-4.6232,-4.6489,-4.6819,-4.713,-4.7461,-4.7699,-4.7558,-4.6986,-4.6243,-4.422,-4.1573,-4.0016,-3.8654,-7.2552,-7.317,-7.376,-7.3648,-7.3058,-7.2327,-7.1063,-6.9545,-6.9967,-6.9854,-6.9433,-6.9939,-7.0107,-7.0146,-7.023,-6.8317,-6.5791,-6.5319,-6.326,-6.1536,-6.1462,-6.1183,-6.158,-6.2119,-6.2504,-6.2768,-6.2913,-6.2985,-6.3201,-6.2961,-6.2744,-6.2841,-6.3033,-6.26,-6.1903,-6.1181,-6.058,-6.0315,-6.0171,-6.0171,-6.0171,-6.0171,-6.0171,-6.0171,-6.0171,-6.0171,-6.0171,-6.0087,-6.0087,-5.9919,-5.9642,-5.9158,-5.8088,-5.6404,-5.5356,-5.348,-5.0601,-4.8254,-4.6803,-4.6088,-4.651,-4.7094,-4.7149,-4.7369,-4.7461,-4.7332,-4.6929,-4.6544,-4.6213,-4.603,-4.5883,-4.5883,-4.5883,-4.5883,-4.5883,-4.5883,-4.5883,-4.5883,-4.5883,-4.5883,-4.5883,-4.5883,-4.5883,-4.5883,-4.5883,-4.5883,-4.5883,-4.5883,-4.5883,-4.5883,-4.5883,-4.5883,-4.5883,-4.5883,-4.5883,-4.5883,-4.5883,-4.5883,-4.5883,-4.5902,-4.6012,-4.6177,-4.6415,-4.6764,-4.7314,-4.7662,-4.7864,-4.7733,-4.7446,-4.6815,-4.5895,-4.3238,-4.0693,-3.9544,-3.8236,-7.2945,-7.317,-7.376,-7.3676,-7.2917,-7.1484,-7.0276,-6.9461,-6.918,-6.9068,-6.9405,-6.9573,-6.9967,-7.0202,-6.9053,-6.7218,-6.5477,-6.3882,-6.253,-6.1509,-6.1205,-6.171,-6.2215,-6.2696,-6.3033,-6.3153,-6.3249,-6.337,-6.3442,-6.3418,-6.3923,-6.4235,-6.4091,-6.373,-6.3153,-6.2408,-6.1398,-6.0556,-6.0364,-6.0219,-6.0195,-6.0171,-6.0171,-6.0171,-6.0171,-6.0171,-6.0087,-5.9835,-5.975,-5.9666,-5.8903,-5.8026,-5.6143,-5.5159,-5.4013,-5.051,-4.8181,-4.654,-4.6327,-4.6305,-4.6635,-4.7277,-4.7479,-4.7754,-4.7809,-4.7571,-4.7112,-4.6745,-4.6305,-4.6067,-4.592,-4.5883,-4.5883,-4.5883,-4.5883,-4.5883,-4.5883,-4.5883,-4.5883,-4.5883,-4.5883,-4.5883,-4.5883,-4.5883,-4.5883,-4.5883,-4.5883,-4.5883,-4.5883,-4.5883,-4.5883,-4.5883,-4.5883,-4.5883,-4.5883,-4.5883,-4.5883,-4.5883,-4.5883,-4.5938,-4.6048,-4.625,-4.6562,-4.7039,-4.7607,-4.7956,-4.8176,-4.797,-4.7672,-4.654,-4.5334,-4.2522,-4.0008,-3.8782,-3.7652,-7.3254,-7.3507,-7.3845,-7.3535,-7.2496,-7.0754,-6.9714,-6.9349,-6.8983,-6.9068,-6.9377,-6.9686,-6.9967,-6.9951,-6.8572,-6.6909,-6.5161,-6.3589,-6.2093,-6.1365,-6.1566,-6.2023,-6.2576,-6.3057,-6.3249,-6.3322,-6.337,-6.3466,-6.3754,-6.4404,-6.4957,-6.5125,-6.4981,-6.4789,-6.4332,-6.3682,-6.2696,-6.159,-6.082,-6.0436,-6.0291,-6.0219,-6.0171,-6.0219,-6.0219,-6.0219,-5.9967,-5.9629,-5.9436,-5.9243,-5.8562,-5.7401,-5.5225,-5.3608,-5.1391,-4.8377,-4.7384,-4.6698,-4.669,-4.6727,-4.7112,-4.7497,-4.7717,-4.7901,-4.7919,-4.7736,-4.7369,-4.702,-4.6507,-4.6085,-4.5975,-4.5883,-4.5883,-4.5883,-4.5883,-4.5883,-4.5883,-4.5883,-4.5883,-4.5883,-4.5883,-4.5883,-4.5883,-4.5883,-4.5883,-4.5883,-4.5883,-4.5883,-4.5883,-4.5883,-4.5883,-4.5883,-4.5883,-4.5883,-4.5883,-4.5883,-4.5883,-4.5883,-4.5883,-4.5957,-4.6085,-4.6489,-4.6965,-4.7442,-4.7937,-4.8157,-4.8286,-4.8187,-4.7871,-4.664,-4.5119,-4.2758,-4.0008,-3.7652,-3.653,-7.3507,-7.3957,-7.3845,-7.3058,-7.1934,-7.0107,-6.9349,-6.9377,-6.9349,-6.9377,-6.9489,-7.0023,-7.01,-6.9429,-6.7936,-6.6261,-6.4603,-6.2985,-6.1924,-6.1146,-6.171,-6.2263,-6.2744,-6.3105,-6.3298,-6.3346,-6.3514,-6.3851,-6.4428,-6.5005,-6.5486,-6.5775,-6.6087,-6.5871,-6.5197,-6.4885,-6.3947,-6.272,-6.1782,-6.1205,-6.0628,-6.0388,-6.0291,-6.0388,-6.0412,-6.0303,-5.9941,-5.9578,-5.9361,-5.9129,-5.8188,-5.7174,-5.418,-5.1362,-4.8684,-4.7609,-4.6974,-4.7062,-4.7094,-4.7149,-4.7369,-4.7626,-4.7772,-4.7974,-4.8011,-4.7846,-4.7497,-4.7112,-4.6599,-4.6177,-4.5993,-4.592,-4.5883,-4.5883,-4.5883,-4.5883,-4.5883,-4.5883,-4.5883,-4.5883,-4.5883,-4.5883,-4.5883,-4.5883,-4.5883,-4.5883,-4.5883,-4.5883,-4.5883,-4.5883,-4.5883,-4.5883,-4.5883,-4.5883,-4.5883,-4.5883,-4.5883,-4.5883,-4.5883,-4.6067,-4.6269,-4.6782,-4.7406,-4.7791,-4.8139,-4.8194,-4.8286,-4.8286,-4.7871,-4.6758,-4.5119,-4.3063,-4.0523,-3.7861,-3.6124,-7.3873,-7.3873,-7.2496,-7.1709,-7.1231,-6.9489,-6.9011,-6.9377,-6.9377,-6.9405,-6.9517,-6.9921,-6.9681,-6.8648,-6.6677,-6.5003,-6.3614,-6.2465,-6.1632,-6.1738,-6.2095,-6.2552,-6.3033,-6.3225,-6.3322,-6.3466,-6.3779,-6.438,-6.5101,-6.5582,-6.5919,-6.6256,-6.6496,-6.6208,-6.5967,-6.5678,-6.4789,-6.3682,-6.2985,-6.2167,-6.1518,-6.1422,-6.1422,-6.1374,-6.135,-6.1192,-6.0849,-6.0442,-6.023,-5.9906,-5.7555,-5.4913,-5.1355,-4.9032,-4.7697,-4.708,-4.7112,-4.7332,-4.7479,-4.7571,-4.7736,-4.7974,-4.8121,-4.8194,-4.8121,-4.7864,-4.7534,-4.713,-4.6745,-4.6342,-4.6012,-4.5938,-4.5883,-4.5883,-4.5883,-4.5883,-4.5883,-4.5883,-4.5883,-4.5883,-4.5883,-4.5883,-4.5883,-4.5883,-4.5883,-4.5883,-4.5883,-4.5883,-4.5883,-4.5883,-4.5883,-4.5883,-4.5883,-4.5883,-4.5883,-4.5883,-4.5883,-4.5883,-4.5883,-4.6122,-4.6434,-4.702,-4.7607,-4.7974,-4.8267,-4.8286,-4.8286,-4.8286,-4.7772,-4.6957,-4.594,-4.4195,-4.1942,-3.9285,-3.7353,-7.4013,-7.3816,-7.2327,-7.1316,-7.0669,-6.9686,-6.9489,-6.9742,-6.9798,-6.9798,-6.9679,-6.9439,-6.8978,-6.7936,-6.5634,-6.4392,-6.323,-6.1771,-6.1522,-6.1869,-6.2384,-6.2817,-6.3129,-6.3322,-6.3322,-6.349,-6.4187,-6.4909,-6.5654,-6.6015,-6.628,-6.6448,-6.6472,-6.6448,-6.6376,-6.5919,-6.527,-6.4476,-6.3923,-6.3225,-6.2384,-6.2143,-6.1855,-6.1807,-6.1807,-6.1744,-6.1264,-6.0631,-5.9709,-5.796,-5.5081,-5.2879,-5.0248,-4.8554,-4.7623,-4.7424,-4.7552,-4.7736,-4.7882,-4.7974,-4.8047,-4.8212,-4.8286,-4.8267,-4.8267,-4.7992,-4.7681,-4.7277,-4.7066,-4.6661,-4.6067,-4.5902,-4.5883,-4.5883,-4.5883,-4.5883,-4.5883,-4.5883,-4.5883,-4.5883,-4.5883,-4.5883,-4.5883,-4.5883,-4.5883,-4.5883,-4.5883,-4.5883,-4.5883,-4.5883,-4.5883,-4.5883,-4.5883,-4.5883,-4.5883,-4.5883,-4.5883,-4.5883,-4.5883,-4.6287,-4.6672,-4.7259,-4.7791,-4.8102,-4.8286,-4.8286,-4.8286,-4.8286,-4.8286,-4.7772,-4.6758,-4.5622,-4.308,-4.0523,-3.8366,-7.3985,-7.3732,-7.2468,-7.1372,-7.0473,-7.022,-7.0192,-7.0276,-7.0304,-7.0276,-6.9849,-6.8241,-6.8497,-6.7526,-6.5556,-6.4737,-6.3651,-6.1956,-6.1617,-6.1975,-6.2504,-6.2937,-6.3201,-6.3322,-6.349,-6.3923,-6.462,-6.5246,-6.5895,-6.6183,-6.6376,-6.6424,-6.6376,-6.6328,-6.6183,-6.5847,-6.5197,-6.4668,-6.4163,-6.3803,-6.3153,-6.2528,-6.2152,-6.1984,-6.1912,-6.1628,-6.1193,-6.0206,-5.8833,-5.6476,-5.3416,-5.1036,-4.9723,-4.8405,-4.8108,-4.7827,-4.7974,-4.8121,-4.8231,-4.8212,-4.8249,-4.8286,-4.8286,-4.8286,-4.8286,-4.8121,-4.7791,-4.7539,-4.7232,-4.6827,-4.6308,-4.5902,-4.5902,-4.592,-4.592,-4.592,-4.592,-4.592,-4.592,-4.592,-4.5902,-4.5902,-4.5883,-4.5883,-4.5883,-4.5883,-4.5883,-4.5883,-4.5883,-4.5883,-4.5883,-4.5883,-4.5883,-4.5883,-4.5883,-4.5883,-4.5883,-4.5883,-4.5957,-4.6415,-4.6892,-4.7369,-4.7809,-4.8139,-4.8286,-4.8286,-4.8286,-4.8286,-4.8286,-4.8286,-4.7672,-4.6341,-4.3181,-4.0729,-3.8989,-7.3732,-7.3114,-7.1428,-7.0782,-7.0838,-7.0023,-6.9854,-7.0276,-7.0304,-7.0304,-6.9578,-6.7141,-6.5975,-6.6209,-6.5477,-6.4386,-6.263,-6.1728,-6.2075,-6.248,-6.2865,-6.3153,-6.3346,-6.3466,-6.3899,-6.4524,-6.5173,-6.5751,-6.5967,-6.6256,-6.6232,-6.5895,-6.5871,-6.5678,-6.527,-6.5005,-6.4837,-6.4428,-6.4163,-6.3803,-6.349,-6.2993,-6.284,-6.2592,-6.2415,-6.2149,-6.1437,-5.9658,-5.8612,-5.6636,-5.3554,-5.061,-4.9192,-4.8484,-4.8164,-4.8084,-4.8231,-4.8249,-4.8286,-4.8286,-4.8286,-4.8286,-4.8286,-4.8286,-4.8286,-4.8267,-4.7956,-4.7662,-4.7374,-4.7047,-4.6547,-4.6085,-4.5975,-4.603,-4.6048,-4.6048,-4.6048,-4.603,-4.6012,-4.5975,-4.5938,-4.592,-4.5883,-4.5883,-4.5883,-4.5883,-4.5883,-4.5883,-4.5883,-4.5883,-4.5883,-4.5883,-4.5883,-4.5883,-4.5883,-4.5883,-4.5883,-4.5883,-4.6012,-4.6452,-4.691,-4.7387,-4.7809,-4.8157,-4.8286,-4.8286,-4.8286,-4.8286,-4.8286,-4.8286,-4.8286,-4.6957,-4.3587,-4.1037,-3.9403]}]]